[[{"header":{"parameterUnit":"m.s-1","parameterCategory":1,"la1":30.6,"la2":29.2853,"lo1":-89.7004,"lo2":-87.6739,"dx":0.0162,"dy":0.0183,"nx":112,"ny":82,"refTime":"2023-02-14T18:00:00:Z","depth":0,"parameterNumber":2,"parameterNumberName":"U-component_of_WINDS"},"data":[0.0,0.0,0.0,0.0,0.0,0.0,0.0,0.0,0.0,0.0,0.0,0.0,0.0,0.0,0.0,0.0,0.0,0.0,0.0,0.0,0.0,0.0,0.0,0.0,0.0,0.0,0.0,0.0,0.0,0.0,0.0,0.0,0.0,0.0,0.0,0.0,0.0,0.0,0.0,0.0,0.0,0.0,0.0,0.0,0.0,0.0,0.0,0.0,0.0,0.0,0.0,0.0,0.0,0.0,0.0,0.0,0.0,0.0,0.0,0.0,0.0,0.0,0.0,0.0,0.0,0.0,0.0,0.0,0.0,0.0,0.0,0.0,0.0,0.0,0.0,0.0,0.0,0.0,0.0,0.0,0.0,0.0,0.0,0.0,0.0,0.0,0.0,0.0,0.0,0.0,-5.7847,-5.8551,-6.2341,-6.5643,-6.7735,-6.9264,-6.9207,-6.7114,0.0,0.0,0.0,0.0,0.0,0.0,0.0,0.0,0.0,0.0,0.0,0.0,0.0,0.0,0.0,0.0,0.0,0.0,0.0,0.0,0.0,0.0,0.0,0.0,0.0,0.0,0.0,0.0,0.0,0.0,0.0,0.0,0.0,0.0,0.0,0.0,0.0,0.0,0.0,0.0,0.0,0.0,0.0,0.0,0.0,0.0,0.0,0.0,0.0,0.0,0.0,0.0,0.0,0.0,0.0,0.0,0.0,0.0,0.0,0.0,0.0,0.0,0.0,0.0,0.0,0.0,0.0,0.0,0.0,0.0,0.0,0.0,0.0,0.0,0.0,0.0,0.0,0.0,0.0,0.0,0.0,0.0,0.0,0.0,0.0,0.0,0.0,0.0,0.0,0.0,0.0,0.0,0.0,0.0,0.0,0.0,0.0,0.0,0.0,0.0,0.0,0.0,0.0,0.0,-5.8104,-5.9889,-6.1809,-6.3986,-6.6459,-6.6671,-6.6192,-6.5086,0.0,0.0,0.0,0.0,0.0,0.0,0.0,0.0,0.0,0.0,0.0,0.0,0.0,0.0,0.0,0.0,0.0,0.0,0.0,0.0,0.0,0.0,0.0,0.0,0.0,0.0,0.0,0.0,0.0,0.0,0.0,0.0,0.0,0.0,0.0,0.0,0.0,0.0,0.0,0.0,0.0,0.0,0.0,0.0,0.0,0.0,0.0,0.0,0.0,0.0,0.0,0.0,0.0,0.0,0.0,0.0,0.0,0.0,0.0,0.0,0.0,0.0,0.0,0.0,0.0,0.0,0.0,0.0,0.0,0.0,0.0,0.0,0.0,0.0,0.0,0.0,0.0,0.0,0.0,0.0,0.0,0.0,0.0,0.0,0.0,0.0,0.0,0.0,0.0,0.0,0.0,0.0,0.0,0.0,0.0,0.0,0.0,0.0,0.0,0.0,0.0,0.0,0.0,-5.6599,-5.6687,-5.9092,-6.0473,-6.238,-6.5335,-6.5123,-6.4753,-6.4615,-6.4941,0.0,0.0,0.0,0.0,0.0,0.0,0.0,0.0,0.0,0.0,0.0,0.0,0.0,0.0,0.0,0.0,0.0,0.0,0.0,0.0,0.0,0.0,0.0,0.0,0.0,0.0,0.0,0.0,0.0,0.0,0.0,0.0,0.0,0.0,0.0,0.0,0.0,0.0,0.0,0.0,0.0,0.0,0.0,0.0,0.0,0.0,0.0,0.0,0.0,0.0,0.0,0.0,0.0,0.0,0.0,0.0,0.0,0.0,0.0,0.0,0.0,0.0,0.0,0.0,0.0,0.0,0.0,0.0,0.0,0.0,0.0,0.0,0.0,0.0,0.0,0.0,0.0,0.0,0.0,0.0,0.0,0.0,0.0,0.0,0.0,0.0,0.0,0.0,0.0,0.0,0.0,0.0,0.0,0.0,0.0,0.0,0.0,0.0,0.0,0.0,0.0,0.0,-5.5151,-5.5205,-5.8089,-5.9185,-6.0957,-6.4044,-6.3872,-6.3762,-6.4103,-6.3424,0.0,0.0,0.0,0.0,0.0,0.0,0.0,0.0,0.0,0.0,0.0,0.0,0.0,0.0,0.0,0.0,0.0,0.0,0.0,0.0,0.0,0.0,0.0,0.0,0.0,0.0,0.0,0.0,0.0,0.0,0.0,0.0,0.0,0.0,0.0,0.0,0.0,0.0,0.0,0.0,0.0,0.0,0.0,0.0,0.0,0.0,0.0,0.0,0.0,0.0,0.0,0.0,0.0,0.0,0.0,0.0,0.0,0.0,0.0,0.0,0.0,0.0,0.0,0.0,0.0,0.0,0.0,0.0,0.0,0.0,0.0,0.0,0.0,0.0,0.0,0.0,0.0,0.0,0.0,0.0,0.0,0.0,0.0,0.0,0.0,0.0,0.0,0.0,0.0,0.0,0.0,0.0,0.0,0.0,0.0,0.0,0.0,0.0,0.0,0.0,0.0,0.0,-5.4333,-5.4509,-5.7712,-5.8556,-5.9875,-6.2379,-6.2659,-6.2711,-6.275,-6.2375,0.0,0.0,0.0,0.0,0.0,0.0,0.0,0.0,0.0,0.0,0.0,0.0,0.0,0.0,0.0,0.0,0.0,0.0,0.0,0.0,0.0,0.0,0.0,0.0,0.0,0.0,0.0,0.0,0.0,0.0,0.0,0.0,0.0,0.0,0.0,0.0,0.0,0.0,0.0,0.0,0.0,0.0,0.0,0.0,0.0,0.0,0.0,0.0,0.0,0.0,0.0,0.0,0.0,0.0,0.0,0.0,0.0,0.0,0.0,0.0,0.0,0.0,0.0,0.0,0.0,0.0,0.0,0.0,0.0,0.0,0.0,0.0,0.0,0.0,0.0,0.0,0.0,0.0,0.0,0.0,0.0,0.0,0.0,0.0,0.0,0.0,0.0,0.0,0.0,0.0,0.0,0.0,0.0,0.0,0.0,0.0,0.0,0.0,0.0,0.0,0.0,0.0,-5.4397,-5.4252,0.0,-5.7449,-5.8455,-6.0708,-6.096,-6.1231,-6.1789,0.0,0.0,0.0,0.0,0.0,0.0,0.0,0.0,0.0,0.0,0.0,0.0,0.0,0.0,0.0,0.0,0.0,0.0,0.0,0.0,0.0,0.0,0.0,0.0,0.0,0.0,0.0,0.0,0.0,0.0,0.0,0.0,0.0,0.0,0.0,0.0,0.0,0.0,0.0,0.0,0.0,0.0,0.0,0.0,0.0,0.0,0.0,0.0,0.0,0.0,0.0,0.0,0.0,0.0,0.0,0.0,0.0,0.0,0.0,0.0,0.0,0.0,0.0,0.0,0.0,0.0,0.0,0.0,0.0,0.0,0.0,0.0,0.0,0.0,0.0,0.0,0.0,0.0,0.0,0.0,0.0,0.0,0.0,0.0,0.0,0.0,0.0,0.0,0.0,0.0,0.0,0.0,0.0,0.0,0.0,0.0,0.0,0.0,0.0,0.0,0.0,0.0,-5.5137,-5.3558,-5.324,0.0,-5.5904,-5.6927,-5.9171,-5.9045,-5.9516,-6.1055,0.0,0.0,0.0,0.0,0.0,0.0,0.0,0.0,0.0,0.0,0.0,0.0,0.0,0.0,0.0,0.0,0.0,0.0,0.0,0.0,0.0,0.0,0.0,0.0,0.0,0.0,0.0,0.0,0.0,0.0,0.0,0.0,0.0,0.0,0.0,0.0,0.0,0.0,0.0,0.0,0.0,0.0,0.0,0.0,0.0,0.0,0.0,0.0,0.0,0.0,0.0,0.0,0.0,0.0,0.0,0.0,0.0,0.0,0.0,0.0,0.0,0.0,0.0,0.0,0.0,0.0,0.0,0.0,0.0,0.0,0.0,0.0,0.0,0.0,0.0,0.0,0.0,0.0,0.0,0.0,0.0,0.0,0.0,0.0,0.0,0.0,0.0,0.0,0.0,0.0,0.0,0.0,0.0,0.0,0.0,0.0,0.0,0.0,0.0,0.0,0.0,0.0,-5.2768,-5.1543,-5.1426,-5.302,-5.3922,-5.5354,-5.7776,-5.692,-5.7492,0.0,0.0,0.0,0.0,0.0,0.0,0.0,0.0,0.0,0.0,0.0,0.0,0.0,0.0,0.0,0.0,0.0,0.0,0.0,0.0,0.0,0.0,0.0,0.0,0.0,0.0,0.0,0.0,0.0,0.0,0.0,0.0,0.0,0.0,0.0,0.0,0.0,0.0,0.0,0.0,0.0,0.0,0.0,0.0,0.0,0.0,0.0,0.0,0.0,0.0,0.0,0.0,0.0,0.0,0.0,0.0,0.0,0.0,0.0,0.0,0.0,0.0,0.0,0.0,0.0,0.0,0.0,0.0,0.0,0.0,0.0,0.0,0.0,0.0,0.0,0.0,0.0,0.0,0.0,0.0,0.0,0.0,0.0,0.0,0.0,0.0,0.0,0.0,0.0,0.0,0.0,0.0,0.0,0.0,0.0,0.0,0.0,0.0,0.0,0.0,0.0,0.0,0.0,-5.2321,-5.138,-5.1426,-5.302,-5.3922,-5.4913,-5.6198,-5.5491,-5.5714,-5.7435,0.0,0.0,0.0,0.0,0.0,0.0,0.0,0.0,0.0,0.0,0.0,0.0,0.0,0.0,0.0,0.0,0.0,0.0,0.0,0.0,0.0,0.0,0.0,0.0,0.0,0.0,0.0,0.0,0.0,0.0,0.0,0.0,0.0,0.0,0.0,0.0,0.0,0.0,0.0,0.0,0.0,0.0,0.0,0.0,0.0,0.0,0.0,0.0,0.0,0.0,0.0,0.0,0.0,0.0,0.0,0.0,0.0,0.0,0.0,0.0,0.0,0.0,0.0,0.0,0.0,0.0,0.0,0.0,0.0,0.0,0.0,0.0,0.0,0.0,0.0,0.0,0.0,0.0,0.0,0.0,0.0,0.0,0.0,0.0,0.0,0.0,0.0,0.0,0.0,0.0,0.0,0.0,0.0,0.0,0.0,0.0,0.0,0.0,0.0,0.0,0.0,0.0,-5.1661,-5.1096,-5.1169,-5.216,-5.3261,-5.4188,-5.4824,-5.3983,-5.4059,-5.5503,0.0,0.0,0.0,0.0,0.0,0.0,0.0,0.0,0.0,0.0,0.0,0.0,0.0,0.0,0.0,0.0,0.0,0.0,0.0,0.0,0.0,0.0,0.0,0.0,0.0,0.0,0.0,0.0,0.0,0.0,0.0,0.0,0.0,0.0,0.0,0.0,0.0,0.0,0.0,0.0,0.0,0.0,0.0,0.0,0.0,0.0,0.0,0.0,0.0,0.0,0.0,0.0,0.0,0.0,0.0,0.0,0.0,0.0,0.0,0.0,0.0,0.0,0.0,0.0,0.0,0.0,0.0,0.0,0.0,0.0,0.0,0.0,0.0,0.0,0.0,0.0,0.0,0.0,0.0,0.0,0.0,0.0,0.0,0.0,0.0,0.0,0.0,0.0,0.0,0.0,0.0,0.0,0.0,0.0,0.0,0.0,0.0,0.0,0.0,0.0,0.0,0.0,-5.0905,-5.0692,-5.0729,-5.0802,-5.2123,-5.3185,-5.3631,-5.2593,-5.2557,-5.4105,0.0,0.0,0.0,0.0,0.0,0.0,0.0,0.0,0.0,0.0,0.0,0.0,0.0,0.0,0.0,0.0,0.0,0.0,0.0,0.0,0.0,0.0,0.0,0.0,0.0,0.0,0.0,0.0,0.0,0.0,0.0,0.0,0.0,0.0,0.0,0.0,0.0,0.0,0.0,0.0,0.0,0.0,0.0,0.0,0.0,0.0,0.0,0.0,0.0,0.0,0.0,0.0,0.0,0.0,0.0,0.0,0.0,0.0,0.0,0.0,-5.9403,-5.898,0.0,0.0,0.0,0.0,0.0,0.0,0.0,0.0,0.0,0.0,0.0,0.0,0.0,0.0,0.0,0.0,0.0,0.0,0.0,0.0,0.0,0.0,0.0,0.0,0.0,0.0,0.0,0.0,0.0,0.0,0.0,0.0,0.0,0.0,0.0,0.0,0.0,0.0,0.0,0.0,-5.0078,-4.9867,-5.0105,-5.0729,-5.1132,-5.1721,-5.2758,-5.1752,-5.1344,-5.2025,-5.2601,0.0,0.0,0.0,0.0,0.0,0.0,0.0,0.0,0.0,0.0,0.0,0.0,0.0,0.0,0.0,0.0,0.0,0.0,0.0,0.0,0.0,0.0,0.0,0.0,0.0,0.0,0.0,0.0,0.0,0.0,0.0,0.0,0.0,0.0,0.0,0.0,0.0,0.0,0.0,0.0,0.0,0.0,0.0,0.0,0.0,0.0,0.0,0.0,0.0,0.0,0.0,0.0,0.0,0.0,0.0,0.0,0.0,0.0,0.0,-5.849,-5.8559,0.0,0.0,0.0,0.0,0.0,0.0,0.0,0.0,0.0,0.0,0.0,0.0,0.0,0.0,0.0,0.0,0.0,0.0,0.0,0.0,0.0,0.0,0.0,0.0,0.0,0.0,0.0,0.0,0.0,0.0,0.0,0.0,0.0,0.0,0.0,0.0,0.0,0.0,0.0,0.0,-4.9781,-4.961,-4.9757,-5.0178,-5.0582,-5.0989,-5.1413,-5.0691,-5.022,-5.0264,-5.0848,0.0,0.0,0.0,0.0,0.0,0.0,0.0,0.0,0.0,0.0,0.0,0.0,0.0,0.0,0.0,0.0,0.0,0.0,0.0,0.0,0.0,0.0,0.0,0.0,0.0,0.0,0.0,0.0,0.0,0.0,0.0,0.0,0.0,0.0,0.0,0.0,0.0,0.0,0.0,0.0,0.0,0.0,0.0,0.0,0.0,0.0,0.0,0.0,0.0,0.0,0.0,0.0,0.0,-5.8764,-5.8784,-5.9234,-5.8102,-5.7567,-5.7607,-5.7847,-5.8384,-5.9038,-5.871,0.0,0.0,0.0,0.0,0.0,0.0,0.0,0.0,0.0,0.0,0.0,0.0,0.0,0.0,0.0,0.0,0.0,0.0,0.0,0.0,0.0,0.0,-5.447,-5.3281,-5.3954,-5.466,-5.4071,0.0,0.0,0.0,0.0,0.0,0.0,0.0,0.0,0.0,0.0,0.0,-4.9522,-4.939,-4.9427,-4.9574,-5.0068,-5.033,-5.0213,-4.9813,-4.9415,-4.9029,-4.9521,-4.9951,0.0,0.0,0.0,0.0,0.0,0.0,0.0,0.0,0.0,0.0,0.0,0.0,0.0,0.0,0.0,0.0,0.0,0.0,0.0,0.0,0.0,0.0,0.0,0.0,0.0,0.0,0.0,0.0,0.0,0.0,0.0,0.0,-6.0947,-6.0957,0.0,0.0,0.0,0.0,0.0,0.0,0.0,0.0,0.0,0.0,0.0,0.0,0.0,-6.0248,-5.9838,-6.0414,-6.0221,-5.9232,-5.9785,-5.9785,-5.9159,-5.834,-5.7927,-5.7913,-5.728,0.0,-5.775,-5.7696,0.0,0.0,0.0,0.0,0.0,0.0,0.0,0.0,0.0,0.0,0.0,0.0,0.0,0.0,0.0,0.0,0.0,0.0,0.0,0.0,0.0,0.0,-5.0253,-5.0213,-5.0362,-5.0664,-5.1196,-5.3733,-5.5939,-5.5889,-5.4882,-5.4027,0.0,0.0,0.0,0.0,0.0,0.0,-4.862,-4.8489,-4.8746,-4.9537,-4.9003,-4.9049,-5.0104,-4.9813,-4.9415,-4.9029,-5.0033,-5.0695,-5.0718,-5.1305,0.0,0.0,0.0,0.0,0.0,0.0,0.0,0.0,0.0,0.0,0.0,0.0,0.0,0.0,0.0,0.0,0.0,0.0,0.0,0.0,0.0,0.0,0.0,0.0,0.0,0.0,0.0,0.0,0.0,-6.101,-6.1186,-5.9412,-6.0711,-6.1213,0.0,0.0,0.0,0.0,0.0,0.0,0.0,0.0,0.0,-6.0843,-6.0634,-6.0395,-6.0188,-6.0558,-6.0642,-6.0566,-6.0456,-6.0236,-5.9869,-5.9061,-5.8437,-5.796,-5.7629,-5.7604,-5.7756,-5.7529,-5.7601,-5.7753,0.0,0.0,0.0,0.0,-5.4808,-5.3985,-5.3851,-5.3609,-5.3399,-5.3856,0.0,0.0,0.0,0.0,0.0,0.0,0.0,-5.28,-5.1493,-5.0783,-5.0145,-4.9131,-4.9365,-4.9906,-5.0206,-5.1176,-5.2271,-5.3164,-5.3082,-5.2677,-5.2001,-5.1779,0.0,0.0,0.0,-4.9228,-4.8416,-4.7955,-4.7959,-4.8506,-4.8073,-4.8224,-4.9428,-4.8956,-4.8802,-4.9297,-4.9365,-4.9627,-5.0105,-5.0954,-5.2447,0.0,0.0,0.0,0.0,0.0,0.0,0.0,0.0,0.0,0.0,0.0,0.0,0.0,0.0,0.0,0.0,0.0,0.0,0.0,0.0,0.0,0.0,0.0,0.0,0.0,0.0,0.0,0.0,-6.1203,-6.1258,-5.8313,-6.0547,-6.1394,0.0,0.0,0.0,0.0,0.0,0.0,-6.0435,-6.0543,-6.0803,-6.1211,-6.0913,-6.0823,-6.1006,-6.1006,-6.13,-6.1887,-6.13,-6.0933,-6.0676,-5.9869,-5.9098,-5.829,-5.8107,-5.7997,-5.7946,-5.7444,-5.7279,-5.7249,-5.6538,-5.554,-5.4473,-5.4336,-5.3534,-5.2456,-5.2561,-5.23,-5.1964,-5.2326,-5.2639,-5.2827,-5.2494,0.0,0.0,0.0,0.0,-5.1668,-5.0657,-5.0326,-4.9944,-4.871,-4.8994,-4.9634,-4.983,-4.9401,-4.9366,-5.0676,-5.125,-5.1227,-5.0327,-5.0328,0.0,0.0,0.0,-4.8546,-4.8105,-4.7669,-4.7478,-4.7648,-4.7436,-4.7666,-4.8608,-4.812,-4.8247,-4.9224,-4.8857,-4.9003,-4.9867,-5.0749,-5.2103,-5.3832,0.0,0.0,0.0,0.0,0.0,0.0,0.0,0.0,0.0,0.0,0.0,0.0,0.0,0.0,0.0,0.0,0.0,0.0,0.0,0.0,0.0,0.0,0.0,0.0,0.0,0.0,0.0,0.0,0.0,-5.8665,-6.1582,0.0,0.0,0.0,0.0,-6.0583,-6.0167,-5.9942,-5.9938,-5.9553,-6.0026,-6.1532,-6.1545,-6.1924,-6.267,-6.2695,-6.267,-6.2768,-6.267,-6.2291,-6.152,-6.0713,-5.9905,-5.9074,-5.8327,-5.7997,-5.7923,-5.7138,-5.6808,-5.6683,-5.5125,-5.4485,-5.4228,-5.27,-5.2112,-5.1908,-5.1169,-5.0912,-5.1006,-5.1761,-5.2322,-5.2697,-5.3269,-5.2494,0.0,0.0,-5.1391,-4.9559,-5.0223,-4.9101,-4.7935,-4.8554,-4.8705,-4.8941,-4.9564,-4.9336,-4.9133,-4.9608,-4.9042,-4.8491,-4.8456,0.0,-4.7947,-4.7875,-4.787,-4.7726,-4.7407,-4.7585,-4.7648,-4.7385,-4.732,-4.745,-4.7845,-4.7793,-4.7972,-4.836,-4.9077,-4.9904,-5.0729,-5.0785,-5.178,-5.3777,-5.3944,0.0,0.0,0.0,0.0,0.0,0.0,0.0,0.0,0.0,0.0,0.0,0.0,0.0,0.0,0.0,0.0,0.0,0.0,0.0,0.0,0.0,0.0,0.0,0.0,0.0,0.0,0.0,0.0,-5.9946,-6.2261,0.0,-6.0589,-6.0678,-6.0781,-6.0499,-6.0802,-6.0983,-6.0983,-6.1323,-6.1777,-6.2365,-6.2365,-6.2511,-6.278,-6.278,-6.278,-6.278,-6.278,-6.2108,-6.0823,-6.0529,-5.9685,-5.84,-5.8107,-5.7997,-5.796,-5.7703,-5.6969,-5.5978,-5.539,-5.4216,-5.2858,-5.2784,-5.2454,-5.2013,-5.227,-5.2013,-5.1463,-5.0712,-5.0169,-4.9971,-5.0741,-5.0652,-5.0432,-5.1414,-5.0858,-4.9913,-4.9589,-4.8888,-4.8148,-4.7619,-4.7476,-4.7595,-4.8057,-4.8041,-4.8061,-4.8649,-4.8334,-4.7749,-4.7,-4.7217,-4.7298,-4.6771,-4.7153,-4.745,-4.732,-4.7232,-4.712,-4.6985,-4.6754,-4.6932,-4.7859,-4.7673,-4.7823,-4.8701,-4.8739,-4.915,-4.9994,-5.0031,-5.0865,-5.2592,-5.2786,-5.3721,0.0,0.0,0.0,0.0,0.0,0.0,0.0,0.0,0.0,0.0,0.0,0.0,0.0,0.0,0.0,0.0,0.0,0.0,0.0,0.0,0.0,0.0,0.0,0.0,0.0,0.0,-6.2466,-6.0283,-6.2658,-6.3539,-6.1043,-6.1557,-6.2071,-6.2071,-6.2291,-6.2548,-6.2842,-6.2842,-6.2952,-6.3246,-6.2952,-6.278,-6.278,-6.278,-6.278,-6.278,-6.2548,-6.1851,-6.0786,-6.0236,-5.9428,-5.84,-5.8107,-5.7997,-5.796,-5.7703,-5.6822,-5.5596,-5.5596,-5.462,-5.3188,-5.3188,-5.2858,-5.2454,-5.2711,-5.2454,-5.1756,-5.0435,-4.9407,-4.8893,-4.9738,-4.9591,-4.937,-5.0508,-5.024,-4.9565,-4.898,-4.8533,-4.8003,-4.7036,-4.6778,-4.6893,-4.7232,-4.7407,-4.7563,-4.7875,-4.7955,-4.7749,-4.698,-4.7111,-4.7183,-4.675,-4.7025,-4.7276,-4.7165,-4.7244,-4.7155,-4.6649,-4.6597,-4.6878,-4.7536,-4.7407,-4.7688,-4.8535,-4.8424,-4.8673,-4.9574,-4.961,-5.0381,-5.1977,-5.2336,-5.3108,-5.4309,0.0,0.0,0.0,0.0,0.0,0.0,0.0,0.0,0.0,0.0,0.0,0.0,0.0,0.0,0.0,0.0,0.0,0.0,0.0,0.0,0.0,0.0,0.0,-5.9976,-6.162,-6.1973,-5.9661,-6.289,-6.4383,-6.1998,-6.3906,-6.5301,-6.5301,-6.4567,-6.4457,-6.5228,-6.3723,-6.3209,-6.4016,-6.3246,-6.278,-6.278,-6.278,-6.2805,-6.2743,-6.1961,-6.1557,-6.1484,-5.9905,-5.9184,-5.9111,-5.8327,-5.7997,-5.7923,-5.7152,-5.6345,-5.5633,-5.5596,-5.5559,-5.5317,-5.3775,-5.3203,-5.3115,-5.2307,-5.1977,-5.183,-5.1059,-5.0251,-4.9721,-5.0472,-4.9591,-4.8636,-5.0251,-4.9554,-4.8334,-4.8439,-4.7881,-4.7254,-4.6893,-4.6801,-4.6893,-4.7254,-4.7563,-4.771,-4.7371,-4.787,-4.8287,-4.8267,-4.771,-4.7392,-4.7731,-4.75,0.0,-4.6847,-4.7706,-4.7816,-4.6407,-4.6931,-4.722,-4.6825,-4.712,-4.7414,-4.7752,-4.8075,-4.8654,-4.9517,-4.9574,-5.0288,-5.1903,-5.2511,-5.2739,-5.263,0.0,0.0,0.0,0.0,0.0,0.0,0.0,0.0,0.0,0.0,0.0,0.0,0.0,0.0,0.0,0.0,0.0,0.0,0.0,0.0,0.0,0.0,-6.0595,-6.1512,-6.2862,-6.3723,-6.3649,-6.5118,-6.5888,-6.5228,-6.5228,-6.5301,-6.5301,-6.5118,-6.4824,-6.4457,-6.398,-6.3576,-6.3172,-6.289,-6.278,-6.278,-6.278,-6.2511,-6.1924,-6.1704,-6.1006,-5.9832,-5.9404,-5.8854,-5.8327,-5.8107,-5.7997,-5.7923,-5.7152,-5.6675,-5.6345,-5.517,-5.4363,-5.3812,-5.3371,-5.3203,-5.3167,-5.2968,-5.2123,-5.1096,-5.0875,-4.9848,-4.871,-4.893,-4.8673,-4.8416,-4.8857,-4.8673,-4.8246,-4.8063,-4.785,-4.7585,-4.7254,-4.7165,-4.7276,-4.7585,-4.7731,-4.7834,-4.8012,-4.819,-4.8151,-4.7648,-4.7414,-4.7341,-4.7414,-4.7563,-4.7542,-4.7209,-4.7433,-4.7447,-4.703,-4.6955,-4.6932,-4.6813,-4.712,-4.7254,-4.7062,-4.7627,-4.8045,-4.8263,-4.8519,-4.9032,-4.9794,-5.0337,-5.0832,0.0,0.0,0.0,0.0,0.0,0.0,0.0,0.0,0.0,0.0,0.0,0.0,0.0,0.0,0.0,0.0,0.0,0.0,0.0,0.0,0.0,0.0,-5.9876,-6.1789,-6.2919,-6.3947,-6.4787,-6.5264,-6.5999,-6.6512,-6.6512,-6.6366,-6.6329,-6.6329,-6.5705,-6.5228,-6.5118,-6.4127,-6.3503,-6.3356,-6.2989,-6.278,-6.278,-6.278,-6.2585,-6.2108,-6.141,-6.0603,-5.9661,-5.9024,-5.8437,-5.7997,-5.7997,-5.7813,-5.7446,-5.6638,-5.6088,-5.5721,0.0,0.0,0.0,0.0,-5.3203,-5.3093,-5.2454,-5.1573,-5.0692,-4.9994,-4.9114,-4.8306,-4.8306,-4.8306,-4.8306,-4.8306,-4.8306,-4.8229,-4.7895,-4.7793,-4.7752,-4.7542,-4.75,-4.7606,-4.7935,-4.7995,-4.8055,-4.8267,-4.8306,0.0,-4.7772,-4.7585,-4.7542,-4.7689,-4.7648,-4.7521,-4.7341,-4.7761,-4.7888,-4.7404,-4.7724,-4.7886,-4.7568,-4.7547,0.0,0.0,0.0,-4.7585,-4.7585,-4.8099,0.0,0.0,0.0,-5.0246,-5.092,-5.092,0.0,0.0,-5.3235,-5.35,0.0,0.0,0.0,0.0,0.0,0.0,0.0,0.0,0.0,0.0,0.0,0.0,0.0,0.0,0.0,0.0,-6.109,-6.3282,-6.4237,-6.5044,-6.5558,-6.5448,-6.6145,-6.6623,-6.6623,-6.7283,-6.765,-6.7577,-6.6256,-6.5668,-6.6182,0.0,0.0,0.0,0.0,-6.278,-6.278,-6.278,-6.2743,-6.2658,-6.1153,-6.0346,-6.0236,-5.8694,-5.7997,-5.7997,-5.7997,-5.7593,-5.6859,-5.5978,-5.506,-5.4252,-5.4252,-5.4252,-5.4179,-5.3482,-5.313,-5.2858,-5.1426,0.0,0.0,-4.893,-4.8379,-4.8306,-4.8306,-4.8306,-4.8306,-4.8306,-4.8306,-4.8248,-4.7935,-4.7854,-4.7854,-4.7854,-4.7854,-4.7935,-4.8248,-4.8306,-4.8306,-4.8306,-4.8306,-4.8306,-4.8306,-4.8035,-4.7955,-4.8267,-4.7902,-4.7537,-4.7471,-4.8483,-4.8731,-4.7643,-4.8694,0.0,-4.8457,-4.8017,-4.7761,-4.7713,-4.741,-4.7276,-4.732,-4.7945,-4.8481,-4.8839,-4.9501,-5.0105,-5.0627,-5.0627,-5.1435,-5.2937,-5.2309,-5.2852,0.0,0.0,0.0,0.0,0.0,0.0,0.0,0.0,0.0,0.0,0.0,0.0,0.0,0.0,0.0,-5.923,-6.1967,-6.4347,-6.5815,-6.6733,-6.699,-6.6366,-6.699,-6.7467,-6.7467,-6.7614,-6.743,-6.6769,-6.6439,-6.5778,-6.464,-6.409,-6.3613,-6.3062,-6.289,-6.278,-6.278,-6.278,-6.2475,-6.1814,-6.086,0.0,-5.9404,-5.8437,-5.7997,-5.7997,-5.7997,-5.7923,-5.7666,-5.6198,-5.473,-5.3424,-5.3424,-5.3424,-5.3408,-5.324,-5.2784,-5.2197,-5.1867,-5.0932,-4.9794,-4.9463,-4.8857,-4.8306,-4.8306,-4.8306,0.0,-4.8306,-4.8306,-4.8287,-4.8229,-4.8209,-4.8209,-4.8209,-4.8209,-4.8229,-4.8287,-4.8306,-4.8306,-4.8306,-4.8306,-4.8306,-4.8306,-4.8248,-4.8229,-4.8287,-4.8795,-4.9017,-4.8726,-4.923,-4.9231,-4.8314,-4.8212,-4.7973,-4.7192,-4.7051,-4.685,-4.6572,-4.6732,-4.703,-4.7298,-4.7196,-4.7191,-4.724,-4.7071,-4.7648,-4.8977,-4.8977,-4.9785,-5.1357,-5.1809,-5.2843,0.0,0.0,0.0,0.0,0.0,0.0,0.0,0.0,0.0,0.0,0.0,-5.5313,0.0,0.0,-5.8734,-6.0341,-6.3039,-6.5284,-6.6339,-6.7173,-6.754,-6.7136,-6.7467,-6.7687,-6.7687,-6.7687,-6.7504,-6.7136,-6.6733,-6.5962,-6.4751,-6.431,-6.3686,-6.2817,-6.278,-6.278,-6.278,-6.278,-6.2401,-6.1594,-6.0786,-5.9979,-5.9148,-5.8364,-5.7997,-5.7997,-5.7997,-5.7776,-5.7299,-5.6088,-5.4876,-5.3812,-5.3812,-5.3555,-5.3203,-5.3203,-5.2711,-5.194,-5.1536,-5.0582,-4.9537,-4.9077,-4.8636,-4.8306,-4.8306,-4.8306,-4.8306,-4.8306,-4.8306,-4.8306,-4.8306,-4.8306,-4.8306,-4.8306,-4.8306,-4.8306,-4.8306,-4.8306,-4.8306,-4.8306,-4.8636,-4.893,-4.893,-4.9297,-4.9407,-4.9003,-4.8981,-4.9074,-4.9314,-4.9531,-4.955,-4.9099,-4.9245,-4.9084,-4.8332,-4.7519,-4.6822,-4.6239,-4.6374,-4.6661,-4.703,-4.6893,-4.7048,-4.7589,-4.7228,-4.7812,-4.9366,-4.9186,-4.9925,-5.147,-5.1856,-5.239,0.0,0.0,0.0,0.0,0.0,0.0,0.0,0.0,-5.6538,-5.6992,-5.6557,-5.6346,-5.715,-5.8431,-5.9916,-6.1666,-6.4049,-6.5924,-6.6643,-6.7283,-6.7687,-6.7687,-6.7687,-6.7687,-6.7687,-6.7687,-6.7614,-6.7467,-6.688,-6.6145,-6.5338,-6.453,-6.3759,-6.3062,-6.289,-6.278,-6.278,-6.278,-6.2475,-6.1814,-6.086,-6.0052,-5.9404,-5.8437,-5.7997,-5.7997,-5.7997,-5.7556,-5.6748,-5.5941,-5.5133,-5.4363,-5.4216,-5.3775,-5.3203,-5.3203,-5.2601,-5.1683,-5.1022,-5.0141,-4.9224,-4.8526,-4.8306,-4.8306,-4.8306,-4.8306,-4.8306,-4.8306,-4.8306,-4.8306,-4.8306,-4.8306,-4.8306,-4.8306,-4.8306,-4.8306,-4.8306,-4.8306,-4.8306,-4.8306,-4.9003,-4.961,-4.961,-5.0251,-5.0582,-4.9941,-4.9398,-4.9311,-4.986,-5.0037,-5.0004,-4.9706,-5.0136,-5.0066,-4.9082,-4.7889,-4.6906,-4.6249,-4.6253,-4.6447,-4.6778,-4.6847,-4.7316,-4.816,-4.79,-4.8449,-4.9873,-4.9574,-5.0162,-5.1546,-5.1546,-5.1782,-5.7927,-5.7915,-5.7866,-5.8375,-5.8235,-5.8565,0.0,0.0,-5.8666,-5.825,-5.816,-5.8096,-5.7797,-5.9299,-6.1272,-6.3291,-6.4809,-6.6134,-6.7376,-6.7614,-6.7687,-6.7687,-6.7687,-6.7687,-6.7687,-6.7687,-6.7393,-6.6696,-6.6549,-6.6145,-6.5338,-6.453,-6.4053,-6.3943,-6.3209,-6.278,-6.278,-6.278,-6.2743,-6.2658,-6.1153,-6.0346,-6.0236,-5.8694,-5.7997,-5.7997,-5.7997,-5.7556,-5.6748,-5.5941,-5.5133,-5.4326,-5.3628,-5.3277,-5.3203,-5.3203,-5.2234,-5.0912,-5.0839,-4.9774,-4.8416,-4.8343,-4.8306,-4.8306,-4.8306,-4.8306,-4.8306,-4.8306,-4.8306,-4.8306,-4.8306,-4.8306,-4.8306,-4.8306,-4.8306,-4.8306,-4.8306,-4.8306,-4.8306,-4.8306,-4.9003,-4.961,-4.961,-5.0251,-5.0765,-5.0692,-5.1181,-5.1368,-5.077,-5.1287,-5.1208,-4.9855,-4.9188,-4.824,-4.6705,-4.6425,-4.6284,-4.6214,-4.6518,-4.6731,-4.6778,-4.7098,-4.7312,-4.7405,-4.7383,-4.7792,-4.8595,-4.855,-4.8993,-4.9865,-4.9865,-5.0997,-5.8033,-5.7884,0.0,0.0,-5.8541,-5.9422,-6.0264,-6.0015,-5.9767,-6.0186,-5.9878,-5.9552,-5.9542,-6.0733,-6.2226,0.0,-6.5082,-6.6403,-6.7533,-6.7687,-6.7687,-6.7687,-6.7687,-6.7687,-6.7687,-6.7687,-6.754,-6.721,-6.7173,-6.6843,-6.6035,-6.5228,-6.4567,-6.409,-6.3246,-6.278,-6.278,-6.278,-6.2585,-6.2108,-6.097,-6.0162,-5.9685,-5.851,-5.7997,-5.7997,-5.7997,-5.7813,-5.7483,-5.7152,-5.6235,-5.506,-5.473,-5.4032,-5.3203,-5.3203,-5.2491,-5.1499,-5.1499,-5.0435,-4.904,-4.904,-4.871,-4.8306,-4.8306,-4.8306,-4.8306,-4.8306,-4.8306,-4.8306,-4.8306,-4.8306,-4.8306,-4.8306,-4.8306,-4.8306,-4.8306,-4.8306,-4.8453,-4.8893,-4.9701,-5.0435,-5.0932,-5.1646,-5.2197,-5.2197,-5.1883,-5.1595,-5.1502,-5.1585,-5.1165,-4.9829,-4.9184,-4.8352,-4.7036,-4.668,-4.6542,-4.6542,-4.6708,-4.6985,-4.7371,-4.7521,-4.7669,-4.7854,-4.7689,-4.7983,-4.8757,-4.8524,-4.8807,-4.9611,-4.9611,-5.014,-5.785,0.0,0.0,-5.8194,-5.9607,-6.089,-6.0564,-6.0868,-6.1392,-6.1997,-6.1531,-6.1054,-6.1194,-6.1954,-6.2875,-6.3705,-6.5154,-6.6457,-6.7249,-6.754,-6.7614,-6.7393,-6.7357,-6.7357,-6.7357,-6.7577,-6.7687,-6.7687,-6.7687,-6.743,-6.6843,-6.5852,-6.5044,-6.4457,-6.3392,-6.278,-6.278,-6.278,-6.2401,-6.1594,-6.0786,-5.9979,-5.9148,-5.8364,-5.7997,-5.7997,-5.7997,-5.7997,-5.796,-5.7776,-5.6859,-5.5596,-5.5354,-5.4436,-5.3203,-5.3203,-5.2711,-5.1977,-5.1977,-5.1096,-4.9904,-4.9684,-4.915,-4.86,-4.8379,-4.8306,-4.8343,-4.86,-4.8673,-4.871,-4.893,-4.882,-4.871,-4.893,-4.8636,-4.8379,-4.86,-4.8673,-4.882,-4.9407,-5.0398,-5.1316,-5.1903,-5.2674,-5.3203,-5.3203,-5.2462,-5.1936,-5.2112,-5.1725,-5.1012,-4.9959,-4.9412,-4.8731,-4.778,-4.7145,-4.6824,-4.6939,-4.6939,-4.7209,-4.7772,-4.7895,-4.8035,-4.8287,-4.8055,-4.8207,-4.8805,-4.8502,-4.8663,-4.9256,-4.9256,-4.9472,0.0,0.0,-5.9366,-6.0112,-6.1885,-6.3472,-6.3472,-6.3891,-6.4065,-6.3401,-6.3039,-6.2707,-6.2321,-6.2709,-6.3218,-6.3735,-6.5154,-6.6277,-6.6489,-6.721,-6.7393,-6.6623,-6.6549,-6.6549,0.0,-6.7247,-6.7687,-6.7687,-6.7687,-6.7687,-6.765,-6.6145,-6.5301,-6.5264,-6.3661,-6.278,-6.278,-6.278,-6.2401,-6.1594,-6.0786,-5.9979,-5.9148,-5.8364,-5.7997,-5.7997,-5.7997,-5.7997,-5.7923,-5.7152,-5.6345,-5.5522,-5.473,-5.3922,-5.3203,-5.3203,-5.2711,-5.1977,-5.1977,-5.1463,-5.0618,-4.9867,-4.9574,-4.939,-4.8563,-4.8306,-4.8489,-4.9317,-4.9574,-4.9757,-5.0508,-5.0141,-4.9757,-5.0545,-4.9481,-4.8526,-4.939,-4.9574,-4.9574,-4.961,-5.0896,-5.1977,-5.1977,-5.2674,-5.3203,-5.3203,-5.3167,-5.3002,-5.2635,-5.1897,-5.1114,-5.0368,-4.9586,-4.8913,-4.852,-4.7436,-4.6939,-4.7276,-4.7298,-4.7436,-4.7793,-4.8094,-4.8287,-4.8306,-4.8287,-4.8287,-4.8323,-4.8304,-4.8304,-4.8341,-4.8341,-4.9221,0.0,0.0,-6.0605,-6.3089,-6.3911,-6.4407,-6.5534,-6.5312,-6.4748,-6.4313,-6.3355,-6.2213,-6.1058,-6.1697,-6.2229,-6.1587,-6.3978,-6.5924,-6.6016,-6.7012,-6.7393,-6.6586,-6.6512,0.0,0.0,0.0,0.0,-6.765,-6.7687,-6.7467,-6.6916,-6.5888,-6.5081,-6.453,-6.3392,-6.278,-6.278,-6.278,-6.2658,-6.2401,-6.1043,-5.9979,-5.9148,-5.8364,-5.7997,-5.7997,-5.7997,-5.7997,-5.796,-5.7703,-5.6822,-5.5596,-5.528,-5.4363,-5.3203,-5.3203,-5.3041,-5.2821,-5.2821,-5.227,-5.1536,-5.13,-5.0839,-5.0325,-5.0068,-4.9958,-4.9921,-4.9684,-4.961,-4.9647,-4.9941,-4.9794,-4.9794,-5.0618,-5.0362,-5.0031,-5.0325,-5.0398,-5.0545,-5.1116,-5.161,-5.216,-5.2711,-5.3041,-5.3203,-5.3203,-5.2959,-5.2761,-5.2613,-5.2114,-5.1298,-5.0044,-4.986,-4.923,-4.7845,-4.7573,-4.75,-4.7627,-4.7627,-4.7772,-4.8131,-4.8248,-4.8306,-4.8306,-4.8306,-4.8306,-4.8306,-4.8306,-4.8306,-4.8306,-4.8893,-4.9463,0.0,-6.0896,-6.2767,-6.527,-6.6008,-6.6369,-6.7223,-6.6845,-6.6093,-6.5536,-6.4095,-6.2521,-6.1278,-6.1494,-6.143,-6.0072,-6.2431,-6.4494,-6.4694,-6.5437,-6.5962,-6.6072,-6.6072,-6.6072,0.0,0.0,0.0,-6.7614,-6.7687,-6.7467,-6.6953,-6.5888,-6.5081,-6.453,-6.3392,-6.278,-6.278,-6.278,-6.2511,-6.1924,-6.0603,-5.9575,-5.8767,-5.8253,-5.7997,-5.7997,-5.7997,-5.7997,-5.796,-5.7703,-5.6785,-5.5596,-5.528,-5.4363,-5.3203,-5.3203,-5.3203,-5.3203,-5.3203,-5.2858,-5.238,-5.2087,-5.1646,-5.1169,-5.0875,-5.0802,-5.0765,-5.0508,-5.0455,-5.0528,-5.0802,-5.0675,-5.0655,-5.1463,-5.1242,-5.0875,-5.1169,-5.1463,-5.172,-5.194,-5.2454,-5.2931,-5.3188,-5.3203,-5.3203,-5.3203,-5.2995,-5.2783,-5.2613,-5.2384,-5.1715,-5.0416,-5.022,-4.964,-4.8249,-4.7933,-4.7854,-4.7955,-4.7875,-4.7935,-4.8287,-4.8306,-4.8306,-4.8306,-4.8306,-4.8306,-4.8306,-4.8306,-4.8306,-4.8343,-4.9187,-4.9757,-6.1961,-6.409,-6.5669,-6.6674,-6.8085,-6.9095,-6.8565,-6.8385,-6.8024,-6.6854,-6.5085,-6.3492,0.0,0.0,-6.0937,-5.938,-6.0907,-6.2391,-6.2778,-6.2927,-6.3551,0.0,0.0,0.0,0.0,0.0,0.0,-6.7614,0.0,-6.7677,-6.7614,-6.6145,-6.5301,-6.5264,-6.3624,-6.278,-6.278,-6.278,-6.2034,-6.0456,-5.9625,-5.8841,-5.807,-5.8033,-5.7997,-5.7997,-5.7997,-5.796,-5.7886,-5.7152,-5.6345,-5.5464,-5.473,-5.3959,-5.3203,-5.3203,-5.3203,-5.3203,-5.3203,-5.3203,-5.3057,-5.2307,-5.205,-5.1903,-5.1169,-5.0912,-5.1059,-5.1793,-5.1977,-5.216,-5.2931,-5.2564,-5.2197,-5.3004,-5.2087,-5.1169,-5.1903,-5.2747,-5.3078,-5.227,-5.3371,-5.4142,-5.3314,-5.3203,-5.3203,-5.3203,-5.3203,-5.306,-5.2658,-5.2635,-5.2286,-5.1464,-5.0686,-5.0049,-4.9571,-4.849,-4.7955,-4.8287,-4.7995,-4.7955,-4.8287,-4.8306,-4.8306,-4.8306,-4.8306,-4.8306,-4.8306,-4.8306,-4.8306,-4.8343,-4.9243,-5.0068,-6.2438,-6.5051,-6.758,-6.8424,-6.9111,-6.9548,-6.94,-6.8359,-6.7114,-6.605,-6.406,-6.2115,0.0,0.0,0.0,-5.9339,-6.2169,0.0,-6.3381,-6.4605,0.0,-6.4494,0.0,-6.5301,-6.5301,-6.6035,0.0,0.0,-6.7687,-6.743,-6.6843,-6.5852,-6.5044,-6.442,-6.3356,-6.278,-6.278,-6.278,-6.2291,-6.1263,-6.0493,-5.9685,-5.8877,-5.8253,-5.7997,-5.7997,-5.7997,-5.7666,-5.7152,-5.7519,-5.6492,-5.473,-5.5133,-5.4436,-5.3203,-5.3203,-5.3203,-5.3203,-5.3203,-5.3203,-5.3167,-5.2968,-5.2894,-5.2858,-5.2674,-5.2601,-5.2527,-5.2087,-5.1977,-5.205,-5.2234,-5.216,-5.2197,-5.3004,-5.3335,-5.3371,-5.2968,-5.3995,-5.473,-5.3922,-5.4106,-5.4142,-5.3314,-5.3203,-5.3203,-5.3203,-5.3203,-5.3146,-5.306,-5.306,-5.2511,-5.1119,-5.079,-5.0078,-4.8746,-4.8339,-4.8209,-4.8287,-4.8229,-4.8229,-4.8287,-4.8306,-4.8306,-4.8306,-4.8306,-4.8306,-4.8306,-4.8306,-4.8306,-4.8343,-4.9811,-5.0618,-6.453,-6.707,-6.9508,-7.0218,-7.0383,-7.0258,-6.9812,-6.8667,-6.7179,-6.5484,-6.3514,0.0,0.0,0.0,0.0,0.0,0.0,0.0,-6.2672,-6.3339,-6.3906,0.0,-6.4494,0.0,-6.5264,-6.6035,-6.6843,0.0,-6.7687,-6.7504,-6.7026,-6.5925,-6.5081,-6.464,-6.3466,-6.278,-6.278,-6.278,-6.2218,-6.108,-6.0639,-5.9795,-5.8657,-5.8217,-5.7997,-5.7997,-5.7997,-5.774,-5.7299,-5.7042,-5.6161,-5.4913,-5.4656,-5.3995,-5.3203,-5.3203,-5.3203,-5.3203,-5.3203,-5.3203,-5.3203,-5.3203,-5.3203,-5.3203,-5.3203,-5.3203,-5.3115,-5.2637,-5.2527,-5.2601,-5.2968,-5.2784,-5.2821,-5.3995,-5.4326,-5.4363,-5.4289,-5.5244,-5.5978,-5.5537,-5.517,-5.4766,-5.4326,-5.4252,-5.4142,-5.3775,-5.3739,-5.3592,-5.324,-5.3203,-5.2601,-5.0986,-5.0802,-5.0141,-4.8453,-4.8306,-4.8306,-4.8306,-4.8306,-4.8489,-4.8857,-4.8489,-4.8489,-4.8857,-4.8489,-4.8489,-4.8857,-4.8857,-4.904,-4.9444,-5.0729,-5.1316,-6.7006,-6.9207,-7.1053,-7.1546,-7.1598,-7.1154,-6.9956,-6.8936,-6.7513,-6.4936,0.0,0.0,-5.9781,0.0,-5.9803,-5.7767,0.0,-6.1177,-6.1728,-6.1288,-6.1667,-6.3686,-6.4016,-6.442,-6.5228,-6.6035,-6.6843,-6.756,-6.7687,-6.7687,-6.7687,-6.6182,-6.5191,-6.5007,-6.3576,-6.278,-6.278,-6.283,-6.2022,-6.0419,-6.0443,-5.9599,-5.7997,-5.7997,-5.7997,-5.7997,-5.7997,-5.7923,-5.774,-5.6455,-5.5816,-5.5464,-5.4179,-5.3607,-5.3518,-5.3387,-5.3371,-5.3314,-5.3261,-5.3203,-5.3203,-5.3203,-5.3203,-5.3203,-5.3203,-5.3203,-5.3203,-5.3203,-5.3203,-5.3408,-5.4179,-5.3885,-5.3739,-5.5244,-5.5133,-5.4876,-5.5464,-5.6235,-5.6822,-5.6822,-5.6235,-5.5721,-5.5611,-5.5596,-5.5317,-5.4509,-5.4399,-5.4106,-5.3298,-5.3203,-5.2601,-5.0986,-5.0802,-5.0141,-4.8453,-4.8306,-4.8306,-4.8306,-4.8416,-4.882,-4.9574,-4.8967,-4.9003,-4.9757,-4.9003,-4.9003,-4.9757,-4.9757,-5.0105,-5.0839,-5.161,-5.1977,-6.6872,-6.8939,-7.0931,-7.1093,-7.1769,-7.1887,-7.0095,-6.8475,0.0,0.0,0.0,-5.9858,-5.955,-5.8718,0.0,-5.9992,0.0,0.0,0.0,0.0,-6.3356,0.0,0.0,0.0,0.0,0.0,0.0,0.0,-6.7515,-6.7687,-6.7687,-6.6182,-6.4677,-6.3282,-6.2952,-6.278,-6.278,-6.3002,-6.2216,-6.0419,-6.0632,-5.9785,-5.7997,-5.7997,-5.7997,-5.7997,-5.7997,-5.7629,-5.7042,-5.7409,-5.6785,-5.5647,-5.6014,-5.5757,-5.5097,-5.4436,-5.4179,-5.4106,-5.3424,-5.3203,-5.3203,-5.3203,-5.3203,-5.3203,-5.3203,-5.3203,-5.3203,-5.3203,-5.3203,-5.3408,-5.4179,-5.4289,-5.4436,-5.5354,-5.6014,-5.6235,-5.5684,-5.6235,-5.6822,-5.6822,-5.6712,-5.6381,-5.5684,-5.5596,-5.5317,-5.4509,-5.4399,-5.4106,-5.3298,-5.3203,-5.2601,-5.0986,-5.0802,-5.0141,-4.8453,-4.8306,-4.8306,-4.8306,-4.8967,-4.9463,-4.961,-5.0105,-5.0435,-5.0582,-5.0435,-5.0435,-5.0582,-5.0582,-5.0655,-5.0839,-5.161,-5.1977,-6.8716,-7.0102,-7.1591,-7.2669,-7.2546,-7.1582,-6.9509,0.0,0.0,0.0,0.0,-5.9896,-5.905,0.0,0.0,0.0,0.0,0.0,0.0,0.0,0.0,0.0,0.0,0.0,0.0,0.0,0.0,0.0,-6.6646,-6.6811,-6.6811,-6.5443,-6.409,-6.2842,-6.278,-6.278,-6.278,-6.2929,-6.212,-6.0419,-6.0943,-6.0097,-5.7997,-5.8437,-5.84,-5.7997,-5.7997,-5.7776,-5.7409,-5.7409,-5.6932,-5.6235,-5.6198,-5.5941,-5.5559,-5.517,-5.5023,-5.495,-5.4583,-5.4179,-5.3812,-5.3812,-5.3555,-5.3203,-5.3203,-5.3203,-5.3203,-5.3203,-5.3518,-5.3995,-5.4803,-5.5023,-5.5317,-5.6565,-5.7152,-5.7336,-5.6932,-5.7152,-5.7409,-5.7409,-5.7409,-5.7299,-5.6932,-5.6859,-5.6565,-5.5757,-5.528,-5.473,-5.3922,-5.3482,-5.2747,-5.1536,-5.1426,-5.0912,-4.9701,-4.9591,-4.9591,-4.9591,-4.9994,-5.0398,-5.0822,-5.0802,-5.0986,-5.1426,-5.1022,-5.1022,-5.1426,-5.1426,-5.1646,-5.205,-5.2454,-5.2637,-7.0276,-7.1308,-7.2325,-7.4096,-7.319,-7.1281,-6.8946,-6.709,0.0,0.0,0.0,-6.0127,-5.8819,0.0,0.0,0.0,0.0,0.0,0.0,0.0,0.0,0.0,0.0,0.0,0.0,0.0,0.0,0.0,-6.5347,-6.5405,-6.5469,-6.4595,-6.3686,-6.2817,-6.278,-6.283,-6.288,-6.288,-6.2071,-6.0491,-6.114,-6.0234,-5.8033,-5.8657,-5.8621,-5.7997,-5.7997,-5.7997,-5.796,-5.7336,-5.7079,-5.7005,-5.6345,-5.6088,-5.6088,-5.5904,-5.5868,-5.5794,-5.5464,-5.4913,-5.4363,-5.4216,-5.3739,-5.3203,-5.3203,-5.3314,-5.3482,-5.3482,-5.4032,-5.484,-5.5647,-5.5868,-5.6198,-5.7666,-5.7997,-5.7997,-5.7997,-5.7997,-5.7997,-5.7997,-5.7997,-5.7997,-5.7997,-5.7997,-5.774,-5.6932,-5.6271,-5.5574,-5.4766,-5.4106,-5.3482,-5.2821,-5.2307,-5.1683,-5.0875,-5.0802,-5.0802,-5.0802,-5.0949,-5.1353,-5.1977,-5.1573,-5.161,-5.2234,-5.1646,-5.1646,-5.227,-5.227,-5.2564,-5.3203,-5.3408,-5.3482,-6.9743,-7.1336,-7.2739,-7.3743,-7.323,-7.1773,-6.902,0.0,0.0,0.0,-6.0165,-5.9588,-5.9435,-5.8269,0.0,0.0,0.0,0.0,0.0,0.0,0.0,0.0,0.0,0.0,0.0,0.0,0.0,0.0,-6.378,-6.3484,-6.3819,-6.3972,-6.3686,-6.2817,-6.278,-6.2904,-6.3147,-6.3147,-6.2335,-6.0771,-6.0845,-5.9845,-5.7997,-5.807,-5.807,-5.7997,-5.7997,-5.7997,-5.7997,-5.7923,-5.7886,-5.7886,-5.7813,-5.7776,-5.7703,-5.6969,-5.6712,-5.6492,-5.5023,-5.4473,-5.4289,-5.3555,-5.324,-5.3203,-5.3203,-5.3702,-5.4289,-5.4289,-5.4876,-5.5647,-5.6492,-5.6712,-5.6932,-5.7776,-5.7997,-5.7997,-5.7997,-5.7997,-5.7997,-5.7997,-5.7997,-5.7997,-5.7997,-5.7997,-5.774,-5.6932,-5.6748,-5.6418,-5.5574,-5.5449,-5.5376,-5.5302,-5.3319,-5.1683,-5.0875,-5.0802,-5.0802,-5.0802,-5.1499,-5.1903,-5.1977,-5.2637,-5.2983,-5.3115,-5.3041,-5.3041,-5.3115,-5.3115,-5.3151,-5.3203,-5.3959,-5.4289,-7.0729,-7.2042,-7.3064,-7.4333,-7.2793,-7.0556,-6.8789,0.0,0.0,-6.1281,-6.0512,-6.0127,-5.9588,-5.855,-5.7989,0.0,0.0,0.0,0.0,0.0,0.0,0.0,0.0,0.0,0.0,0.0,0.0,-6.3691,-6.3484,-6.3166,-6.2667,-6.309,-6.3172,-6.278,-6.278,-6.283,-6.2953,-6.2953,-6.2401,-6.1285,-6.1285,-6.0367,-5.8731,-5.8731,-5.8474,-5.7997,-5.7997,-5.7997,-5.7997,-5.7997,-5.7997,-5.7997,-5.7997,-5.7997,-5.796,-5.7629,-5.7519,-5.7446,-5.6785,-5.6235,-5.5794,-5.5464,-5.506,-5.4546,-5.4069,-5.4142,-5.4509,-5.4987,-5.5684,-5.6418,-5.6712,-5.7152,-5.7593,-5.7923,-5.7997,-5.7997,-5.7997,-5.7997,-5.7997,-5.7997,-5.7997,-5.7997,-5.7997,-5.7997,-5.7886,-5.7556,-5.7116,-5.6675,-5.6345,-5.5904,-5.5596,-5.5596,-5.473,-5.4032,-5.3702,-5.3261,-5.3151,-5.3665,-5.3078,-5.2931,-5.3408,-5.3298,-5.3203,-5.3203,-5.3203,-5.3203,-5.3203,-5.3203,-5.3203,-5.3203,-5.4032,-5.4399,-7.0778,-7.2411,-7.3813,-7.4847,-7.2581,-6.9857,0.0,0.0,0.0,-6.1166,-6.0781,-6.0512,-5.9665,-5.8858,-5.8204,0.0,0.0,0.0,0.0,0.0,0.0,0.0,0.0,0.0,0.0,0.0,0.0,-6.3003,-6.3085,-6.2857,-6.2275,-6.2603,-6.278,-6.278,-6.278,-6.283,-6.2904,-6.283,-6.2426,-6.1715,-6.1422,-6.0529,-5.9184,-5.8927,-5.8547,-5.7997,-5.7997,-5.7997,-5.7997,-5.7997,-5.7997,-5.7997,-5.7997,-5.7997,-5.7997,-5.7997,-5.7997,-5.796,-5.774,-5.7262,-5.6748,-5.6528,-5.6051,-5.5559,-5.5207,-5.5097,-5.5244,-5.5794,-5.6528,-5.7152,-5.7152,-5.7593,-5.7997,-5.7997,-5.7997,-5.7997,-5.7997,-5.7997,-5.7997,-5.7997,-5.7997,-5.7997,-5.7997,-5.7997,-5.7997,-5.7997,-5.7519,-5.7152,-5.7152,-5.6638,-5.6308,-5.6308,-5.6308,-5.6147,-5.5647,-5.506,-5.4987,-5.5537,-5.4546,-5.4179,-5.473,-5.3995,-5.3555,-5.3555,-5.3314,-5.3203,-5.3203,-5.3445,-5.3555,-5.3592,-5.462,-5.5244,-6.9304,-7.2281,-7.5095,-7.5095,-7.2779,-7.0118,0.0,0.0,0.0,0.0,-6.0781,-6.0512,-5.9665,-5.8858,-5.8011,-5.7137,0.0,0.0,0.0,0.0,0.0,0.0,0.0,0.0,0.0,0.0,0.0,-6.2407,-6.2168,0.0,-6.2755,-6.278,-6.278,-6.278,-6.278,-6.2929,-6.3171,-6.2929,-6.2524,-6.1976,-6.0906,-6.0015,-5.9148,-5.84,-5.7997,-5.7997,-5.7997,-5.7997,-5.7997,-5.7997,-5.7997,-5.7997,-5.7997,-5.7997,-5.7997,-5.7997,-5.7997,-5.7886,-5.7079,-5.6822,-5.6675,-5.5868,-5.5633,-5.5757,-5.6528,-5.6785,-5.6785,-5.6785,-5.7373,-5.7997,-5.7997,-5.7997,-5.7997,-5.7997,-5.7997,-5.7997,-5.7997,-5.7997,-5.7997,-5.7997,-5.7997,-5.7997,-5.7997,-5.7997,-5.7997,-5.7997,-5.7997,-5.7997,-5.7997,-5.796,-5.796,-5.796,-5.796,-5.7336,-5.5743,-5.5574,-5.5574,-5.5596,-5.5596,-5.5596,-5.5574,-5.4803,-5.4399,-5.4399,-5.3628,-5.3203,-5.3203,-5.3995,-5.4399,-5.4436,-5.6051,-5.7189,-6.7196,-6.8756,-6.9939,-7.0107,-6.8142,-6.6083,-6.5833,0.0,0.0,0.0,-6.0781,-6.0512,-5.9665,-5.8858,-5.8204,-5.7934,0.0,0.0,0.0,0.0,0.0,0.0,0.0,0.0,0.0,0.0,-6.2024,-6.2105,-6.2212,-6.2344,-6.25,-6.2705,-6.278,-6.278,-6.278,-6.283,-6.2929,-6.283,-6.272,-6.2561,-6.1643,-6.108,-6.0786,-5.9465,-5.8841,-5.8804,-5.8253,-5.7997,-5.7997,-5.7997,-5.7997,-5.802,-5.8142,-5.8209,-5.8231,-5.8422,-5.8486,-5.8449,-5.819,-5.8116,-5.8079,-5.7783,-5.7709,-5.7783,-5.8042,-5.7471,-5.6932,-5.7483,-5.7813,-5.7997,-5.7997,-5.7997,-5.7997,-5.7997,-5.7997,-5.7997,-5.7997,-5.8437,-5.8657,-5.8107,-5.8877,-5.9281,-5.818,-5.8474,-5.8621,-5.807,-5.7997,-5.7997,-5.7997,-5.7997,-5.7997,-5.7997,-5.7997,-5.7776,-5.7262,-5.6748,-5.6638,-5.7189,-5.6198,-5.5831,-5.6418,-5.5647,-5.5207,-5.5207,-5.4436,-5.4289,-5.484,-5.4546,-5.4987,-5.6051,-5.6565,-5.7226,0.0,-6.6766,-6.7859,-6.7883,-6.6097,0.0,0.0,0.0,0.0,0.0,0.0,0.0,0.0,0.0,0.0,0.0,0.0,0.0,0.0,0.0,0.0,0.0,0.0,0.0,0.0,-6.1831,-6.2105,-6.1996,-6.2238,-6.2423,-6.2526,-6.2705,-6.278,-6.278,-6.278,-6.278,-6.278,-6.278,-6.278,-6.278,-6.1998,-6.1594,-6.1557,-6.0272,-5.9478,-5.9148,-5.8694,-5.829,0.0,-5.7997,-5.8042,-5.8119,-5.8253,-5.8363,-5.8471,-5.8635,-5.8698,-5.8698,-5.8698,-5.8698,-5.8698,-5.8698,-5.8635,-5.8572,-5.8572,-5.7987,-5.7522,-5.824,-5.8217,-5.807,-5.8364,-5.8217,-5.807,-5.84,-5.8437,-5.8547,-5.8841,-5.9318,-5.9501,-5.8988,-5.9722,-6.0089,-5.9061,-5.9318,-5.9501,-5.8988,-5.8914,-5.8804,-5.851,-5.8437,-5.8327,-5.8033,-5.7997,-5.7997,-5.7997,-5.7556,-5.7483,-5.796,-5.7042,-5.6712,-5.7226,-5.6492,-5.6051,-5.6051,-5.5244,-5.5097,-5.5596,-5.539,-5.5978,-5.7262,-5.7262,-5.7519,0.0,0.0,0.0,0.0,0.0,0.0,0.0,0.0,0.0,0.0,0.0,0.0,0.0,0.0,0.0,0.0,0.0,0.0,0.0,0.0,0.0,0.0,0.0,0.0,0.0,-6.1313,-6.2311,-6.1996,-6.2238,-6.25,-6.278,-6.278,-6.278,-6.278,-6.278,-6.278,-6.278,-6.278,-6.278,-6.278,-6.2034,-6.1704,-6.1667,-6.0786,-6.0015,-5.9258,-5.9171,-5.8717,-5.802,-5.8079,-5.8252,-5.8415,-5.8511,-5.8677,-5.8904,-5.8925,-5.8888,-5.8851,-5.8851,-5.8777,-5.8739,-5.8814,-5.8667,-5.8437,-5.8415,-5.8356,-5.8415,-5.9034,-5.8657,-5.8253,-5.9074,-5.8731,-5.8364,-5.9134,-5.9294,-5.9478,-6.0236,-6.0456,-6.0456,-6.0419,-6.0493,-6.0529,-6.0419,-6.0456,-6.0456,-6.0419,-6.0419,-6.0126,-5.9368,-5.9221,-5.8891,-5.818,-5.8033,-5.7997,-5.7997,-5.7997,-5.7997,-5.7997,-5.7997,-5.7997,-5.7997,-5.7299,-5.6895,-5.6895,-5.6161,-5.5743,-5.5684,-5.6492,-5.7262,-5.7997,-5.802,-5.802,0.0,0.0,0.0,0.0,0.0,0.0,0.0,0.0,0.0,0.0,0.0,0.0,0.0,0.0,0.0,0.0,0.0,0.0,0.0,0.0,0.0,0.0,0.0,0.0,0.0,-6.1661,-6.274,-6.2069,-6.2238,-6.25,-6.278,-6.278,-6.278,-6.278,-6.278,-6.278,-6.278,-6.278,-6.278,-6.278,-6.2622,-6.2511,-6.2475,-6.1043,-6.0309,-6.0052,-5.8989,-5.8415,-5.829,-5.9116,-5.9483,-5.9621,-6.0422,-6.0787,-6.0849,-6.101,-6.0695,-6.0151,-6.0151,-5.9701,-5.9252,-5.9926,-5.9976,-5.9715,-5.9568,-5.8821,-5.8212,-5.8988,-5.9038,-5.9074,-5.9905,-5.9979,-5.9869,-6.0089,-6.0126,-6.0162,-6.0382,-6.0896,-6.1153,-6.0529,-6.141,-6.1851,-6.0603,-6.0896,-6.1117,-6.0493,-6.0419,-6.0346,-6.0162,-5.9588,-5.9111,-5.8927,-5.8364,-5.7997,-5.7997,-5.7997,-5.7997,-5.7997,-5.7997,-5.7997,-5.7997,-5.7813,-5.7703,-5.7703,-5.7519,-5.7116,-5.6528,-5.7336,-5.7813,-5.7997,-5.8142,-5.8142,0.0,0.0,0.0,0.0,0.0,0.0,0.0,0.0,0.0,0.0,0.0,0.0,0.0,0.0,0.0,0.0,0.0,0.0,0.0,0.0,0.0,0.0,0.0,0.0,0.0,-6.2401,-6.2791,-6.2222,-6.2423,-6.2629,-6.278,-6.278,-6.278,-6.278,-6.278,-6.278,-6.278,-6.278,-6.278,-6.278,-6.278,-6.278,-6.2743,-6.1924,-6.13,-6.0896,-6.0157,-5.9578,-5.9306,-6.0019,-6.0358,-6.0503,-6.1239,-6.1569,-6.1669,-6.1767,-6.1506,-6.1168,-6.1168,-6.083,-6.0529,-6.1017,-6.0994,-6.0795,-6.0655,-6.0082,-5.9493,-5.9859,-6.0015,-6.0231,-6.0964,-6.0843,-6.0635,-6.0884,-6.0933,-6.1043,-6.141,-6.1851,-6.2034,-6.1594,-6.2193,-6.2523,-6.1667,-6.1851,-6.1998,-6.1594,-6.152,-6.1374,-6.1006,-6.0566,-6.0162,-5.9771,-5.9355,-5.9098,-5.9098,-5.9098,-5.8804,-5.8033,-5.7997,-5.7997,-5.7997,-5.7997,-5.7997,-5.7997,-5.7997,-5.7776,-5.7336,-5.7776,-5.7997,-5.7997,-5.8614,-5.8799,0.0,0.0,0.0,0.0,0.0,0.0,0.0,0.0,0.0,0.0,0.0,0.0,0.0,0.0,0.0,0.0,0.0,0.0,0.0,0.0,0.0,0.0,0.0,0.0,-6.3079,-6.3288,-6.3082,-6.2433,-6.2764,-6.2952,-6.278,-6.278,-6.278,-6.278,-6.278,-6.278,-6.278,-6.278,-6.278,-6.278,-6.278,-6.278,-6.278,-6.267,-6.2254,-6.1594,-6.1532,-6.1091,-6.0491,-6.0905,-6.1167,-6.1363,-6.1765,-6.2044,-6.2181,-6.2181,-6.2106,-6.1994,-6.1844,-6.1806,-6.1806,-6.1956,-6.1856,-6.1695,-6.1657,-6.1608,-6.1469,-6.1159,-6.1189,-6.144,-6.2008,-6.168,-6.1265,-6.1704,-6.1777,-6.1961,-6.2658,-6.278,-6.278,-6.278,-6.278,-6.278,-6.278,-6.278,-6.2805,-6.2855,-6.2805,-6.2548,-6.1936,-6.1692,-6.1337,-6.0676,-6.0456,-6.0419,-6.0419,-6.0419,-5.9832,-5.8437,-5.8364,-5.8327,-5.818,-5.818,-5.8143,-5.7997,-5.8107,-5.818,-5.818,-5.818,-5.8277,-5.8433,-5.9382,-5.9692,-6.0781,-6.1019,0.0,0.0,0.0,0.0,0.0,0.0,0.0,0.0,0.0,0.0,0.0,0.0,0.0,0.0,0.0,0.0,0.0,0.0,0.0,0.0,0.0,-6.3768,-6.1766,-6.4229,-6.4977,-6.2579,-6.335,-6.3576,-6.2842,-6.278,-6.278,-6.278,-6.278,-6.278,-6.278,-6.278,-6.278,-6.278,-6.278,-6.278,-6.278,-6.2108,-6.1704,-6.1581,-6.1111,-6.0872,-6.0822,-6.1958,-6.2449,-6.2529,-6.3488,-6.3889,-6.3929,-6.3929,-6.3496,-6.2782,-6.2069,-6.1806,-6.1919,-6.267,-6.2718,-6.2533,-6.2517,-6.2981,-6.3313,-6.2598,-6.2305,-6.2331,-6.2896,-6.2936,-6.2791,-6.2634,-6.2622,-6.2658,-6.2743,-6.278,-6.278,-6.278,-6.278,-6.278,-6.278,-6.278,-6.288,-6.3099,-6.2929,-6.2843,-6.2951,-6.2181,-6.1557,-6.141,-6.0823,-6.0419,-6.0419,-6.0419,-6.0309,-6.0052,-6.0015,-5.9722,-5.9038,-5.9001,-5.8694,-5.7997,-5.8694,-5.9001,-5.9001,-5.9001,-5.9485,-6.0379,-6.0737,-6.0752,-6.0781,-6.0724,-6.0742,0.0,0.0,0.0,0.0,0.0,0.0,0.0,0.0,0.0,0.0,0.0,0.0,0.0,0.0,0.0,0.0,0.0,0.0,0.0,0.0,-6.2682,-6.2739,-6.383,-6.4002,-6.2713,-6.3097,-6.3209,-6.2817,-6.278,-6.278,-6.278,-6.278,-6.278,-6.278,-6.278,-6.278,-6.278,-6.278,-6.278,-6.2805,-6.2438,-6.2254,-6.2218,-6.2153,-6.21,-6.2147,-6.3013,-6.3355,-6.3414,-6.4053,-6.4284,-6.4284,-6.4284,-6.4059,-6.3683,-6.327,-6.3158,-6.3195,-6.3608,-6.3661,-6.358,-6.3542,-6.3804,-6.4029,-6.3655,-6.3518,-6.3467,-6.3543,-6.3587,-6.3542,-6.3265,-6.3099,-6.3002,-6.3002,-6.2904,-6.278,-6.278,-6.278,-6.278,-6.278,-6.278,-6.288,-6.3147,-6.3075,-6.3099,-6.3396,-6.2838,-6.245,-6.245,-6.1998,-6.1704,-6.1704,-6.1704,-6.1337,-6.0456,-6.0419,-6.0236,-5.9869,-5.9869,-5.9685,-5.9318,-5.9685,-5.9869,-5.9869,-6.001,-6.031,-6.0817,-6.158,-6.1781,-6.0781,-6.0571,-6.0484,0.0,0.0,0.0,0.0,0.0,0.0,0.0,0.0,0.0,0.0,0.0,0.0,0.0,0.0,0.0,0.0,0.0,0.0,-6.1924,-6.163,-6.1998,-6.3906,-6.3686,-6.322,-6.2817,-6.2989,-6.3025,-6.278,-6.278,-6.278,-6.278,-6.278,-6.278,-6.278,-6.278,-6.278,-6.278,-6.278,-6.278,-6.278,-6.278,-6.278,-6.2805,-6.3075,-6.3194,-6.3218,-6.372,-6.3878,-6.3958,-6.4203,-6.4284,-6.4284,-6.4284,-6.4284,-6.4284,-6.4284,-6.4284,-6.4284,-6.4284,-6.4284,-6.4284,-6.4284,-6.4284,-6.4284,-6.4284,-6.4284,-6.4244,-6.3979,-6.3878,-6.3814,-6.3579,-6.3349,-6.3171,-6.3099,-6.3113,-6.3062,-6.2842,-6.3135,-6.3319,-6.321,-6.3345,-6.3518,-6.3645,-6.3608,-6.3558,-6.3616,-6.3373,-6.3208,-6.3099,-6.2904,-6.278,-6.278,-6.278,-6.2291,-6.1043,-6.0786,-6.0676,-6.0676,-6.0676,-6.0603,-6.0419,-6.0603,-6.0676,-6.0676,-6.0867,-6.114,-6.1476,-6.2405,-6.268,-6.0781,-6.1017,-6.1095,-6.0565,-5.9429,0.0,-6.1145,-6.0521,0.0,0.0,0.0,0.0,0.0,0.0,0.0,0.0,0.0,0.0,0.0,0.0,-6.2842,-6.3796,-6.387,-6.3906,-6.4053,-6.4714,-6.4494,-6.289,-6.3539,-6.3649,-6.2842,-6.278,-6.278,-6.278,-6.278,-6.278,-6.278,-6.278,-6.278,-6.278,-6.278,-6.278,-6.278,-6.278,-6.278,-6.2805,-6.3075,-6.3194,-6.3218,-6.372,-6.3878,-6.3958,-6.4203,-6.4284,-6.4284,-6.4284,-6.4284,-6.4284,-6.4284,-6.4284,-6.4284,-6.4284,-6.4284,-6.4284,-6.4284,-6.4284,-6.4284,-6.4284,-6.4284,-6.4244,-6.3979,-6.3878,-6.3771,-6.3336,-6.3194,-6.3123,-6.288,-6.3429,-6.3759,-6.2989,-6.4053,-6.4938,-6.4402,-6.4943,-6.5371,-6.5113,-6.4853,-6.4419,-6.3713,-6.3373,-6.3099,-6.2855,-6.2805,-6.278,-6.278,-6.278,-6.2743,-6.2633,-6.1924,-6.152,-6.152,-6.152,-6.1153,-6.0419,-6.1117,-6.152,-6.152,-6.1545,-6.2177,-6.3371,-6.3262,-6.3262,-6.0781,-6.0814,-6.08,-6.0562,0.0,0.0,0.0,0.0,0.0,0.0,0.0,0.0,0.0,0.0,0.0,0.0,0.0,0.0,0.0,-6.278,-6.289,-6.3246,-6.3282,-6.3282,-6.3282,-6.3576,-6.3477,-6.2853,-6.3099,-6.3172,-6.2817,-6.278,-6.278,-6.278,-6.278,-6.278,-6.278,-6.278,-6.278,-6.278,-6.278,-6.278,-6.278,-6.278,-6.278,-6.2805,-6.3279,-6.3442,-6.3488,-6.3937,-6.4125,-6.4145,-6.4264,-6.4284,-6.4284,-6.4284,-6.4284,-6.4284,-6.4284,-6.4284,-6.4284,-6.4284,-6.4284,-6.4284,-6.4284,-6.4284,-6.4284,-6.4284,-6.4284,-6.4284,-6.4203,-6.4125,-6.4063,-6.3742,-6.3913,-6.4136,-6.3836,-6.4338,-6.4751,-6.442,-6.4952,-6.5397,-6.5164,-6.5557,-6.5882,-6.5926,-6.5285,-6.4748,-6.4621,-6.3785,-6.3147,-6.3051,-6.288,-6.278,-6.278,-6.278,-6.278,-6.278,-6.2511,-6.2365,-6.2365,-6.2365,-6.2218,-6.1924,-6.2181,-6.2365,-6.2365,-6.2536,-6.2852,-6.3373,-6.3542,-6.3542,-6.071,-6.0552,-6.043,0.0,0.0,0.0,0.0,0.0,0.0,0.0,0.0,0.0,0.0,0.0,0.0,0.0,0.0,0.0,-6.278,-6.278,-6.278,-6.278,-6.278,-6.278,-6.278,-6.278,-6.278,-6.278,-6.278,-6.278,-6.278,-6.278,-6.2952,-6.3209,-6.2952,-6.2952,-6.3209,-6.2952,-6.278,-6.278,-6.278,-6.278,-6.278,-6.278,-6.278,-6.283,-6.3373,-6.3602,-6.3624,-6.41,-6.4284,-6.4284,-6.4284,-6.4284,-6.4284,-6.4284,-6.4284,-6.4284,-6.4284,-6.4284,-6.4284,-6.4284,-6.4284,-6.4284,-6.4284,-6.4284,-6.4284,-6.4284,-6.4472,-6.4639,-6.4578,-6.4431,-6.4299,-6.4209,-6.4495,-6.4772,-6.4697,-6.5209,-6.5621,-6.5441,-6.595,-6.6347,-6.6258,-6.6597,-6.6895,-6.6918,-6.6217,-6.562,-6.5486,-6.4564,-6.3922,-6.3886,-6.3713,-6.3503,-6.3246,-6.3209,-6.3099,-6.2817,-6.278,-6.278,-6.278,-6.278,-6.278,-6.278,-6.278,-6.278,-6.278,-6.2978,-6.3099,-6.3231,-6.3414,-6.3451,-6.0456,-6.0255,0.0,0.0,0.0,0.0,0.0,0.0,0.0,0.0,0.0,0.0,0.0,0.0,0.0,0.0,-6.2291,-6.278,-6.278,-6.278,-6.278,-6.278,-6.278,-6.278,-6.278,-6.278,-6.278,-6.278,-6.278,-6.278,-6.278,-6.278,-6.3209,-6.4053,-6.3282,-6.3246,-6.409,-6.3246,-6.278,-6.278,-6.278,-6.278,-6.278,-6.278,-6.278,-6.283,-6.3373,-6.3602,-6.3624,-6.41,-6.4284,-6.4284,-6.4284,-6.4284,-6.4284,-6.4284,-6.4284,-6.4284,-6.4284,-6.4284,-6.4284,-6.4284,-6.4284,-6.4284,-6.4284,-6.4284,-6.4284,-6.4284,-6.4885,-6.5424,-6.5191,-6.472,-6.4408,-6.4756,-6.4805,-6.4911,-6.522,-6.5962,-6.6334,-6.5841,-6.7024,-6.8012,-6.7658,-6.8271,-6.8601,-6.8071,-6.7747,-6.7224,-6.6138,-6.5766,-6.5533,-6.5327,-6.5301,-6.4971,-6.4163,-6.409,-6.3723,-6.2853,-6.2817,-6.278,-6.278,-6.278,-6.278,-6.278,-6.278,-6.278,-6.278,-6.278,-6.2929,-6.3171,-6.2929,-6.2929,-6.071,0.0,0.0,0.0,0.0,0.0,0.0,0.0,0.0,0.0,0.0,0.0,0.0,0.0,0.0,-6.1191,-6.2046,-6.278,-6.278,-6.278,-6.278,-6.278,-6.278,-6.278,-6.278,-6.278,-6.278,-6.278,-6.278,-6.278,-6.278,-6.3392,-6.3833,-6.409,-6.442,-6.442,-6.409,-6.3833,-6.3429,-6.278,-6.278,-6.278,-6.278,-6.278,-6.278,-6.283,-6.3373,-6.3602,-6.3624,-6.41,-6.4284,-6.4284,-6.4284,-6.4284,-6.4284,-6.4284,-6.4284,-6.4284,-6.4284,-6.4284,-6.4284,-6.4284,-6.4284,-6.4284,-6.4284,-6.4284,-6.4284,-6.4284,-6.4885,-6.5465,-6.5403,-6.5707,-6.594,-6.5454,-6.5949,-6.6407,-6.6176,-6.6927,-6.7587,-6.7405,-6.8061,-6.8572,-6.845,-6.8795,-6.8959,-6.8646,-6.7858,-6.6861,-6.568,-6.5419,-6.5379,-6.5301,-6.5301,-6.5191,-6.4971,-6.442,-6.4237,-6.4567,-6.4016,-6.3429,-6.2817,-6.278,-6.278,-6.278,-6.278,-6.278,-6.278,-6.278,-6.283,-6.2904,-6.3026,-6.3002,-6.1005,0.0,0.0,0.0,0.0,0.0,0.0,0.0,0.0,0.0,0.0,0.0,0.0,0.0,0.0,-6.2761,-6.3124,-6.3407,-6.3319,-6.3319,-6.3209,-6.2842,-6.278,-6.278,-6.278,-6.278,-6.278,-6.278,-6.278,-6.278,-6.278,-6.3613,-6.4237,-6.4567,-6.4751,-6.4751,-6.4567,-6.3906,-6.3319,-6.278,-6.278,-6.278,-6.278,-6.278,-6.278,-6.283,-6.3373,-6.3714,-6.391,-6.4183,-6.4284,-6.4284,-6.4284,-6.4284,-6.4284,-6.4284,-6.4284,-6.4284,-6.4284,-6.4284,-6.4284,-6.4284,-6.4284,-6.4284,-6.4284,-6.451,-6.4772,-6.4772,-6.5598,-6.6479,-6.6336,-6.7142,-6.7689,-6.663,-6.6895,-6.7341,-6.7319,-6.7788,-6.8272,-6.8334,-6.8623,-6.8855,-6.8945,-6.9094,-6.9138,-6.8968,-6.8315,-6.7526,-6.6678,-6.6489,-6.6412,-6.6412,-6.6334,-6.6109,-6.5815,-6.5338,-6.5118,-6.5301,-6.4861,-6.4398,-6.3984,-6.3553,-6.3172,-6.278,-6.278,-6.278,-6.278,-6.278,-6.278,-6.2805,-6.2953,-6.2953,0.0,0.0,0.0,0.0,0.0,0.0,0.0,0.0,0.0,0.0,0.0,0.0,0.0,-6.3647,-6.3319,-6.5299,-6.493,-6.4316,-6.4141,-6.409,-6.3759,-6.2915,-6.278,-6.278,-6.278,-6.278,-6.278,-6.278,-6.278,-6.2817,-6.289,-6.3723,-6.453,-6.5301,-6.464,-6.4604,-6.5191,-6.3686,-6.2879,-6.278,-6.278,-6.278,-6.278,-6.278,-6.2805,-6.2855,-6.3373,-6.3845,-6.4264,-6.4264,-6.4284,-6.4284,-6.4284,-6.4284,-6.4284,-6.4284,-6.4284,-6.4284,-6.4284,-6.4284,-6.4284,-6.4284,-6.4359,-6.4397,-6.4397,-6.496,-6.5636,-6.5636,-6.6783,-6.7964,-6.7703,-6.8671,-6.9391,-6.8069,-6.7771,-6.789,-6.8392,-6.8493,-6.8589,-6.8786,-6.8832,-6.8923,-6.916,-6.9181,-6.9181,-6.916,-6.8923,-6.8717,-6.8517,-6.8272,-6.8121,-6.8095,-6.7899,-6.742,-6.6659,-6.6549,-6.6219,-6.5584,-6.5474,-6.5566,-6.5805,-6.4733,-6.3785,-6.3087,-6.2903,-6.2879,-6.3,-6.2853,-6.2842,-6.289,-6.289,-6.289,0.0,0.0,0.0,0.0,0.0,0.0,0.0,0.0,0.0,0.0,0.0,0.0,0.0,-6.4951,-6.4905,-6.577,-6.5075,-6.4316,-6.4141,-6.409,-6.3759,-6.2915,-6.278,-6.278,-6.278,-6.278,-6.278,-6.278,-6.278,-6.3099,-6.3759,-6.4604,-6.5118,-6.5301,-6.5742,-6.5448,-6.4347,-6.398,-6.3466,-6.278,-6.278,-6.278,-6.278,-6.278,-6.2904,-6.3099,-6.3255,-6.3542,-6.4,-6.4,-6.4104,-6.4284,-6.4284,-6.4284,-6.4284,-6.4284,-6.4284,-6.4284,-6.4284,-6.4284,-6.4284,-6.4284,-6.4735,-6.5223,-6.5223,-6.5824,-6.65,-6.65,-6.7399,-6.8236,-6.7964,-6.8775,-6.9582,-6.8999,-6.8903,-6.8838,-6.8575,-6.8599,-6.8763,-6.8772,-6.8968,-6.9138,-6.9181,-6.9181,-6.9138,-6.8923,-6.8693,-6.8541,-6.8493,-6.8444,-6.8321,-6.8121,-6.8044,-6.7878,-6.7457,-6.6843,-6.6801,-6.7451,-6.6923,-6.6642,-6.685,-6.5238,-6.4537,-6.498,-6.3763,-6.3665,-6.4787,-6.3441,-6.3172,-6.3796,-6.3796,-6.3796,0.0,0.0,0.0,0.0,0.0,0.0,0.0,0.0,0.0,0.0,0.0,0.0,0.0,-6.4758,-6.4747,-6.532,-6.5173,-6.4758,-6.4177,-6.451,-6.4365,-6.3125,-6.2978,-6.2978,-6.2978,-6.288,-6.278,-6.278,-6.278,-6.3025,-6.3466,-6.4273,-6.4714,-6.4714,-6.5118,-6.4934,-6.409,-6.3686,-6.3246,-6.278,-6.278,-6.278,-6.278,-6.278,-6.2929,-6.3194,-6.3194,-6.3474,-6.3878,-6.3878,-6.4063,-6.4284,-6.4284,-6.4284,-6.4284,-6.4284,-6.4284,-6.4284,-6.4284,-6.4284,-6.4284,-6.4284,-6.4585,-6.4998,-6.5373,-6.6124,-6.6896,-6.7251,-6.8053,-6.8738,-6.8608,-6.9118,-6.962,-6.9268,-6.9246,-6.9166,-6.8892,-6.9237,-6.9627,-6.9627,-7.0053,-7.0383,-7.0383,-7.0383,-7.021,-6.9687,-6.9513,-6.9332,-6.8898,-6.873,-6.8575,-6.8431,-6.868,-6.8814,-6.8661,-6.8254,-6.8269,-6.8827,-6.8087,-6.7764,-6.7952,-6.6658,-6.5861,-6.5632,-6.4783,-6.4672,-6.5301,-6.442,-6.4237,-6.4677,-6.4677,-6.4677,0.0,0.0,0.0,0.0,0.0,0.0,0.0,0.0,0.0,0.0,0.0,0.0,-6.481,-6.4383,-6.4277,-6.4888,-6.5493,-6.546,-6.4326,-6.5017,-6.5077,-6.3464,-6.3255,-6.3194,-6.3194,-6.2953,-6.278,-6.278,-6.278,-6.2879,-6.3025,-6.3723,-6.409,-6.409,-6.409,-6.4016,-6.387,-6.3172,-6.278,-6.278,-6.278,-6.278,-6.278,-6.278,-6.2904,-6.3123,-6.3123,-6.3405,-6.3873,-6.3873,-6.4021,-6.4284,-6.4284,-6.4284,-6.4284,-6.4284,-6.4284,-6.4322,-6.4434,-6.451,-6.451,-6.466,-6.483,-6.5035,-6.5749,-6.6537,-6.7326,-6.8039,-6.872,-6.9268,-6.9203,-6.9457,-6.962,-6.9268,-6.9294,-6.9369,-6.9219,-6.9992,-7.0668,-7.0517,-7.1156,-7.1719,-7.1719,-7.1719,-7.1494,-7.0818,-7.0592,-7.0292,-6.9707,-6.9327,-6.9116,-6.9243,-6.9666,-6.9954,-6.9905,-6.9905,-6.9905,-6.9954,-6.9322,-6.9033,-6.9102,-6.8466,-6.7491,-6.6211,-6.5854,-6.568,-6.5705,-6.5448,-6.5375,-6.5521,-6.5521,-6.5521,0.0,0.0,0.0,0.0,0.0,0.0,0.0,0.0,0.0,0.0,0.0,0.0,-6.637,-6.5635,-6.5135,-6.5729,-6.6476,-6.6394,-6.4611,-6.5284,-6.5338,-6.3742,-6.3349,-6.3194,-6.3194,-6.2953,-6.278,-6.278,-6.278,-6.3135,-6.387,-6.4016,-6.409,-6.409,-6.409,-6.3723,-6.2989,-6.2853,-6.278,-6.278,-6.278,-6.278,-6.278,-6.278,-6.2805,-6.2855,-6.2855,-6.3147,-6.3647,-6.3647,-6.391,-6.4284,-6.4284,-6.4284,-6.4284,-6.4284,-6.4284,-6.4397,-6.511,-6.5336,-6.5448,-6.6199,-6.6913,-6.7513,-6.7626,-6.8227,-6.8881,-6.8994,-6.934,-6.9579,-6.9268,-6.9457,-6.962,-6.9268,-6.9804,-7.0104,-6.9369,-7.042,-7.1343,-7.063,-7.1156,-7.1719,-7.1719,-7.1719,-7.1681,-7.1569,-7.0968,-7.0705,-7.1306,-7.0721,-7.0421,-7.0924,-7.1027,-7.0981,-7.076,-7.0735,-7.0834,-7.1053,-7.1003,-7.0747,-7.0285,-7.0173,-6.9499,-6.8147,-6.6675,-6.6433,-6.7357,-6.5999,-6.5668,-6.6329,-6.6329,-6.6329,0.0,0.0,0.0,0.0,0.0,0.0,0.0,0.0,0.0,0.0,0.0,0.0,-6.6128,-6.5149,-6.4507,-6.4793,-6.5287,-6.5199,-6.3896,-6.4665,-6.4902,-6.375,-6.3488,-6.3442,-6.3442,-6.3026,-6.278,-6.278,-6.278,-6.2989,-6.3356,-6.3392,-6.3392,-6.3392,-6.3392,-6.3209,-6.278,-6.278,-6.278,-6.278,-6.278,-6.278,-6.278,-6.278,-6.278,-6.278,-6.278,-6.3002,-6.3396,-6.3534,-6.3802,-6.4083,-6.4244,-6.4585,-6.496,-6.496,-6.5261,-6.5769,-6.6087,-6.6237,-6.6274,-6.6671,-6.7046,-6.7401,-6.7851,-6.8264,-6.864,-6.9069,-6.931,-6.9395,-6.9225,-6.9686,-7.011,-6.996,-7.093,-7.1606,-7.0758,-7.1531,-7.2432,-7.2545,-7.2883,-7.3108,-7.3108,-7.3108,-7.2958,-7.247,-7.2057,-7.1794,-7.1719,-7.1381,-7.1261,-7.1485,-7.1935,-7.215,-7.2018,-7.1995,-7.208,-7.2197,-7.1785,-7.1418,-7.1193,-7.1156,-7.0555,-6.9199,-6.801,-6.7518,-6.7687,-6.699,-6.6843,-6.7173,-6.7614,-6.7614,0.0,0.0,0.0,0.0,0.0,0.0,0.0,0.0,0.0,0.0,0.0,0.0,-6.6161,-6.5049,-6.414,-6.3915,-6.4419,-6.4435,-6.3437,-6.4239,-6.4621,-6.3766,-6.3691,-6.3669,-6.3602,-6.3171,-6.2855,-6.2805,-6.278,-6.278,-6.278,-6.278,-6.278,-6.278,-6.278,-6.278,-6.278,-6.278,-6.278,-6.278,-6.278,-6.278,-6.278,-6.278,-6.278,-6.278,-6.278,-6.2978,-6.3326,-6.3511,-6.378,-6.4021,-6.4224,-6.466,-6.5223,-6.5411,-6.5899,-6.65,-6.6746,-6.6934,-6.7121,-6.7121,-6.7213,-6.7513,-6.8114,-6.8302,-6.8452,-6.9031,-6.9369,-6.9504,-6.9257,-6.9992,-7.0743,-7.0555,-7.1719,-7.2808,-7.2432,-7.262,-7.3123,-7.3954,-7.4104,-7.408,-7.3971,-7.4056,-7.3879,-7.3241,-7.2987,-7.277,-7.2395,-7.2132,-7.2094,-7.232,-7.2883,-7.3221,-7.3221,-7.3221,-7.3221,-7.3221,-7.2658,-7.2245,-7.2019,-7.1951,-7.1308,-7.0016,-6.9348,-6.859,-6.7687,-6.7767,-6.7878,-6.8017,-6.8421,-6.8385,0.0,0.0,0.0,0.0,0.0,0.0,0.0,0.0,0.0,0.0,0.0,0.0,-6.7372,-6.6141,-6.479,-6.4027,-6.5024,-6.5362,-6.3802,-6.4488,-6.4887,-6.399,-6.3878,-6.3808,-6.3624,-6.3349,-6.3051,-6.2805,-6.278,-6.278,-6.278,-6.278,-6.278,-6.278,-6.278,-6.278,-6.278,-6.278,-6.278,-6.278,-6.278,-6.278,-6.278,-6.278,-6.278,-6.278,-6.278,-6.3075,-6.3579,-6.3579,-6.3867,-6.4284,-6.4284,-6.4322,-6.4434,-6.5223,-6.5523,-6.5674,-6.652,-6.7288,-6.7926,-6.7926,-6.8452,-6.9069,-6.9106,-6.9144,-6.9144,-6.9181,-6.9804,-7.0255,-6.9407,-7.0383,-7.1456,-7.0668,-7.1719,-7.3108,-7.3897,-7.3446,-7.3077,-7.3677,-7.3815,-7.3703,-7.3376,-7.3628,-7.3815,-7.374,-7.3246,-7.3183,-7.3972,-7.3334,-7.3146,-7.3972,-7.4122,-7.4122,-7.4122,-7.4122,-7.4122,-7.4122,-7.4085,-7.3709,-7.2883,-7.2576,-7.1938,-7.0871,-7.0554,-6.9489,-6.7687,-6.7978,-6.832,-6.8825,-6.8091,-6.8128,0.0,0.0,0.0,0.0,0.0,0.0,0.0,0.0,0.0,0.0,0.0,0.0,-6.7674,-6.6213,-6.4745,-6.4444,-6.4533,-6.4442,-6.3861,-6.4134,-6.4252,-6.3937,-6.3878,-6.383,-6.3624,-6.3373,-6.3075,-6.2805,-6.278,-6.278,-6.278,-6.278,-6.278,-6.278,-6.278,-6.278,-6.278,-6.278,-6.278,-6.278,-6.278,-6.278,-6.278,-6.278,-6.288,-6.3051,-6.3051,-6.3147,-6.3373,-6.3534,-6.3802,-6.4063,-6.4244,-6.498,-6.5957,-6.6237,-6.6988,-6.7905,-6.8227,-6.8527,-6.879,-6.879,-6.8956,-6.9294,-6.9879,-7.0029,-7.0142,-7.0668,-7.0668,-7.0555,-7.0743,-7.1268,-7.1907,-7.2695,-7.3296,-7.3822,-7.4122,-7.3794,-7.3538,-7.374,-7.3815,-7.3765,-7.3653,-7.3851,-7.4056,-7.4056,-7.4315,-7.461,-7.4911,-7.5136,-7.5211,-7.4986,-7.5436,-7.5324,-7.431,-7.4685,-7.476,-7.4235,-7.4197,-7.3977,-7.3512,-7.3522,-7.2894,-7.1442,-7.1638,-7.0965,-6.9229,-6.8823,-6.897,-6.9669,-6.9376,-6.9376,0.0,0.0,0.0,0.0,0.0,0.0,0.0,0.0,0.0,0.0,0.0,0.0,0.0,-6.6723,-6.5238,-6.4868,-6.4368,-6.4009,-6.4009,-6.3963,-6.3878,-6.3878,-6.4,-6.3937,-6.3698,-6.3488,-6.3194,-6.2953,-6.283,-6.278,-6.278,-6.278,-6.278,-6.278,-6.278,-6.278,-6.278,-6.278,-6.283,-6.2929,-6.2929,-6.2978,-6.3051,-6.2953,-6.3075,-6.3349,-6.3255,-6.3289,-6.3451,-6.361,-6.3979,-6.4454,-6.4636,-6.5561,-6.6821,-6.7121,-6.7889,-6.8806,-6.8806,-6.8956,-6.9144,-6.8903,-6.8956,-6.9369,-7.0255,-7.048,-7.0592,-7.1156,-7.1306,-7.1306,-7.1306,-7.1996,-7.2965,-7.3957,-7.4477,-7.4659,-7.4295,-7.4056,-7.3912,-7.3815,-7.3815,-7.3865,-7.4026,-7.4075,-7.4244,-7.4768,-7.5164,-7.5511,-7.5774,-7.6262,-7.6413,-7.5849,-7.63,-7.6187,-7.5098,-7.5511,-7.5587,-7.5061,-7.5023,-7.4952,-7.4784,-7.4857,-7.4362,-7.3204,-7.3127,-7.2589,-7.1591,-7.0155,-6.9843,-7.0616,-7.0275,-7.022,0.0,0.0,0.0,0.0,0.0,0.0,0.0,0.0,0.0,0.0,0.0,0.0,0.0,0.0,-6.6406,-6.5302,-6.4686,-6.4311,-6.4311,-6.407,-6.392,-6.392,-6.4145,-6.4224,-6.392,-6.3698,-6.3488,-6.3194,-6.2953,-6.278,-6.278,-6.278,-6.278,-6.278,-6.278,-6.278,-6.278,-6.278,-6.2929,-6.3194,-6.3194,-6.3349,-6.3579,-6.3349,-6.3373,-6.3602,-6.3312,-6.3497,-6.3899,-6.3937,-6.4549,-6.5486,-6.5523,-6.6049,-6.6896,-6.7701,-6.8039,-6.8039,-6.8039,-6.8565,-6.9069,-6.8302,-6.8602,-6.9407,-7.0255,-7.0555,-7.0592,-7.0592,-7.1719,-7.2545,-7.1006,-7.2682,-7.4681,-7.4327,-7.5095,-7.5588,-7.4454,-7.4272,-7.4202,-7.3864,-7.3815,-7.3977,-7.4528,-7.4199,-7.4412,-7.5981,-7.5793,-7.5774,-7.6563,-7.6675,-7.6675,-7.6638,-7.6675,-7.6675,-7.66,-7.6675,-7.6713,-7.66,-7.6675,-7.6713,-7.6689,-7.6394,-7.6205,-7.6205,-7.4937,-7.4367,-7.4561,-7.186,-7.0924,-7.1726,-7.0652,-7.0587,-6.0781,0.0,0.0,0.0,0.0,0.0,0.0,0.0,0.0,0.0,0.0,0.0,0.0,0.0,0.0,0.0,-6.5085,-6.4595,-6.4595,-6.4521,-6.4464,-6.4464,-6.4521,-6.4483,-6.4231,-6.3814,-6.3488,0.0,-6.2953,-6.278,-6.278,-6.278,-6.278,-6.278,-6.278,-6.278,-6.278,-6.278,-6.2929,-6.3194,-6.3194,-6.3349,-6.3579,-6.3511,-6.3624,-6.383,-6.3764,-6.3894,-6.422,-6.4673,-6.4774,-6.4735,-6.5974,-6.6596,-6.6896,-6.7701,-6.8377,-6.8844,-6.8844,-6.8994,-6.9144,-6.8919,-6.9466,-7.0292,-7.1118,-7.1757,-7.2357,-7.2996,-7.3033,-7.2921,-7.3146,-7.4642,-7.5952,-7.5235,-7.5732,-7.6155,-7.5272,-7.5549,-7.5515,-7.4088,-7.4263,-7.4724,-7.4835,-7.5433,-7.5955,-7.6404,-7.689,-7.7276,-7.7502,-7.8065,-7.8177,-7.7614,-7.8065,-7.7915,-7.6713,-7.7201,-7.7276,-7.6638,-7.6638,-7.6541,-7.6369,-7.643,-7.6306,-7.5909,-7.5537,-7.5139,-7.4561,-7.2226,-7.1582,-7.2576,-7.205,-7.1945,0.0,0.0,0.0,0.0,0.0,0.0,-6.3068,-6.3818,-6.4643,0.0,0.0,0.0,0.0,0.0,0.0,0.0,-6.5612,-6.4985,-6.4865,-6.5365,-6.5482,-6.4783,-6.5098,-6.5118,-6.4521,-6.4111,-6.3727,-6.3396,-6.3099,-6.2904,-6.2805,-6.278,-6.278,-6.278,-6.278,-6.2855,-6.2953,-6.2953,-6.3147,-6.3497,-6.3497,-6.3632,-6.3888,-6.3802,-6.3786,-6.3878,-6.3878,-6.4,-6.42,-6.502,-6.5345,-6.5431,-6.6408,-6.7213,-6.7851,-6.834,-6.8806,-6.9181,-6.9181,-6.9181,-6.9181,-6.9181,-6.9804,-7.063,-7.1456,-7.2282,-7.2996,-7.3521,-7.3559,-7.3634,-7.4498,-7.5779,-7.6676,-7.6047,-7.6381,-7.6639,-7.6023,-7.6381,-7.6488,-7.5371,-7.5573,-7.5986,-7.6385,-7.663,-7.7015,-7.7563,-7.8065,-7.8403,-7.8403,-7.9116,-7.9304,-7.8478,-7.8816,-7.8703,-7.7727,-7.8102,-7.8177,-7.7689,-7.7652,-7.7578,-7.7429,-7.7578,-7.7504,-7.7188,-7.676,-7.583,-7.4438,-7.2981,-7.2435,-7.2714,-7.2582,-7.2496,0.0,0.0,0.0,0.0,0.0,0.0,-6.3032,-6.3518,-6.385,-6.4878,0.0,0.0,0.0,0.0,0.0,0.0,0.0,-6.5535,-6.5318,-6.6377,-6.6633,-6.5232,-6.5914,-6.6079,-6.4987,-6.4596,-6.4224,-6.3647,-6.34,-6.3161,-6.2805,-6.289,-6.2915,-6.278,-6.278,-6.2929,-6.3208,-6.3147,-6.3405,-6.3894,-6.3894,-6.4,-6.4224,-6.4021,-6.392,-6.3878,-6.392,-6.392,-6.4016,-6.4953,-6.5824,-6.6558,-6.6746,-6.7664,-6.8919,-6.9031,-6.9106,-6.9181,-6.9181,-6.9181,-6.9219,-6.9294,-6.9917,-7.078,-7.1606,-7.2395,-7.3071,-7.3146,-7.3784,-7.4648,-7.5483,-7.655,-7.7272,-7.6893,-7.71,-7.7316,-7.6893,-7.7115,-7.7398,-7.7441,-7.7344,-7.7511,-7.8268,-7.7808,-7.7749,-7.894,-7.9116,-7.9116,-7.9116,-7.9792,-7.9942,-7.9191,-7.9116,-7.9116,-7.9116,-7.9116,-7.9116,-7.9116,-7.9116,-7.9116,-7.9116,-7.9116,-7.9116,-7.9116,-7.8015,-7.6441,-7.4431,-7.3955,-7.3296,-7.2496,-7.2606,-7.2606,0.0,0.0,0.0,0.0,0.0,0.0,-6.1198,-6.1759,-6.2166,0.0,0.0,0.0,0.0,0.0,0.0,0.0,0.0,0.0,-6.6391,-6.6613,-6.6926,-6.7308,-6.7546,-6.7216,-6.6079,-6.5596,-6.4882,-6.3684,-6.3811,-6.359,-6.2842,-6.3466,-6.3503,-6.2817,-6.278,-6.2929,-6.3208,-6.2978,-6.3123,-6.3669,-6.3669,-6.3691,-6.3758,-6.4079,-6.4104,-6.3899,-6.4125,-6.4224,-6.4244,-6.4452,-6.4622,-6.4943,-6.6295,-6.7009,-6.7326,-6.8002,-6.864,-6.9181,-6.9181,-6.9181,-6.9294,-7.0029,-7.0818,-7.1644,-7.2432,-7.3258,-7.4085,-7.4723,-7.5511,-7.6409,-7.7523,-7.8466,-7.8942,-7.8217,-7.8798,-7.925,-7.8261,-7.8617,-7.9204,-7.9443,-7.8744,-7.8192,-7.8381,-7.8563,-7.8777,-7.9041,-7.9116,-7.9116,-7.9116,-7.9266,-7.9304,-7.9116,-7.9116,-7.9116,-7.9116,-7.9116,-7.9116,-7.9116,-7.9116,-7.9116,-7.9116,-7.9116,-7.9116,-7.9116,-7.7771,-7.6672,-7.5742,-7.4556,-7.3496,-7.2532,-7.3156,-7.312,0.0,0.0,0.0,-5.9625,0.0,0.0,0.0,-6.0974,-6.1408,0.0,0.0,0.0,0.0,0.0,0.0,0.0,0.0,0.0,0.0,0.0,-6.8457,-6.8059,-6.8507,-6.8224,-6.6659,-6.6163,-6.5462,-6.4301,-6.3726,-6.3466,-6.3466,-6.3466,-6.3246,-6.278,-6.278,-6.2929,-6.3208,-6.3051,-6.3194,-6.3602,-6.3676,-6.3714,-6.3602,-6.3937,-6.3915,-6.3587,-6.3808,-6.3953,-6.3953,-6.4042,-6.4203,-6.4397,-6.5674,-6.665,-6.7438,-6.7851,-6.8527,-6.9181,-6.9181,-6.9181,-6.9332,-7.0217,-7.1043,-7.1869,-7.2658,-7.3521,-7.4394,-7.5366,-7.6203,-7.7123,-7.8365,-7.8942,-7.9225,-7.9225,-7.9371,-7.9432,-7.9267,-7.9566,-7.9912,-8.0078,-7.9654,-7.9334,-7.9576,-7.9448,-7.9448,-7.9704,-7.9754,-7.9604,-7.9154,-7.9492,-7.9567,-7.9154,-7.9116,-7.9116,-7.9116,-7.9116,-7.9116,-7.9116,-7.9116,-7.9116,-7.9116,-7.9116,-7.9116,-7.9116,-7.8128,-7.7246,-7.6565,-7.558,-7.4404,-7.3083,-7.3083,-7.2899,0.0,0.0,0.0,0.0,0.0,-5.9418,0.0,0.0,0.0,0.0,0.0,0.0,0.0,0.0,0.0,0.0,0.0,0.0,0.0,0.0,0.0,-6.775,-6.8674,-6.8663,-6.6672,-6.603,-6.5482,-6.4935,-6.3796,-6.3444,-6.4079,-6.3576,-6.311,-6.278,-6.278,-6.2929,-6.3208,-6.3123,-6.3279,-6.3534,-6.3698,-6.3654,-6.3465,-6.372,-6.361,-6.3231,-6.3534,-6.3669,-6.3691,-6.4081,-6.4329,-6.4585,-6.5073,-6.6274,-6.7776,-6.7776,-6.8377,-6.9181,-6.9181,-6.9181,-6.9369,-7.0405,-7.1381,-7.232,-7.2958,-7.3793,-7.4756,-7.5836,-7.676,-7.772,-7.8941,-7.9247,-7.938,-8.0028,-7.9896,-7.9648,-8.0104,-8.0388,-8.0558,-8.0466,-8.0286,-8.0249,-8.0522,-8.0242,-7.9978,-8.013,-8.0355,-8.0154,-7.9229,-7.9717,-7.9867,-7.9191,-7.9116,-7.9191,-7.9341,-7.9341,-7.9341,-7.9341,-7.9341,-7.9266,-7.9116,-7.9116,-7.9091,-7.9041,-7.8528,-7.7923,-7.7236,-7.6552,-7.5345,-7.367,-7.3193,-7.2789,0.0,0.0,0.0,0.0,-5.8776,0.0,0.0,0.0,-5.9715,-6.0182,0.0,0.0,0.0,0.0,0.0,0.0,0.0,0.0,0.0,0.0,0.0,-6.6179,-6.7577,-6.7779,-6.5829,-6.4492,-6.4142,-6.5052,-6.4748,-6.4359,-6.4115,-6.4677,-6.4347,-6.2853,-6.278,-6.2929,-6.3208,-6.2953,-6.2978,-6.3255,-6.3265,-6.3147,-6.2904,-6.3419,-6.3488,-6.3218,-6.3676,-6.3894,-6.3931,-6.4912,-6.5353,-6.5298,-6.466,-6.5469,-6.6934,-6.6934,-6.7889,-6.9181,-6.9181,-6.9181,-6.9444,-7.1043,-7.262,-7.3934,-7.4009,-7.4824,-7.588,-7.6733,-7.78,-7.8941,-8.0123,-8.0407,-8.0407,-8.0522,-8.1252,-8.1678,-8.0729,-8.1499,-8.218,-8.1709,-8.0949,-8.0225,-7.9827,-8.0553,-8.0743,-7.9464,-8.0146,-8.0429,-7.9241,-7.9191,-7.9229,-7.9116,-7.9116,-7.9417,-8.0168,-8.0243,-8.0243,-8.0243,-8.0243,-7.9905,-7.9154,-7.9116,-7.8991,-7.876,-7.8682,-7.8448,-7.8053,-7.704,-7.558,-7.3707,-7.4331,-7.3854,0.0,0.0,0.0,0.0,0.0,0.0,-5.8751,0.0,-5.9065,0.0,0.0,0.0,0.0,0.0,0.0,0.0,-6.182,0.0,0.0,0.0,0.0,0.0,0.0,0.0,-6.56,-6.4832,-6.4588,-6.5174,-6.4464,-6.4081,-6.4104,-6.3943,-6.3539,-6.2817,-6.278,-6.2855,-6.2953,-6.2855,-6.2855,-6.2953,-6.3123,-6.3051,-6.2805,-6.3171,-6.3194,-6.2978,-6.3359,-6.3587,-6.3795,-6.4855,-6.5399,-6.5523,-6.5674,-6.6483,-6.7476,-6.7476,-6.8227,-6.9181,-6.9181,-6.9181,-6.9482,-7.1133,-7.2845,-7.4319,-7.4997,-7.5513,-7.6234,-7.7911,-7.8752,-7.9529,-8.1172,-8.1584,-8.1584,-8.1584,-8.1936,-8.2176,-8.1694,-8.1857,-8.2168,-8.2224,-8.1554,-8.0802,-8.016,-8.025,-8.0309,-8.0104,-8.0121,-7.9978,-7.9477,-7.9225,-7.9116,-7.9116,-7.9529,-7.998,-8.038,-8.0806,-8.1106,-8.1106,-8.0656,-8.0268,-7.9867,-7.9379,-7.9066,-7.8941,-7.8787,-7.8512,-7.8202,-7.7558,-7.653,-7.5102,-7.4955,-7.4551,-5.8841,0.0,0.0,0.0,0.0,0.0,0.0,0.0,0.0,0.0,0.0,0.0,0.0,0.0,0.0,0.0,0.0,-6.1524,0.0,0.0,0.0,0.0,0.0,0.0,0.0,-6.4714,-6.4742,-6.5041,-6.425,-6.3915,-6.4168,-6.3528,-6.3062,-6.278,-6.278,-6.278,-6.278,-6.278,-6.278,-6.2805,-6.2978,-6.2978,-6.2805,-6.2978,-6.2978,-6.2805,-6.3075,-6.3373,-6.3676,-6.5023,-6.5673,-6.5974,-6.7025,-6.7814,-6.8302,-6.8077,-6.8677,-6.9579,-6.9579,-6.9879,-7.0405,-7.1644,-7.3033,-7.4417,-7.555,-7.6121,-7.6761,-7.8746,-7.9535,-8.0136,-8.1584,-8.1977,-8.1977,-8.1977,-8.2324,-8.2593,-8.2362,-8.2587,-8.2912,-8.318,-8.2541,-8.1849,-8.1551,-8.0801,-8.0244,-8.0424,-8.0542,-8.0396,-7.997,-7.9944,-7.9878,-7.9792,-8.0355,-8.0806,-8.1031,-8.1594,-8.1932,-8.1932,-8.0956,-8.0418,-8.0418,-7.9567,-7.9116,-7.9116,-7.8838,-7.8565,-7.8349,-7.7986,-7.7371,-7.6544,-7.5646,-7.5139,0.0,0.0,0.0,-5.8217,0.0,0.0,0.0,0.0,-5.8385,0.0,0.0,0.0,0.0,0.0,0.0,0.0,0.0,0.0,0.0,0.0,0.0,0.0,0.0,0.0,0.0,-6.3372,-6.3737,-6.4643,-6.4426,-6.4291,-6.4401,-6.4168,-6.3686,-6.2817,-6.278,-6.278,-6.278,-6.278,-6.278,-6.278,-6.2805,-6.2805,-6.278,-6.2805,-6.2805,-6.2805,-6.3075,-6.3373,-6.3713,-6.562,-6.6534,-6.6934,-6.849,-6.9144,-6.9069,-6.8302,-6.9053,-7.0442,-7.0442,-7.1494,-7.2808,-7.2845,-7.3484,-7.4417,-7.555,-7.6645,-7.7799,-7.8991,-8.0131,-8.1038,-8.1131,-8.1131,-8.1131,-8.1131,-8.2362,-8.3324,-8.2477,-8.3951,-8.5359,-8.4895,-8.3959,-8.3452,-8.4155,-8.2854,-8.1232,-7.987,-8.155,-8.2454,-8.0946,-8.1498,-8.1863,-8.157,-8.1557,-8.1895,-8.2683,-8.2732,-8.2732,-8.2732,-8.1294,-8.0418,-8.0418,-7.9567,-7.9116,-7.9116,-7.8838,-7.8682,-7.8682,-7.8071,-7.7783,-7.7717,-7.6611,-7.5652,-6.0236,-6.0762,-6.1129,-5.9281,0.0,0.0,0.0,0.0,0.0,0.0,0.0,0.0,0.0,0.0,0.0,0.0,0.0,0.0,0.0,0.0,0.0,0.0,0.0,0.0,0.0,0.0,-6.4139,-6.4111,-6.4375,-6.4387,-6.3884,-6.3648,-6.3272,-6.2805,-6.278,-6.278,-6.278,-6.278,-6.278,-6.278,-6.278,-6.278,-6.278,-6.278,-6.278,-6.2805,-6.3242,-6.3808,-6.4502,-6.6057,-6.7037,-6.768,-6.8578,-6.9409,-7.0029,-6.9766,-6.9992,-7.0592,-7.1118,-7.2019,-7.2883,-7.2883,-7.3484,-7.4538,-7.6431,-7.7282,-7.8008,-7.9927,-8.0799,-8.1362,-8.2477,-8.2747,-8.2814,-8.3128,-8.3845,-8.4313,-8.3742,-8.4429,-8.5193,-8.5335,-8.4614,-8.4035,-8.4073,-8.3295,-8.2397,-8.1689,-8.1776,-8.1832,-8.1657,-8.174,-8.1746,-8.162,-8.2083,-8.2496,-8.277,-8.3322,-8.366,-8.366,-8.2608,-8.1745,-8.1219,-8.0393,-7.9604,-7.8838,-7.8734,-7.8522,-7.8099,-7.7871,-7.7703,-7.7457,-7.7078,-7.6754,-6.0896,-6.1594,-6.1924,-6.0065,-6.0419,-6.0676,-5.8841,0.0,-5.8731,0.0,0.0,0.0,0.0,0.0,0.0,0.0,0.0,0.0,0.0,-6.0781,0.0,0.0,0.0,0.0,0.0,0.0,-6.377,-6.3947,-6.4128,-6.4087,-6.3745,-6.3391,-6.3075,-6.2805,-6.278,-6.278,-6.278,-6.278,-6.278,-6.278,-6.278,-6.278,-6.278,-6.278,-6.283,-6.2953,-6.3326,-6.4025,-6.5024,-6.6191,-6.7187,-6.8055,-6.8563,-6.9492,-7.048,-7.0391,-7.0788,-7.1456,-7.232,-7.2921,-7.3371,-7.3371,-7.3801,-7.4777,-7.6936,-7.7665,-7.8195,-8.0097,-8.0862,-8.1285,-8.2054,-8.267,-8.3215,-8.3529,-8.4268,-8.4852,-8.4547,-8.4921,-8.5428,-8.5698,-8.5244,-8.4806,-8.471,-8.4041,-8.3352,-8.2834,-8.2664,-8.2624,-8.2694,-8.2761,-8.2747,-8.2484,-8.2946,-8.3284,-8.3284,-8.3772,-8.411,-8.411,-8.3021,-8.2158,-8.1632,-8.0467,-7.9863,-7.9989,-7.8942,-7.8601,-7.9076,-7.8108,-7.7487,-7.7273,-7.7273,-7.7273]},{"header":{"parameterUnit":"m.s-1","parameterCategory":1,"la1":30.6,"la2":29.2853,"lo1":-89.7004,"lo2":-87.6739,"dx":0.0162,"dy":0.0183,"nx":112,"ny":82,"refTime":"2023-02-14T18:00:00:Z","depth":0,"parameterNumber":3,"parameterNumberName":"V-component_of_WINDS"},"data":[0.0,0.0,0.0,0.0,0.0,0.0,0.0,0.0,0.0,0.0,0.0,0.0,0.0,0.0,0.0,0.0,0.0,0.0,0.0,0.0,0.0,0.0,0.0,0.0,0.0,0.0,0.0,0.0,0.0,0.0,0.0,0.0,0.0,0.0,0.0,0.0,0.0,0.0,0.0,0.0,0.0,0.0,0.0,0.0,0.0,0.0,0.0,0.0,0.0,0.0,0.0,0.0,0.0,0.0,0.0,0.0,0.0,0.0,0.0,0.0,0.0,0.0,0.0,0.0,0.0,0.0,0.0,0.0,0.0,0.0,0.0,0.0,0.0,0.0,0.0,0.0,0.0,0.0,0.0,0.0,0.0,0.0,0.0,0.0,0.0,0.0,0.0,0.0,0.0,0.0,1.3555,1.5415,1.4751,1.3953,1.3473,1.2759,1.1504,0.9432,0.0,0.0,0.0,0.0,0.0,0.0,0.0,0.0,0.0,0.0,0.0,0.0,0.0,0.0,0.0,0.0,0.0,0.0,0.0,0.0,0.0,0.0,0.0,0.0,0.0,0.0,0.0,0.0,0.0,0.0,0.0,0.0,0.0,0.0,0.0,0.0,0.0,0.0,0.0,0.0,0.0,0.0,0.0,0.0,0.0,0.0,0.0,0.0,0.0,0.0,0.0,0.0,0.0,0.0,0.0,0.0,0.0,0.0,0.0,0.0,0.0,0.0,0.0,0.0,0.0,0.0,0.0,0.0,0.0,0.0,0.0,0.0,0.0,0.0,0.0,0.0,0.0,0.0,0.0,0.0,0.0,0.0,0.0,0.0,0.0,0.0,0.0,0.0,0.0,0.0,0.0,0.0,0.0,0.0,0.0,0.0,0.0,0.0,0.0,0.0,0.0,0.0,0.0,0.0,1.4487,1.675,1.5125,1.4039,1.443,1.2809,1.1523,1.1038,0.0,0.0,0.0,0.0,0.0,0.0,0.0,0.0,0.0,0.0,0.0,0.0,0.0,0.0,0.0,0.0,0.0,0.0,0.0,0.0,0.0,0.0,0.0,0.0,0.0,0.0,0.0,0.0,0.0,0.0,0.0,0.0,0.0,0.0,0.0,0.0,0.0,0.0,0.0,0.0,0.0,0.0,0.0,0.0,0.0,0.0,0.0,0.0,0.0,0.0,0.0,0.0,0.0,0.0,0.0,0.0,0.0,0.0,0.0,0.0,0.0,0.0,0.0,0.0,0.0,0.0,0.0,0.0,0.0,0.0,0.0,0.0,0.0,0.0,0.0,0.0,0.0,0.0,0.0,0.0,0.0,0.0,0.0,0.0,0.0,0.0,0.0,0.0,0.0,0.0,0.0,0.0,0.0,0.0,0.0,0.0,0.0,0.0,0.0,0.0,0.0,0.0,0.0,1.5896,1.7399,1.8348,1.7269,1.606,1.5159,1.3768,1.244,1.1466,1.0722,0.0,0.0,0.0,0.0,0.0,0.0,0.0,0.0,0.0,0.0,0.0,0.0,0.0,0.0,0.0,0.0,0.0,0.0,0.0,0.0,0.0,0.0,0.0,0.0,0.0,0.0,0.0,0.0,0.0,0.0,0.0,0.0,0.0,0.0,0.0,0.0,0.0,0.0,0.0,0.0,0.0,0.0,0.0,0.0,0.0,0.0,0.0,0.0,0.0,0.0,0.0,0.0,0.0,0.0,0.0,0.0,0.0,0.0,0.0,0.0,0.0,0.0,0.0,0.0,0.0,0.0,0.0,0.0,0.0,0.0,0.0,0.0,0.0,0.0,0.0,0.0,0.0,0.0,0.0,0.0,0.0,0.0,0.0,0.0,0.0,0.0,0.0,0.0,0.0,0.0,0.0,0.0,0.0,0.0,0.0,0.0,0.0,0.0,0.0,0.0,0.0,0.0,1.7853,1.9753,1.9789,1.9088,1.7984,1.6488,1.4893,1.3408,1.2098,1.1469,0.0,0.0,0.0,0.0,0.0,0.0,0.0,0.0,0.0,0.0,0.0,0.0,0.0,0.0,0.0,0.0,0.0,0.0,0.0,0.0,0.0,0.0,0.0,0.0,0.0,0.0,0.0,0.0,0.0,0.0,0.0,0.0,0.0,0.0,0.0,0.0,0.0,0.0,0.0,0.0,0.0,0.0,0.0,0.0,0.0,0.0,0.0,0.0,0.0,0.0,0.0,0.0,0.0,0.0,0.0,0.0,0.0,0.0,0.0,0.0,0.0,0.0,0.0,0.0,0.0,0.0,0.0,0.0,0.0,0.0,0.0,0.0,0.0,0.0,0.0,0.0,0.0,0.0,0.0,0.0,0.0,0.0,0.0,0.0,0.0,0.0,0.0,0.0,0.0,0.0,0.0,0.0,0.0,0.0,0.0,0.0,0.0,0.0,0.0,0.0,0.0,0.0,1.7588,1.984,2.0863,1.938,1.8592,1.922,1.5913,1.3831,1.3839,1.1983,0.0,0.0,0.0,0.0,0.0,0.0,0.0,0.0,0.0,0.0,0.0,0.0,0.0,0.0,0.0,0.0,0.0,0.0,0.0,0.0,0.0,0.0,0.0,0.0,0.0,0.0,0.0,0.0,0.0,0.0,0.0,0.0,0.0,0.0,0.0,0.0,0.0,0.0,0.0,0.0,0.0,0.0,0.0,0.0,0.0,0.0,0.0,0.0,0.0,0.0,0.0,0.0,0.0,0.0,0.0,0.0,0.0,0.0,0.0,0.0,0.0,0.0,0.0,0.0,0.0,0.0,0.0,0.0,0.0,0.0,0.0,0.0,0.0,0.0,0.0,0.0,0.0,0.0,0.0,0.0,0.0,0.0,0.0,0.0,0.0,0.0,0.0,0.0,0.0,0.0,0.0,0.0,0.0,0.0,0.0,0.0,0.0,0.0,0.0,0.0,0.0,0.0,1.8267,1.9746,0.0,2.0203,1.9559,1.9069,1.7696,1.5978,1.384,0.0,0.0,0.0,0.0,0.0,0.0,0.0,0.0,0.0,0.0,0.0,0.0,0.0,0.0,0.0,0.0,0.0,0.0,0.0,0.0,0.0,0.0,0.0,0.0,0.0,0.0,0.0,0.0,0.0,0.0,0.0,0.0,0.0,0.0,0.0,0.0,0.0,0.0,0.0,0.0,0.0,0.0,0.0,0.0,0.0,0.0,0.0,0.0,0.0,0.0,0.0,0.0,0.0,0.0,0.0,0.0,0.0,0.0,0.0,0.0,0.0,0.0,0.0,0.0,0.0,0.0,0.0,0.0,0.0,0.0,0.0,0.0,0.0,0.0,0.0,0.0,0.0,0.0,0.0,0.0,0.0,0.0,0.0,0.0,0.0,0.0,0.0,0.0,0.0,0.0,0.0,0.0,0.0,0.0,0.0,0.0,0.0,0.0,0.0,0.0,0.0,0.0,1.6989,1.8311,1.9444,0.0,2.0347,2.0159,1.9512,1.8758,1.7206,1.4588,0.0,0.0,0.0,0.0,0.0,0.0,0.0,0.0,0.0,0.0,0.0,0.0,0.0,0.0,0.0,0.0,0.0,0.0,0.0,0.0,0.0,0.0,0.0,0.0,0.0,0.0,0.0,0.0,0.0,0.0,0.0,0.0,0.0,0.0,0.0,0.0,0.0,0.0,0.0,0.0,0.0,0.0,0.0,0.0,0.0,0.0,0.0,0.0,0.0,0.0,0.0,0.0,0.0,0.0,0.0,0.0,0.0,0.0,0.0,0.0,0.0,0.0,0.0,0.0,0.0,0.0,0.0,0.0,0.0,0.0,0.0,0.0,0.0,0.0,0.0,0.0,0.0,0.0,0.0,0.0,0.0,0.0,0.0,0.0,0.0,0.0,0.0,0.0,0.0,0.0,0.0,0.0,0.0,0.0,0.0,0.0,0.0,0.0,0.0,0.0,0.0,0.0,1.6322,1.7685,1.8718,1.9363,1.9626,2.0147,2.1029,1.8976,1.7303,0.0,0.0,0.0,0.0,0.0,0.0,0.0,0.0,0.0,0.0,0.0,0.0,0.0,0.0,0.0,0.0,0.0,0.0,0.0,0.0,0.0,0.0,0.0,0.0,0.0,0.0,0.0,0.0,0.0,0.0,0.0,0.0,0.0,0.0,0.0,0.0,0.0,0.0,0.0,0.0,0.0,0.0,0.0,0.0,0.0,0.0,0.0,0.0,0.0,0.0,0.0,0.0,0.0,0.0,0.0,0.0,0.0,0.0,0.0,0.0,0.0,0.0,0.0,0.0,0.0,0.0,0.0,0.0,0.0,0.0,0.0,0.0,0.0,0.0,0.0,0.0,0.0,0.0,0.0,0.0,0.0,0.0,0.0,0.0,0.0,0.0,0.0,0.0,0.0,0.0,0.0,0.0,0.0,0.0,0.0,0.0,0.0,0.0,0.0,0.0,0.0,0.0,0.0,1.7824,1.8384,1.8718,1.9363,1.9626,1.9987,2.0454,1.965,1.8642,1.7354,0.0,0.0,0.0,0.0,0.0,0.0,0.0,0.0,0.0,0.0,0.0,0.0,0.0,0.0,0.0,0.0,0.0,0.0,0.0,0.0,0.0,0.0,0.0,0.0,0.0,0.0,0.0,0.0,0.0,0.0,0.0,0.0,0.0,0.0,0.0,0.0,0.0,0.0,0.0,0.0,0.0,0.0,0.0,0.0,0.0,0.0,0.0,0.0,0.0,0.0,0.0,0.0,0.0,0.0,0.0,0.0,0.0,0.0,0.0,0.0,0.0,0.0,0.0,0.0,0.0,0.0,0.0,0.0,0.0,0.0,0.0,0.0,0.0,0.0,0.0,0.0,0.0,0.0,0.0,0.0,0.0,0.0,0.0,0.0,0.0,0.0,0.0,0.0,0.0,0.0,0.0,0.0,0.0,0.0,0.0,0.0,0.0,0.0,0.0,0.0,0.0,0.0,1.8294,1.8597,1.8624,1.8985,1.9386,1.9924,2.0566,1.9915,1.9011,1.8034,0.0,0.0,0.0,0.0,0.0,0.0,0.0,0.0,0.0,0.0,0.0,0.0,0.0,0.0,0.0,0.0,0.0,0.0,0.0,0.0,0.0,0.0,0.0,0.0,0.0,0.0,0.0,0.0,0.0,0.0,0.0,0.0,0.0,0.0,0.0,0.0,0.0,0.0,0.0,0.0,0.0,0.0,0.0,0.0,0.0,0.0,0.0,0.0,0.0,0.0,0.0,0.0,0.0,0.0,0.0,0.0,0.0,0.0,0.0,0.0,0.0,0.0,0.0,0.0,0.0,0.0,0.0,0.0,0.0,0.0,0.0,0.0,0.0,0.0,0.0,0.0,0.0,0.0,0.0,0.0,0.0,0.0,0.0,0.0,0.0,0.0,0.0,0.0,0.0,0.0,0.0,0.0,0.0,0.0,0.0,0.0,0.0,0.0,0.0,0.0,0.0,0.0,1.8089,1.845,1.8464,1.849,1.8971,1.9819,2.1058,1.9729,1.8805,1.8762,0.0,0.0,0.0,0.0,0.0,0.0,0.0,0.0,0.0,0.0,0.0,0.0,0.0,0.0,0.0,0.0,0.0,0.0,0.0,0.0,0.0,0.0,0.0,0.0,0.0,0.0,0.0,0.0,0.0,0.0,0.0,0.0,0.0,0.0,0.0,0.0,0.0,0.0,0.0,0.0,0.0,0.0,0.0,0.0,0.0,0.0,0.0,0.0,0.0,0.0,0.0,0.0,0.0,0.0,0.0,0.0,0.0,0.0,0.0,0.0,1.4604,1.3684,0.0,0.0,0.0,0.0,0.0,0.0,0.0,0.0,0.0,0.0,0.0,0.0,0.0,0.0,0.0,0.0,0.0,0.0,0.0,0.0,0.0,0.0,0.0,0.0,0.0,0.0,0.0,0.0,0.0,0.0,0.0,0.0,0.0,0.0,0.0,0.0,0.0,0.0,0.0,0.0,1.7733,1.8089,1.8237,1.8464,1.8611,1.9273,2.0716,1.9414,1.8942,1.9905,1.7728,0.0,0.0,0.0,0.0,0.0,0.0,0.0,0.0,0.0,0.0,0.0,0.0,0.0,0.0,0.0,0.0,0.0,0.0,0.0,0.0,0.0,0.0,0.0,0.0,0.0,0.0,0.0,0.0,0.0,0.0,0.0,0.0,0.0,0.0,0.0,0.0,0.0,0.0,0.0,0.0,0.0,0.0,0.0,0.0,0.0,0.0,0.0,0.0,0.0,0.0,0.0,0.0,0.0,0.0,0.0,0.0,0.0,0.0,0.0,1.5946,1.5076,0.0,0.0,0.0,0.0,0.0,0.0,0.0,0.0,0.0,0.0,0.0,0.0,0.0,0.0,0.0,0.0,0.0,0.0,0.0,0.0,0.0,0.0,0.0,0.0,0.0,0.0,0.0,0.0,0.0,0.0,0.0,0.0,0.0,0.0,0.0,0.0,0.0,0.0,0.0,0.0,1.7751,1.7995,1.8049,1.8263,1.841,1.9001,2.0187,1.9016,1.8714,1.98,1.8131,0.0,0.0,0.0,0.0,0.0,0.0,0.0,0.0,0.0,0.0,0.0,0.0,0.0,0.0,0.0,0.0,0.0,0.0,0.0,0.0,0.0,0.0,0.0,0.0,0.0,0.0,0.0,0.0,0.0,0.0,0.0,0.0,0.0,0.0,0.0,0.0,0.0,0.0,0.0,0.0,0.0,0.0,0.0,0.0,0.0,0.0,0.0,0.0,0.0,0.0,0.0,0.0,0.0,1.685,1.6925,1.7055,1.8111,1.8635,1.8509,1.7067,1.6329,1.6165,1.4638,0.0,0.0,0.0,0.0,0.0,0.0,0.0,0.0,0.0,0.0,0.0,0.0,0.0,0.0,0.0,0.0,0.0,0.0,0.0,0.0,0.0,0.0,1.949,2.0988,2.0105,1.8223,1.5505,0.0,0.0,0.0,0.0,0.0,0.0,0.0,0.0,0.0,0.0,0.0,1.778,1.7916,1.7929,1.7982,1.8223,1.8755,1.9716,1.8686,1.8414,1.9313,1.8577,1.7505,0.0,0.0,0.0,0.0,0.0,0.0,0.0,0.0,0.0,0.0,0.0,0.0,0.0,0.0,0.0,0.0,0.0,0.0,0.0,0.0,0.0,0.0,0.0,0.0,0.0,0.0,0.0,0.0,0.0,0.0,0.0,0.0,1.4702,1.4494,0.0,0.0,0.0,0.0,0.0,0.0,0.0,0.0,0.0,0.0,0.0,0.0,0.0,1.7063,1.858,1.8831,1.9567,2.0903,2.1098,2.1098,2.0877,2.0731,2.0727,2.065,2.0214,0.0,1.7794,1.7571,0.0,0.0,0.0,0.0,0.0,0.0,0.0,0.0,0.0,0.0,0.0,0.0,0.0,0.0,0.0,0.0,0.0,0.0,0.0,0.0,0.0,0.0,2.1073,2.0863,2.0604,1.9957,1.8318,1.6236,1.4597,1.4324,1.4002,1.3721,0.0,0.0,0.0,0.0,0.0,0.0,1.7516,1.7649,1.7742,1.7969,1.7836,1.8278,1.9673,1.8686,1.8414,1.9313,1.8769,1.8326,1.8147,1.667,0.0,0.0,0.0,0.0,0.0,0.0,0.0,0.0,0.0,0.0,0.0,0.0,0.0,0.0,0.0,0.0,0.0,0.0,0.0,0.0,0.0,0.0,0.0,0.0,0.0,0.0,0.0,0.0,0.0,1.4436,1.5043,1.6128,1.5489,1.4767,0.0,0.0,0.0,0.0,0.0,0.0,0.0,0.0,0.0,1.8095,1.9045,1.9915,2.0651,2.0778,2.1251,2.2044,2.2004,2.1924,2.179,2.1496,2.1269,2.1096,2.0975,2.0469,1.9676,1.8623,1.7748,1.6833,0.0,0.0,0.0,0.0,1.591,1.5799,1.6786,1.6774,1.6262,1.5825,0.0,0.0,0.0,0.0,0.0,0.0,0.0,1.9283,2.0089,2.0711,2.1027,2.0918,2.0764,2.0481,1.984,1.8374,1.6858,1.5685,1.5409,1.4981,1.3752,1.4421,0.0,0.0,0.0,1.7675,1.7622,1.8408,1.8831,1.8499,1.8755,1.9117,1.947,1.8854,1.849,1.8616,1.8212,1.8063,1.8237,1.6864,1.6035,0.0,0.0,0.0,0.0,0.0,0.0,0.0,0.0,0.0,0.0,0.0,0.0,0.0,0.0,0.0,0.0,0.0,0.0,0.0,0.0,0.0,0.0,0.0,0.0,0.0,0.0,0.0,0.0,1.5615,1.6486,1.7689,1.7576,1.7026,0.0,0.0,0.0,0.0,0.0,0.0,1.7116,1.8944,2.005,2.0184,2.1421,2.2138,2.2205,2.2205,2.2311,2.2525,2.2311,2.2178,2.2084,2.179,2.151,2.1216,2.1149,2.1109,2.1019,1.95,1.8888,1.8601,1.7083,1.6189,1.5942,1.7197,1.7394,1.7297,1.8677,1.8713,1.802,1.7318,1.6471,1.5585,1.5052,0.0,0.0,0.0,0.0,1.9963,2.0082,2.0589,2.12,2.1496,2.1431,2.1132,2.0768,1.9959,1.8765,1.6956,1.6714,1.6275,1.4669,1.5748,0.0,0.0,0.0,1.8939,1.8345,1.9138,1.9606,1.919,1.9709,1.9866,1.9208,1.8955,1.852,1.7916,1.7782,1.7836,1.8089,1.7227,1.6741,1.6844,0.0,0.0,0.0,0.0,0.0,0.0,0.0,0.0,0.0,0.0,0.0,0.0,0.0,0.0,0.0,0.0,0.0,0.0,0.0,0.0,0.0,0.0,0.0,0.0,0.0,0.0,0.0,0.0,0.0,1.9914,1.9417,0.0,0.0,0.0,0.0,1.6588,1.8037,1.89,1.9042,2.0578,2.17,2.2244,2.2324,2.2539,2.2887,2.2819,2.2887,2.2846,2.2887,2.2672,2.2392,2.2098,2.1804,2.1574,2.1229,2.1109,2.1082,2.0726,2.0606,2.0491,1.986,1.9562,1.947,1.8986,1.8774,1.8765,1.8624,1.8531,1.8502,1.8712,1.7697,1.6678,1.7824,1.7183,0.0,0.0,1.9151,1.9459,2.1642,2.2247,2.2352,2.2964,2.3101,2.2692,2.1295,2.0121,1.9045,1.8117,1.7729,1.753,1.7397,0.0,1.8646,1.8617,1.8736,1.9101,1.9879,1.9346,1.919,1.9931,2.0086,1.9776,1.8907,1.8826,1.8475,1.7661,1.7862,1.8102,1.8464,1.8422,1.7956,1.702,1.675,0.0,0.0,0.0,0.0,0.0,0.0,0.0,0.0,0.0,0.0,0.0,0.0,0.0,0.0,0.0,0.0,0.0,0.0,0.0,0.0,0.0,0.0,0.0,0.0,0.0,0.0,0.0,0.0,2.1228,2.159,0.0,2.0567,2.0302,2.0116,2.0096,2.0788,2.1222,2.1222,2.2017,2.2485,2.2699,2.2699,2.2752,2.2928,2.2928,2.2928,2.2928,2.2928,2.2605,2.2138,2.2031,2.1724,2.1256,2.1149,2.1109,2.1096,2.1002,2.0735,2.0374,2.016,1.9733,1.9239,1.9212,1.9092,1.8931,1.9025,1.8931,1.8731,1.8395,1.7827,1.7329,1.7968,1.775,1.755,1.8523,1.9015,1.941,2.0224,2.0689,2.1123,2.1827,2.195,2.169,2.0647,2.0084,1.9418,1.8008,1.8071,1.8509,1.8811,1.9317,1.9531,1.9373,1.9471,1.9776,2.0086,2.0292,2.055,2.0858,2.1369,2.145,2.081,2.0052,1.9382,1.8755,1.8102,1.7889,1.8196,1.821,1.82,1.8237,1.779,1.7067,0.0,0.0,0.0,0.0,0.0,0.0,0.0,0.0,0.0,0.0,0.0,0.0,0.0,0.0,0.0,0.0,0.0,0.0,0.0,0.0,0.0,0.0,0.0,0.0,0.0,0.0,2.1356,2.1793,2.2806,2.3126,2.2218,2.2405,2.2592,2.2592,2.2672,2.2766,2.2873,2.2873,2.2913,2.302,2.2913,2.2928,2.2928,2.2928,2.2928,2.2928,2.2766,2.2512,2.2124,2.1924,2.163,2.1256,2.1149,2.1109,2.1096,2.1002,2.0681,2.0167,2.0167,1.988,1.9359,1.9359,1.9239,1.9092,1.9185,1.9092,1.8838,1.8357,1.7983,1.7796,1.8103,1.805,1.7969,1.8384,1.8659,1.8902,1.9541,1.9917,2.0376,2.1126,2.1318,2.1062,2.0292,1.9879,1.9398,1.8617,1.8408,1.8509,1.8862,1.9574,1.9907,1.9424,1.978,2.0189,2.0447,2.085,2.1242,2.1691,2.235,2.2485,2.1726,2.0674,1.9814,1.918,1.8165,1.7716,1.7982,1.7995,1.8275,1.8918,1.8726,1.8416,1.804,0.0,0.0,0.0,0.0,0.0,0.0,0.0,0.0,0.0,0.0,0.0,0.0,0.0,0.0,0.0,0.0,0.0,0.0,0.0,0.0,0.0,0.0,0.0,1.9054,2.1293,2.2633,2.1789,2.2968,2.3434,2.2565,2.326,2.3768,2.3768,2.35,2.346,2.3741,2.3193,2.3006,2.33,2.302,2.2928,2.2928,2.2928,2.2859,2.2914,2.2552,2.2405,2.2378,2.1804,2.1614,2.1588,2.1229,2.1109,2.1082,2.0802,2.0508,2.018,2.0167,2.0153,2.0134,1.9573,1.943,1.9332,1.9038,1.8918,1.8865,1.8584,1.829,1.8035,1.837,1.805,1.7702,1.829,1.8036,1.8071,1.994,2.0263,2.0241,2.1062,2.1267,2.1062,2.0241,1.9398,1.9034,1.9864,1.8736,1.7635,1.7687,1.9034,1.9813,1.8982,1.9554,0.0,2.1165,2.0867,2.1102,2.2384,2.2826,2.2586,2.1401,2.055,1.9761,1.893,1.8094,1.7769,1.8023,1.7982,1.8303,1.8891,1.9503,1.9784,1.9743,0.0,0.0,0.0,0.0,0.0,0.0,0.0,0.0,0.0,0.0,0.0,0.0,0.0,0.0,0.0,0.0,0.0,0.0,0.0,0.0,0.0,0.0,2.0791,1.9764,2.1645,2.3193,2.3166,2.3701,2.3981,2.3741,2.3741,2.3768,2.3768,2.3701,2.3594,2.346,2.3287,2.314,2.2993,2.2968,2.2928,2.2928,2.2928,2.2752,2.2539,2.2458,2.2205,2.1777,2.1695,2.1494,2.1229,2.1149,2.1109,2.1082,2.0802,2.0628,2.0508,2.008,1.9786,1.9586,1.9426,1.943,1.9417,1.9279,1.8971,1.8597,1.8517,1.8143,1.7729,1.7809,1.7716,1.7622,1.7782,1.7716,1.7859,1.8993,1.9211,1.9346,2.0241,2.0447,2.0189,1.9346,1.8982,1.8722,1.837,1.7898,1.8003,1.919,1.9761,2.0034,1.9761,1.9398,1.945,2.0344,2.0318,2.0385,2.0755,2.1399,2.1636,2.1334,2.055,2.0241,2.0585,1.9242,1.8503,1.8587,1.802,1.8211,1.9177,2.0146,2.0796,0.0,0.0,0.0,0.0,0.0,0.0,0.0,0.0,0.0,0.0,0.0,0.0,0.0,0.0,0.0,0.0,0.0,0.0,0.0,0.0,0.0,0.0,2.1424,2.2108,2.1358,2.2566,2.3581,2.3754,2.4022,2.4209,2.4209,2.4155,2.4142,2.4142,2.3915,2.3741,2.3701,2.334,2.3113,2.306,2.2926,2.2928,2.2928,2.2928,2.2779,2.2605,2.2352,2.2058,2.1789,2.1483,2.1269,2.1109,2.1109,2.1042,2.0909,2.0615,2.0414,2.0281,0.0,0.0,0.0,0.0,1.943,1.939,1.9092,1.8771,1.845,1.8196,1.7876,1.7582,1.7582,1.7582,1.7582,1.7582,1.7582,1.7793,1.8565,1.8826,1.893,1.945,1.9554,1.9294,1.8461,1.8304,1.8146,1.7687,1.7582,0.0,1.8878,1.9346,1.945,1.9086,1.919,1.9502,2.0034,2.0643,2.1133,2.1354,2.2064,2.2457,2.2308,2.1418,0.0,0.0,0.0,1.9346,1.9346,1.9007,0.0,0.0,0.0,2.2174,2.2871,2.2871,0.0,0.0,2.0568,2.0203,0.0,0.0,0.0,0.0,0.0,0.0,0.0,0.0,0.0,0.0,0.0,0.0,0.0,0.0,0.0,0.0,2.2993,2.3033,2.338,2.3674,2.3861,2.3821,2.4075,2.4249,2.4249,2.4489,2.4623,2.4596,2.4115,2.3901,2.4088,0.0,0.0,0.0,0.0,2.2928,2.2928,2.2928,2.2914,2.2806,2.2258,2.1964,2.1924,2.1363,2.1109,2.1109,2.1109,2.0962,2.0695,2.0374,2.004,1.9746,1.9746,1.9746,1.972,1.9466,1.9403,1.9239,1.8718,0.0,0.0,1.7809,1.7609,1.7582,1.7582,1.7582,1.7582,1.7582,1.7582,1.774,1.8461,1.867,1.867,1.867,1.867,1.8461,1.774,1.7582,1.7582,1.7582,1.7582,1.7582,1.7582,1.8199,1.8408,1.7687,1.8869,1.9873,2.0028,2.1333,2.2401,2.2788,2.3487,0.0,2.3438,2.2454,2.1892,2.1996,2.0861,2.0189,2.0086,2.0413,2.1143,2.2257,2.2689,2.3431,2.4693,2.4693,2.5086,2.5748,2.3495,2.2844,0.0,0.0,0.0,0.0,0.0,0.0,0.0,0.0,0.0,0.0,0.0,0.0,0.0,0.0,0.0,2.3257,2.3323,2.342,2.3955,2.4289,2.4382,2.4155,2.4382,2.4556,2.4556,2.4609,2.4543,2.4302,2.4182,2.3941,2.3527,2.3327,2.3153,2.2953,2.2968,2.2928,2.2928,2.2928,2.2739,2.2498,2.2151,0.0,2.1695,2.1269,2.1109,2.1109,2.1109,2.1082,2.0989,2.0454,1.992,1.9511,1.9511,1.9511,1.9439,1.9444,1.9212,1.8998,1.8878,1.8475,1.8062,1.7942,1.7782,1.7582,1.7582,1.7582,0.0,1.7582,1.7582,1.7635,1.7793,1.7845,1.7845,1.7845,1.7845,1.7793,1.7635,1.7582,1.7582,1.7582,1.7582,1.7582,1.7582,1.774,1.7793,1.7635,1.8062,1.8693,1.944,2.0581,2.1279,2.1133,2.1844,2.2179,2.1818,2.1566,2.1722,2.2401,2.1605,2.0755,2.0138,2.0767,2.1258,2.1528,2.2263,2.3047,2.3888,2.3888,2.4282,2.4979,2.4851,2.5134,0.0,0.0,0.0,0.0,0.0,0.0,0.0,0.0,0.0,0.0,0.0,2.0818,0.0,0.0,2.4178,2.4686,2.4673,2.449,2.4227,2.4449,2.4583,2.4436,2.4556,2.4636,2.4636,2.4636,2.4569,2.4436,2.4289,2.4008,2.3567,2.3407,2.318,2.2941,2.2928,2.2928,2.2928,2.2928,2.2712,2.2418,2.2124,2.183,2.1601,2.1243,2.1109,2.1109,2.1109,2.1029,2.0855,2.0414,1.9973,1.9586,1.9586,1.9492,1.943,1.943,1.9185,1.8905,1.8758,1.841,1.7969,1.7862,1.7702,1.7582,1.7582,1.7582,1.7582,1.7582,1.7582,1.7582,1.7582,1.7582,1.7582,1.7582,1.7582,1.7582,1.7582,1.7582,1.7582,1.7582,1.7702,1.7809,1.7809,1.7943,1.7983,1.7836,1.8679,1.9516,2.0175,2.1665,2.2581,2.244,2.2963,2.3215,2.2795,2.2411,2.2333,2.2552,2.2182,2.1573,2.0755,2.1062,2.1194,2.094,2.1835,2.2614,2.3348,2.3725,2.435,2.5104,2.5292,2.5623,0.0,0.0,0.0,0.0,0.0,0.0,0.0,0.0,1.6949,1.9972,2.0725,2.2053,2.5969,2.6168,2.5897,2.6176,2.604,2.5554,2.4421,2.4489,2.4636,2.4636,2.4636,2.4636,2.4636,2.4636,2.4609,2.4556,2.4342,2.4075,2.3781,2.3487,2.3207,2.2953,2.2968,2.2928,2.2928,2.2928,2.2739,2.2498,2.2151,2.1857,2.1695,2.1269,2.1109,2.1109,2.1109,2.0949,2.0655,2.0361,2.0067,1.9786,1.9733,1.9573,1.943,1.943,1.9145,1.8811,1.8571,1.825,1.7916,1.7662,1.7582,1.7582,1.7582,1.7582,1.7582,1.7582,1.7582,1.7582,1.7582,1.7582,1.7582,1.7582,1.7582,1.7582,1.7582,1.7582,1.7582,1.7582,1.7836,1.7995,1.7995,1.829,1.841,1.8115,1.9334,2.0488,2.11,2.2737,2.3918,2.4176,2.4453,2.4419,2.3939,2.3357,2.2877,2.262,2.2434,2.203,2.1318,2.1165,2.0881,2.0505,2.1202,2.1888,2.2532,2.3182,2.3859,2.4586,2.4586,2.4907,2.0727,1.9448,1.7416,1.469,1.4925,1.5967,0.0,0.0,2.0631,2.2652,2.4538,2.6247,2.7723,2.7652,2.728,2.6947,2.6349,2.5552,2.469,2.4609,2.4636,2.4636,2.4636,2.4636,2.4636,2.4636,2.4529,2.4275,2.4222,2.4075,2.3781,2.3487,2.3313,2.3273,2.3006,2.2928,2.2928,2.2928,2.2914,2.2806,2.2258,2.1964,2.1924,2.1363,2.1109,2.1109,2.1109,2.0949,2.0655,2.0361,2.0067,1.9773,1.9519,1.9457,1.943,1.943,1.9011,1.8531,1.8504,1.8116,1.7622,1.7595,1.7582,1.7582,1.7582,1.7582,1.7582,1.7582,1.7582,1.7582,1.7582,1.7582,1.7582,1.7582,1.7582,1.7582,1.7582,1.7582,1.7582,1.7582,1.7836,1.7995,1.7995,1.829,1.8477,1.845,1.8818,1.9654,2.1355,2.2035,2.2799,2.4047,2.399,2.3528,2.2843,2.2705,2.2637,2.2603,2.1878,2.142,2.1318,2.0601,2.0205,2.0183,2.0235,2.0471,2.0878,2.0984,2.1239,2.1682,2.1682,2.3174,2.1122,2.0498,0.0,0.0,1.7202,1.739,1.6713,1.8134,2.007,2.1832,2.4268,2.6436,2.7686,2.8643,2.8769,0.0,2.7124,2.6576,2.483,2.4636,2.4636,2.4636,2.4636,2.4636,2.4636,2.4636,2.4583,2.4462,2.4449,2.4329,2.4035,2.3741,2.35,2.3327,2.302,2.2928,2.2928,2.2928,2.2779,2.2605,2.2191,2.1897,2.1724,2.1296,2.1109,2.1109,2.1109,2.1042,2.0922,2.0802,2.0468,2.004,1.992,1.9666,1.943,1.943,1.9105,1.8744,1.8744,1.8357,1.7849,1.7849,1.7729,1.7582,1.7582,1.7582,1.7582,1.7582,1.7582,1.7582,1.7582,1.7582,1.7582,1.7582,1.7582,1.7582,1.7582,1.7582,1.7635,1.7796,1.809,1.8357,1.8475,1.8798,1.8998,1.8998,1.9398,2.0259,2.1729,2.243,2.3182,2.4102,2.3459,2.2934,2.2878,2.2265,2.1827,2.1827,2.1471,2.0858,1.9864,1.9502,1.9138,1.867,1.9086,1.9508,1.9885,2.0348,2.078,2.1186,2.1186,2.1932,2.1056,0.0,0.0,1.8979,1.8794,1.8616,1.6654,1.731,1.8843,2.0669,2.2929,2.5211,2.7165,2.889,2.9319,2.737,2.7656,2.7273,2.481,2.4583,2.4609,2.4529,2.4516,2.4516,2.4516,2.4596,2.4636,2.4636,2.4636,2.4543,2.4329,2.3968,2.3674,2.346,2.3073,2.2928,2.2928,2.2928,2.2712,2.2418,2.2124,2.183,2.1601,2.1243,2.1109,2.1109,2.1109,2.1109,2.1096,2.1029,2.0695,2.0167,2.0147,1.9813,1.943,1.943,1.9185,1.8918,1.8918,1.8597,1.8102,1.8022,1.7889,1.7689,1.7609,1.7582,1.7595,1.7689,1.7716,1.7729,1.7809,1.7769,1.7729,1.7809,1.7702,1.7609,1.7689,1.7716,1.7769,1.7983,1.8343,1.8677,1.8891,1.9172,1.943,1.943,1.9745,2.0458,2.1586,2.2692,2.3517,2.3829,2.2975,2.2401,2.2407,2.1734,2.1216,2.096,2.096,2.0344,1.8878,1.8565,1.8199,1.7635,1.8146,1.8626,1.8918,1.9473,1.9909,2.0214,2.0214,2.0303,0.0,0.0,2.0877,1.7949,1.8699,1.9254,1.6046,1.63,1.7917,2.0142,2.1246,2.2901,2.6534,2.8084,2.8478,2.73,2.7656,2.7199,2.4612,2.4462,2.4529,2.4249,2.4222,2.4222,0.0,2.4476,2.4636,2.4636,2.4636,2.4636,2.4623,2.4075,2.3768,2.3754,2.3249,2.2928,2.2928,2.2928,2.2712,2.2418,2.2124,2.183,2.1601,2.1243,2.1109,2.1109,2.1109,2.1109,2.1082,2.0802,2.0508,2.014,1.992,1.9626,1.943,1.943,1.9185,1.8918,1.8918,1.8731,1.8424,1.8089,1.7982,1.7916,1.7675,1.7582,1.7649,1.7889,1.7982,1.8049,1.8384,1.825,1.8049,1.8397,1.8009,1.7662,1.7916,1.7982,1.7982,1.7995,1.8462,1.8918,1.8918,1.9172,1.943,1.943,1.9417,1.9751,2.0601,2.2297,2.3294,2.2954,2.2597,2.1905,2.0658,2.0996,2.096,2.0189,2.0138,1.9709,1.8826,1.8042,1.7635,1.7582,1.7635,1.7635,1.7648,1.7701,1.7701,1.7714,1.7714,1.8037,0.0,0.0,2.1238,1.8763,1.8175,1.7409,1.4454,1.4554,1.5769,1.7308,1.8691,2.0515,2.3514,2.4771,2.5538,2.6063,2.6419,2.6301,2.5424,2.4888,2.4529,2.4235,2.4209,0.0,0.0,0.0,0.0,2.4623,2.4636,2.4556,2.4356,2.3981,2.3688,2.3487,2.3073,2.2928,2.2928,2.2928,2.2806,2.2712,2.2218,2.183,2.1601,2.1243,2.1109,2.1109,2.1109,2.1109,2.1096,2.1002,2.0681,2.0167,2.012,1.9786,1.943,1.943,1.9305,1.9225,1.9225,1.9025,1.8758,1.8608,1.8504,1.8317,1.8223,1.8183,1.817,1.8022,1.7995,1.8009,1.8115,1.8062,1.8062,1.8424,1.833,1.821,1.8317,1.8343,1.8397,1.8542,1.8784,1.8985,1.9185,1.9305,1.943,1.943,1.9866,2.0385,2.0658,2.1786,2.2305,2.176,2.11,2.0581,2.0247,1.9888,1.9554,1.9242,1.9242,1.8878,1.8055,1.774,1.7582,1.7582,1.7582,1.7582,1.7582,1.7582,1.7582,1.7582,1.7796,1.7942,0.0,2.2164,2.1919,1.9102,1.8073,1.6856,1.3448,1.3145,1.3898,1.498,1.6129,1.778,2.0355,2.2003,2.3197,2.389,2.4829,2.5242,2.4834,2.4303,2.4008,2.4048,2.4048,2.4048,0.0,0.0,0.0,2.4609,2.4636,2.4556,2.4369,2.3981,2.3688,2.3487,2.3073,2.2928,2.2928,2.2928,2.2752,2.2539,2.2058,2.1683,2.139,2.1203,2.1109,2.1109,2.1109,2.1109,2.1096,2.1002,2.0668,2.0167,2.012,1.9786,1.943,1.943,1.943,1.943,1.943,1.9239,1.9065,1.8958,1.8798,1.8624,1.8517,1.849,1.8477,1.8384,1.8302,1.8328,1.849,1.8382,1.8437,1.8731,1.8651,1.8517,1.8624,1.8731,1.8824,1.8905,1.9092,1.9265,1.9359,1.943,1.943,1.943,1.988,2.0328,2.0658,2.1231,2.1421,2.0883,2.0227,1.9679,1.9371,1.9002,1.867,1.8408,1.8617,1.8461,1.7635,1.7582,1.7582,1.7582,1.7582,1.7582,1.7582,1.7582,1.7582,1.7595,1.7903,1.8049,2.2552,2.3327,2.2852,1.8883,1.8323,1.7548,1.3095,1.2135,1.2377,1.3298,1.376,1.4804,0.0,0.0,2.1355,2.0955,2.2924,2.4184,2.316,2.2981,2.3209,0.0,0.0,0.0,0.0,0.0,0.0,2.4609,0.0,2.4549,2.4609,2.4075,2.3768,2.3754,2.3236,2.2928,2.2928,2.2928,2.2579,2.2004,2.1775,2.1416,2.1136,2.1122,2.1109,2.1109,2.1109,2.1096,2.1069,2.0802,2.0508,2.0187,1.992,1.9639,1.943,1.943,1.943,1.943,1.943,1.943,1.9377,1.9038,1.8945,1.8891,1.8624,1.8531,1.8584,1.8851,1.8918,1.8985,1.9265,1.9132,1.8998,1.9292,1.8958,1.8624,1.8891,1.9199,1.9319,1.9025,1.9426,1.9706,1.947,1.943,1.943,1.943,1.943,1.9707,2.0544,2.0601,2.053,2.0272,1.9902,1.9275,1.8104,1.8432,1.8408,1.7635,1.8304,1.8408,1.7635,1.7582,1.7582,1.7582,1.7582,1.7582,1.7582,1.7582,1.7582,1.7595,1.7862,1.8223,2.2726,2.3195,2.2694,1.9298,1.8115,1.6858,1.3098,1.2054,1.2136,1.3138,1.2525,1.2496,0.0,0.0,0.0,2.036,2.2551,0.0,2.433,2.4075,0.0,2.3474,0.0,2.3768,2.3768,2.4035,0.0,0.0,2.4636,2.4543,2.4329,2.3968,2.3674,2.3447,2.306,2.2928,2.2928,2.2928,2.2672,2.2298,2.2017,2.1724,2.143,2.1203,2.1109,2.1109,2.1109,2.0989,2.0802,2.0935,2.0561,1.992,2.0067,1.9813,1.943,1.943,1.943,1.943,1.943,1.943,1.9417,1.9279,1.9252,1.9239,1.9172,1.9145,1.9118,1.8958,1.8918,1.8945,1.9011,1.8985,1.8998,1.9292,1.9412,1.9426,1.9279,1.9653,1.992,1.9626,1.9693,1.9706,1.947,1.943,1.943,1.943,1.943,1.9475,1.9707,1.9707,1.9503,1.8986,1.8863,1.8537,1.7742,1.7833,1.7845,1.7635,1.7793,1.7793,1.7635,1.7582,1.7582,1.7582,1.7582,1.7582,1.7582,1.7582,1.7582,1.7595,1.813,1.8424,2.3487,2.334,2.2333,1.9556,1.7875,1.6059,1.3018,1.2108,1.1997,1.2359,1.1628,0.0,0.0,0.0,0.0,0.0,0.0,0.0,2.3666,2.3445,2.326,0.0,2.3474,0.0,2.3754,2.4035,2.4329,0.0,2.4636,2.4569,2.4396,2.3995,2.3688,2.3527,2.31,2.2928,2.2928,2.2928,2.2645,2.2231,2.2071,2.1764,2.1349,2.1189,2.1109,2.1109,2.1109,2.1015,2.0855,2.0762,2.0441,1.9987,1.9893,1.9653,1.943,1.943,1.943,1.943,1.943,1.943,1.943,1.943,1.943,1.943,1.943,1.943,1.9332,1.9158,1.9118,1.9145,1.9279,1.9212,1.9225,1.9653,1.9773,1.9786,1.976,2.0107,2.0374,2.0214,2.008,1.9933,1.9773,1.9746,1.9706,1.9573,1.9559,1.9506,1.9444,1.943,1.9145,1.8557,1.849,1.825,1.7635,1.7582,1.7582,1.7582,1.7582,1.7649,1.7782,1.7649,1.7649,1.7782,1.7649,1.7649,1.7782,1.7782,1.7849,1.7996,1.8464,1.8677,2.4223,2.3493,2.1978,1.959,1.752,1.5449,1.2887,1.2155,1.1904,1.145,0.0,0.0,1.0541,0.0,1.5257,1.5479,0.0,2.114,2.2163,2.2231,2.2445,2.318,2.33,2.3447,2.3741,2.4035,2.4329,2.4757,2.4636,2.4636,2.4636,2.4088,2.3728,2.3661,2.314,2.2928,2.2928,2.2791,2.2498,2.1991,2.1925,2.1618,2.1109,2.1109,2.1109,2.1109,2.1109,2.1082,2.1015,2.0548,2.0247,2.0187,1.972,1.9578,1.9479,1.9497,1.9426,1.947,1.9386,1.943,1.943,1.943,1.943,1.943,1.943,1.943,1.943,1.943,1.943,1.9439,1.972,1.9613,1.9559,2.0107,2.0067,1.9973,2.0187,2.0468,2.0681,2.0681,2.0468,2.0281,2.0241,2.0167,2.0134,1.984,1.98,1.9693,1.9399,1.943,1.9145,1.8557,1.849,1.825,1.7635,1.7582,1.7582,1.7582,1.7622,1.7769,1.7982,1.7822,1.7836,1.8049,1.7836,1.7836,1.8049,1.8049,1.8237,1.8504,1.8784,1.8918,2.3435,2.3067,2.2109,1.8717,1.7313,1.5937,1.2991,1.2074,0.0,0.0,0.0,1.0555,1.05,1.2146,0.0,1.5306,0.0,0.0,0.0,0.0,2.306,0.0,0.0,0.0,0.0,0.0,0.0,0.0,2.4991,2.4636,2.4636,2.4088,2.3541,2.3033,2.2913,2.2928,2.2928,2.231,2.1956,2.1991,2.1397,2.1098,2.1109,2.1109,2.1109,2.1109,2.1109,2.0975,2.0762,2.0895,2.0668,2.0254,2.0388,2.0294,2.0054,1.9813,1.972,1.9693,1.9511,1.943,1.943,1.943,1.943,1.943,1.943,1.943,1.943,1.943,1.943,1.9439,1.972,1.976,1.9813,2.0147,2.0388,2.0468,2.0267,2.0468,2.0681,2.0681,2.0641,2.0521,2.0267,2.0167,2.0134,1.984,1.98,1.9693,1.9399,1.943,1.9145,1.8557,1.849,1.825,1.7635,1.7582,1.7582,1.7582,1.7822,1.7942,1.7995,1.8237,1.8357,1.841,1.8357,1.8357,1.841,1.841,1.8437,1.8504,1.8784,1.8918,2.2992,2.2271,2.0867,1.8709,1.6915,1.5134,1.2726,0.0,0.0,0.0,0.0,1.0561,1.0412,0.0,0.0,0.0,0.0,0.0,0.0,0.0,0.0,0.0,0.0,0.0,0.0,0.0,0.0,0.0,2.5416,2.498,2.498,2.4062,2.3327,2.2873,2.2928,2.2928,2.2928,2.2516,2.2227,2.1991,2.1806,2.1503,2.1109,2.1269,2.1256,2.1109,2.1109,2.1029,2.0895,2.0895,2.0722,2.0468,2.0454,2.0361,2.0153,2.008,2.0027,2.0,1.9867,1.972,1.9586,1.9586,1.9492,1.943,1.943,1.943,1.943,1.943,1.9479,1.9653,1.9947,2.0027,2.0134,2.0588,2.0802,2.0869,2.0722,2.0802,2.0895,2.0895,2.0895,2.0855,2.0722,2.0695,2.0588,2.0294,2.012,1.992,1.9626,1.9466,1.9199,1.8758,1.8718,1.8531,1.809,1.805,1.805,1.805,1.8196,1.8343,1.8435,1.849,1.8557,1.8718,1.8571,1.8571,1.8718,1.8718,1.8798,1.8945,1.9092,1.9158,2.2496,2.1546,2.0143,1.8646,1.6729,1.4664,1.2545,1.183,0.0,0.0,0.0,1.0602,1.0371,0.0,0.0,0.0,0.0,0.0,0.0,0.0,0.0,0.0,0.0,0.0,0.0,0.0,0.0,0.0,2.5741,2.527,2.5213,2.3991,2.318,2.2941,2.2928,2.2791,2.2654,2.2654,2.2362,2.1793,2.1951,2.17,2.1122,2.1349,2.1336,2.1109,2.1109,2.1109,2.1096,2.0869,2.0775,2.0748,2.0508,2.0414,2.0414,2.0347,2.0334,2.0307,2.0187,1.9987,1.9786,1.9733,1.9559,1.943,1.943,1.947,1.9466,1.9466,1.9666,1.996,2.0254,2.0334,2.0454,2.0989,2.1109,2.1109,2.1109,2.1109,2.1109,2.1109,2.1109,2.1109,2.1109,2.1109,2.1015,2.0722,2.0481,2.0227,1.9933,1.9693,1.9466,1.9225,1.9038,1.8811,1.8517,1.849,1.849,1.849,1.8544,1.8691,1.8918,1.8771,1.8784,1.9011,1.8798,1.8798,1.9025,1.9025,1.9132,1.943,1.9439,1.9466,2.1323,2.1724,2.1115,1.796,1.6906,1.5912,1.2792,0.0,0.0,0.0,1.0609,1.0507,1.048,1.034,0.0,0.0,0.0,0.0,0.0,0.0,0.0,0.0,0.0,0.0,0.0,0.0,0.0,0.0,2.5769,2.5247,2.4498,2.3759,2.318,2.2941,2.2928,2.2585,2.1897,2.1897,2.1616,2.0999,2.1025,2.1045,2.1109,2.1136,2.1136,2.1109,2.1109,2.1109,2.1109,2.1082,2.1069,2.1069,2.1042,2.1029,2.1002,2.0735,2.0641,2.0561,2.0027,1.9826,1.976,1.9492,1.9444,1.943,1.943,1.9546,1.976,1.976,1.9973,2.0254,2.0561,2.0641,2.0722,2.1029,2.1109,2.1109,2.1109,2.1109,2.1109,2.1109,2.1109,2.1109,2.1109,2.1109,2.1015,2.0722,2.0655,2.0535,2.0227,2.0113,2.0087,2.006,1.9341,1.8811,1.8517,1.849,1.849,1.849,1.8744,1.8891,1.8918,1.9158,1.935,1.9332,1.9305,1.9305,1.9332,1.9332,1.9345,1.943,1.9639,1.976,1.9615,2.0573,2.0692,1.7846,1.6889,1.5804,1.2749,0.0,0.0,1.0806,1.067,1.0602,1.0507,1.0324,1.0355,0.0,0.0,0.0,0.0,0.0,0.0,0.0,0.0,0.0,0.0,0.0,0.0,2.5571,2.5247,2.4882,2.4764,2.3667,2.2993,2.2928,2.2928,2.2791,2.2448,2.2448,2.2251,2.1777,2.1777,2.1674,2.1376,2.1376,2.1283,2.1109,2.1109,2.1109,2.1109,2.1109,2.1109,2.1109,2.1109,2.1109,2.1096,2.0975,2.0935,2.0909,2.0668,2.0468,2.0307,2.0187,2.004,1.9853,1.9679,1.9706,1.984,2.0013,2.0267,2.0535,2.0641,2.0802,2.0962,2.1082,2.1109,2.1109,2.1109,2.1109,2.1109,2.1109,2.1109,2.1109,2.1109,2.1109,2.1069,2.0949,2.0788,2.0628,2.0508,2.0347,2.0167,2.0167,1.992,1.9666,1.9546,1.9386,1.9345,1.9533,1.9319,1.9265,1.9439,1.9399,1.943,1.943,1.943,1.943,1.943,1.943,1.943,1.943,1.9666,1.98,1.8222,1.9233,1.9433,1.771,1.659,1.5167,0.0,0.0,0.0,1.0785,1.0717,1.067,1.0521,1.0378,1.0263,0.0,0.0,0.0,0.0,0.0,0.0,0.0,0.0,0.0,0.0,0.0,0.0,2.4977,2.477,2.4602,2.4374,2.3406,2.2928,2.2928,2.2928,2.2791,2.2585,2.2791,2.2644,2.2082,2.2204,2.2031,2.1614,2.1521,2.1309,2.1109,2.1109,2.1109,2.1109,2.1109,2.1109,2.1109,2.1109,2.1109,2.1109,2.1109,2.1109,2.1096,2.1015,2.0842,2.0655,2.0575,2.0401,2.0153,2.0094,2.0054,2.0107,2.0307,2.0575,2.0802,2.0802,2.0962,2.1109,2.1109,2.1109,2.1109,2.1109,2.1109,2.1109,2.1109,2.1109,2.1109,2.1109,2.1109,2.1109,2.1109,2.0935,2.0802,2.0802,2.0615,2.0494,2.0494,2.0494,2.0366,2.0254,2.004,2.0013,2.0214,1.9853,1.972,1.992,1.9653,1.9492,1.9492,1.947,1.943,1.943,1.9452,1.9492,1.9506,1.988,2.0107,1.752,1.7854,1.7337,1.7337,1.5885,1.4107,0.0,0.0,0.0,0.0,1.0717,1.067,1.0521,1.0378,1.0229,1.0011,0.0,0.0,0.0,0.0,0.0,0.0,0.0,0.0,0.0,0.0,0.0,2.4034,2.4645,0.0,2.2996,2.2928,2.2928,2.2928,2.2928,2.2516,2.1829,2.2516,2.2372,2.134,2.1793,2.1844,2.1601,2.1256,2.1109,2.1109,2.1109,2.1109,2.1109,2.1109,2.1109,2.1109,2.1109,2.1109,2.1109,2.1109,2.1109,2.1069,2.0775,2.0681,2.0628,2.0334,2.018,2.0294,2.0575,2.0668,2.0668,2.0668,2.0882,2.1109,2.1109,2.1109,2.1109,2.1109,2.1109,2.1109,2.1109,2.1109,2.1109,2.1109,2.1109,2.1109,2.1109,2.1109,2.1109,2.1109,2.1109,2.1109,2.1109,2.1096,2.1096,2.1096,2.1096,2.0869,2.022,2.0227,2.0227,2.0167,2.0167,2.0167,2.0227,1.9947,1.98,1.98,1.9519,1.943,1.943,1.9653,1.98,1.9813,2.0401,2.0815,1.4897,1.5795,1.6227,1.5302,1.4406,1.337,1.1979,0.0,0.0,0.0,1.0717,1.067,1.0521,1.0378,1.0263,1.0215,0.0,0.0,0.0,0.0,0.0,0.0,0.0,0.0,0.0,0.0,2.4902,2.4699,2.4428,2.4088,2.3679,2.3133,2.2928,2.2928,2.2928,2.2791,2.2516,2.2791,2.2751,2.2385,2.2284,2.2231,2.2124,2.1643,2.1416,2.1403,2.1203,2.1109,2.1109,2.1109,2.1109,2.1046,2.0589,2.0399,2.0335,1.9903,1.9711,1.9699,1.9611,1.9586,1.9574,1.9474,1.9449,1.9474,1.9562,2.014,2.0722,2.0922,2.1042,2.1109,2.1109,2.1109,2.1109,2.1109,2.1109,2.1109,2.1109,2.1269,2.1349,2.1149,2.143,2.1577,2.1176,2.1283,2.1336,2.1136,2.1109,2.1109,2.1109,2.1109,2.1109,2.1109,2.1109,2.1029,2.0842,2.0655,2.0615,2.0815,2.0454,2.0321,2.0535,2.0254,2.0094,2.0094,1.9813,1.976,1.996,1.9853,2.0013,2.0401,2.0588,2.0828,0.0,1.4115,1.4424,1.412,1.3298,0.0,0.0,0.0,0.0,0.0,0.0,0.0,0.0,0.0,0.0,0.0,0.0,0.0,0.0,0.0,0.0,0.0,0.0,0.0,0.0,2.4434,2.4699,2.497,2.436,2.3884,2.3611,2.3133,2.2928,2.2928,2.2928,2.2928,2.2928,2.2928,2.2928,2.2928,2.2565,2.2418,2.2405,2.1937,2.1722,2.1601,2.1363,2.1216,0.0,2.1109,2.0982,2.0652,2.0272,1.9954,1.9635,1.9264,1.9072,1.9072,1.9072,1.9072,1.9072,1.9072,1.9264,1.9456,1.9456,1.9966,2.0582,2.1126,2.1189,2.1136,2.1243,2.1189,2.1136,2.1256,2.1269,2.1309,2.1416,2.159,2.1657,2.147,2.1737,2.1871,2.1496,2.159,2.1657,2.147,2.1443,2.1403,2.1296,2.1269,2.1229,2.1122,2.1109,2.1109,2.1109,2.0949,2.0922,2.1096,2.0762,2.0641,2.0828,2.0561,2.0401,2.0401,2.0107,2.0054,2.0167,2.016,2.0374,2.0842,2.0842,2.0935,0.0,0.0,0.0,0.0,0.0,0.0,0.0,0.0,0.0,0.0,0.0,0.0,0.0,0.0,0.0,0.0,0.0,0.0,0.0,0.0,0.0,0.0,0.0,0.0,0.0,2.4152,2.4388,2.497,2.436,2.3679,2.2928,2.2928,2.2928,2.2928,2.2928,2.2928,2.2928,2.2928,2.2928,2.2928,2.2579,2.2458,2.2445,2.2124,2.1844,2.1641,2.1537,2.1299,2.1046,2.0996,2.0628,2.0043,2.0004,1.9633,1.9068,1.9004,1.8992,1.898,1.898,1.8956,1.8944,1.8968,1.9417,1.9979,2.0043,2.0094,2.04,2.1341,2.1349,2.1203,2.1574,2.1376,2.1243,2.1523,2.1655,2.1722,2.1924,2.2004,2.2004,2.1991,2.2017,2.2031,2.1991,2.2004,2.2004,2.1991,2.1991,2.1884,2.1681,2.1628,2.1507,2.1176,2.1122,2.1109,2.1109,2.1109,2.1109,2.1109,2.1109,2.1109,2.1109,2.0855,2.0708,2.0708,2.0441,2.022,2.0267,2.0561,2.0842,2.1109,2.1046,2.1046,0.0,0.0,0.0,0.0,0.0,0.0,0.0,0.0,0.0,0.0,0.0,0.0,0.0,0.0,0.0,0.0,0.0,0.0,0.0,0.0,0.0,0.0,0.0,0.0,0.0,2.4756,2.511,2.4999,2.436,2.3679,2.2928,2.2928,2.2928,2.2928,2.2928,2.2928,2.2928,2.2928,2.2928,2.2928,2.2792,2.2752,2.2739,2.2218,2.1951,2.1857,2.0889,2.04,2.0284,1.9923,1.9687,1.9516,1.9196,1.8948,1.8749,1.8217,1.7907,1.7817,1.7817,1.7684,1.7551,1.7751,1.8265,1.8971,1.9427,2.0182,2.0972,2.147,2.1561,2.1574,2.1804,2.183,2.179,2.1871,2.1884,2.1897,2.1977,2.2164,2.2258,2.2031,2.2352,2.2512,2.2058,2.2164,2.2245,2.2017,2.1991,2.1964,2.1897,2.1762,2.1588,2.1521,2.1243,2.1109,2.1109,2.1109,2.1109,2.1109,2.1109,2.1109,2.1109,2.1042,2.1002,2.1002,2.0935,2.0788,2.0575,2.0869,2.1042,2.1109,2.0589,2.0589,0.0,0.0,0.0,0.0,0.0,0.0,0.0,0.0,0.0,0.0,0.0,0.0,0.0,0.0,0.0,0.0,0.0,0.0,0.0,0.0,0.0,0.0,0.0,0.0,0.0,2.4266,2.4339,2.451,2.3884,2.3338,2.2928,2.2928,2.2928,2.2928,2.2928,2.2928,2.2928,2.2928,2.2928,2.2928,2.2928,2.2928,2.2914,2.2539,2.2311,2.2164,2.1451,2.1098,2.0929,2.0301,1.9903,1.9586,1.8942,1.853,1.8194,1.7857,1.7636,1.754,1.754,1.7443,1.7356,1.7496,1.7995,1.8659,1.8979,1.974,2.063,2.1124,2.1032,2.0886,2.1514,2.162,2.1621,2.2085,2.2178,2.2218,2.2352,2.2512,2.2579,2.2418,2.2713,2.2834,2.2445,2.2512,2.2565,2.2418,2.2392,2.2338,2.2205,2.2044,2.1897,2.1829,2.1603,2.151,2.151,2.151,2.1403,2.1122,2.1109,2.1109,2.1109,2.1109,2.1109,2.1109,2.1109,2.1029,2.0869,2.1029,2.1109,2.1109,2.0541,2.0605,0.0,0.0,0.0,0.0,0.0,0.0,0.0,0.0,0.0,0.0,0.0,0.0,0.0,0.0,0.0,0.0,0.0,0.0,0.0,0.0,0.0,0.0,0.0,0.0,2.4135,2.3584,2.3351,2.3966,2.3311,2.2913,2.2928,2.2928,2.2928,2.2928,2.2928,2.2928,2.2928,2.2928,2.2928,2.2928,2.2928,2.2928,2.2928,2.2887,2.2659,2.2418,2.2244,2.2085,2.1793,2.0971,2.0318,1.9716,1.8957,1.8305,1.783,1.783,1.7809,1.7776,1.7733,1.7723,1.7723,1.7766,1.8249,1.8788,1.8777,1.9203,1.9898,2.0464,2.0251,2.0112,2.1124,2.1238,2.1245,2.223,2.2485,2.2552,2.2806,2.2928,2.2928,2.2928,2.2928,2.2928,2.2928,2.2928,2.2859,2.2722,2.2859,2.2766,2.239,2.2378,2.2325,2.2084,2.2004,2.1991,2.1991,2.1991,2.1777,2.1269,2.1243,2.1229,2.1176,2.1176,2.1162,2.1109,2.1149,2.1176,2.1176,2.1176,2.1139,2.1052,2.0592,2.0772,1.0717,1.1999,0.0,0.0,0.0,0.0,0.0,0.0,0.0,0.0,0.0,0.0,0.0,0.0,0.0,0.0,0.0,0.0,0.0,0.0,0.0,0.0,0.0,2.3525,2.3632,2.3855,2.3971,2.4022,2.3528,2.314,2.2873,2.2928,2.2928,2.2928,2.2928,2.2928,2.2928,2.2928,2.2928,2.2928,2.2928,2.2928,2.2928,2.2605,2.2458,2.2338,2.1566,2.1183,2.1091,1.9908,1.9391,1.9266,1.8655,1.8395,1.8256,1.8256,1.8207,1.8003,1.7798,1.7723,1.7755,1.797,1.8503,1.9118,1.9039,1.9255,1.9508,1.9437,1.972,2.0403,2.1427,2.1671,2.1851,2.2642,2.2792,2.2806,2.2914,2.2928,2.2928,2.2928,2.2928,2.2928,2.2928,2.2928,2.2654,2.2035,2.2516,2.264,2.1984,2.2172,2.2405,2.2352,2.2138,2.1991,2.1991,2.1991,2.1951,2.1857,2.1844,2.1737,2.1561,2.1547,2.1363,2.1109,2.1363,2.1547,2.1547,2.1547,2.1357,2.0938,2.0249,2.0327,1.0717,1.2079,1.3327,0.0,0.0,0.0,0.0,0.0,0.0,0.0,0.0,0.0,0.0,0.0,0.0,0.0,0.0,0.0,0.0,0.0,0.0,0.0,0.0,2.2969,2.3379,2.3469,2.3453,2.3447,2.3199,2.3006,2.2941,2.2928,2.2928,2.2928,2.2928,2.2928,2.2928,2.2928,2.2928,2.2928,2.2928,2.2928,2.2859,2.2726,2.2659,2.2645,2.1781,2.1459,2.1323,1.9943,1.937,1.9312,1.867,1.8433,1.8433,1.8433,1.8369,1.8261,1.8142,1.811,1.8121,1.8239,1.848,1.8758,1.8747,1.8824,1.889,1.878,1.8966,1.9404,2.034,2.0584,2.0723,2.1553,2.2035,2.231,2.231,2.2585,2.2928,2.2928,2.2928,2.2928,2.2928,2.2928,2.2654,2.1897,2.2104,2.2035,2.1289,2.1714,2.2115,2.2115,2.2336,2.2458,2.2458,2.2458,2.2325,2.2004,2.1991,2.1924,2.179,2.179,2.1724,2.159,2.1724,2.179,2.179,2.1398,2.1135,2.0867,1.9934,2.0074,1.0717,1.2048,1.3409,0.0,0.0,0.0,0.0,0.0,0.0,0.0,0.0,0.0,0.0,0.0,0.0,0.0,0.0,0.0,0.0,0.0,0.0,2.2539,2.2432,2.2565,2.326,2.318,2.3088,2.2941,2.2926,2.2939,2.2928,2.2928,2.2928,2.2928,2.2928,2.2928,2.2928,2.2928,2.2928,2.2928,2.2928,2.2928,2.2928,2.2928,2.2928,2.2859,2.2104,2.176,2.1691,2.0167,1.9529,1.9401,1.8714,1.8433,1.8433,1.8433,1.8433,1.8433,1.8433,1.8433,1.8433,1.8433,1.8433,1.8433,1.8433,1.8433,1.8433,1.8433,1.8433,1.8573,1.9332,1.9529,1.9738,2.0735,2.1427,2.1829,2.2035,2.2582,2.2953,2.2873,2.2979,2.3046,2.2773,2.2743,2.2493,2.1527,2.1515,2.142,2.0747,2.1358,2.1841,2.2035,2.2585,2.2928,2.2928,2.2928,2.2672,2.2218,2.2124,2.2084,2.2084,2.2084,2.2058,2.1991,2.2058,2.2084,2.2084,2.1554,2.1127,2.0868,2.0051,2.0215,1.0717,1.2206,1.3544,1.2666,1.3994,0.0,1.6455,1.6217,0.0,0.0,0.0,0.0,0.0,0.0,0.0,0.0,0.0,0.0,0.0,0.0,2.2873,2.322,2.3247,2.326,2.3313,2.3554,2.3474,2.2968,2.3126,2.3166,2.2873,2.2928,2.2928,2.2928,2.2928,2.2928,2.2928,2.2928,2.2928,2.2928,2.2928,2.2928,2.2928,2.2928,2.2928,2.2859,2.2104,2.176,2.1691,2.0167,1.9529,1.9401,1.8714,1.8433,1.8433,1.8433,1.8433,1.8433,1.8433,1.8433,1.8433,1.8433,1.8433,1.8433,1.8433,1.8433,1.8433,1.8433,1.8433,1.8573,1.9332,1.9529,1.9878,2.1346,2.176,2.1966,2.2654,2.3086,2.3207,2.2926,2.3313,2.3395,2.2333,2.2441,2.2032,2.0296,2.0604,2.0931,2.0702,2.1358,2.2035,2.2722,2.2859,2.2928,2.2928,2.2928,2.2914,2.2874,2.2539,2.2392,2.2392,2.2392,2.2258,2.1991,2.2245,2.2392,2.2392,2.2324,2.1713,2.0743,2.1321,2.1321,1.0717,1.2996,1.53,1.496,0.0,0.0,0.0,0.0,0.0,0.0,0.0,0.0,0.0,0.0,0.0,0.0,0.0,0.0,0.0,2.2928,2.2968,2.302,2.3033,2.3033,2.3033,2.314,2.3182,2.2954,2.2966,2.2993,2.2941,2.2928,2.2928,2.2928,2.2928,2.2928,2.2928,2.2928,2.2928,2.2928,2.2928,2.2928,2.2928,2.2928,2.2928,2.2859,2.1634,2.1151,2.1012,1.9471,1.8843,1.8773,1.8503,1.8433,1.8433,1.8433,1.8433,1.8433,1.8433,1.8433,1.8433,1.8433,1.8433,1.8433,1.8433,1.8433,1.8433,1.8433,1.8433,1.8433,1.8714,1.8843,1.9052,2.0098,2.0844,2.1538,2.2293,2.31,2.3567,2.3447,2.324,2.2918,2.2517,2.2094,2.1486,2.0313,2.0662,2.0804,2.0298,2.111,2.1897,2.2173,2.2654,2.2928,2.2928,2.2928,2.2928,2.2928,2.2752,2.2699,2.2699,2.2699,2.2645,2.2539,2.2632,2.2699,2.2699,2.2222,2.1795,2.1358,2.0723,2.0723,1.1115,1.3285,1.5488,0.0,0.0,0.0,0.0,0.0,0.0,0.0,0.0,0.0,0.0,0.0,0.0,0.0,0.0,0.0,2.2928,2.2928,2.2928,2.2928,2.2928,2.2928,2.2928,2.2928,2.2928,2.2928,2.2928,2.2928,2.2928,2.2928,2.2913,2.3006,2.2913,2.2913,2.3006,2.2913,2.2928,2.2928,2.2928,2.2928,2.2928,2.2928,2.2928,2.2791,2.1358,2.0665,2.0596,1.9063,1.8433,1.8433,1.8433,1.8433,1.8433,1.8433,1.8433,1.8433,1.8433,1.8433,1.8433,1.8433,1.8433,1.8433,1.8433,1.8433,1.8433,1.8433,1.8487,1.8611,1.8823,1.8628,1.8665,1.9784,2.0567,2.1359,2.2435,2.3332,2.3803,2.3496,2.3112,2.2683,2.2089,2.1559,2.1012,2.014,2.0561,2.0769,2.0412,2.1368,2.2166,2.2388,2.2875,2.3113,2.302,2.3006,2.2966,2.2941,2.2928,2.2928,2.2928,2.2928,2.2928,2.2928,2.2928,2.2928,2.2928,2.2379,2.2035,2.1772,2.0988,2.1,1.2025,1.2808,0.0,0.0,0.0,0.0,0.0,0.0,0.0,0.0,0.0,0.0,0.0,0.0,0.0,0.0,2.2672,2.2928,2.2928,2.2928,2.2928,2.2928,2.2928,2.2928,2.2928,2.2928,2.2928,2.2928,2.2928,2.2928,2.2928,2.2928,2.3006,2.3313,2.3033,2.302,2.3327,2.302,2.2928,2.2928,2.2928,2.2928,2.2928,2.2928,2.2928,2.2791,2.1358,2.0665,2.0596,1.9063,1.8433,1.8433,1.8433,1.8433,1.8433,1.8433,1.8433,1.8433,1.8433,1.8433,1.8433,1.8433,1.8433,1.8433,1.8433,1.8433,1.8433,1.8433,1.8605,1.8992,1.9776,1.9171,1.8849,2.0651,2.1135,2.1562,2.3417,2.4008,2.3898,2.2832,2.2996,2.2757,2.0927,2.0791,2.0647,1.968,2.0229,2.0874,2.133,2.2085,2.2885,2.3696,2.3768,2.3647,2.3354,2.3327,2.3193,2.2954,2.2941,2.2928,2.2928,2.2928,2.2928,2.2928,2.2928,2.2928,2.2928,2.2928,2.2516,2.1829,2.2516,2.2516,1.1115,0.0,0.0,0.0,0.0,0.0,0.0,0.0,0.0,0.0,0.0,0.0,0.0,0.0,0.0,2.1219,2.22,2.2928,2.2928,2.2928,2.2928,2.2928,2.2928,2.2928,2.2928,2.2928,2.2928,2.2928,2.2928,2.2928,2.2928,2.3073,2.3233,2.3327,2.3447,2.3447,2.3327,2.3233,2.3086,2.2928,2.2928,2.2928,2.2928,2.2928,2.2928,2.2791,2.1358,2.0665,2.0596,1.9063,1.8433,1.8433,1.8433,1.8433,1.8433,1.8433,1.8433,1.8433,1.8433,1.8433,1.8433,1.8433,1.8433,1.8433,1.8433,1.8433,1.8433,1.8433,1.8605,1.8849,1.9063,1.8997,1.9454,2.1663,2.1906,2.2139,2.376,2.3865,2.352,2.3209,2.2361,2.1538,2.1009,2.0542,2.0263,2.0497,2.1071,2.1886,2.2937,2.3327,2.3554,2.3768,2.3768,2.3728,2.3647,2.3447,2.338,2.35,2.33,2.3086,2.2941,2.2928,2.2928,2.2928,2.2928,2.2928,2.2928,2.2928,2.2791,2.2585,2.2242,2.231,1.1238,0.0,0.0,0.0,0.0,0.0,0.0,0.0,0.0,0.0,0.0,0.0,0.0,0.0,0.0,2.1457,2.2199,2.2687,2.3046,2.3046,2.3006,2.2873,2.2928,2.2928,2.2928,2.2928,2.2928,2.2928,2.2928,2.2928,2.2928,2.3153,2.338,2.35,2.3567,2.3567,2.35,2.326,2.3046,2.2928,2.2928,2.2928,2.2928,2.2928,2.2928,2.2791,2.1358,2.0318,1.9692,1.8784,1.8433,1.8433,1.8433,1.8433,1.8433,1.8433,1.8433,1.8433,1.8433,1.8433,1.8433,1.8433,1.8433,1.8433,1.8433,1.8498,1.8573,1.8573,1.881,1.9141,1.9492,1.9094,1.917,2.1329,2.1655,2.1799,2.3098,2.3176,2.2843,2.2533,2.1637,2.0887,2.0586,2.0221,2.007,2.0511,2.1049,2.1859,2.3041,2.3463,2.3681,2.3681,2.3898,2.4062,2.3955,2.3781,2.3701,2.3768,2.3607,2.328,2.2815,2.2974,2.2993,2.2928,2.2928,2.2928,2.2928,2.2928,2.2928,2.2859,2.2448,2.2448,0.0,0.0,0.0,0.0,0.0,0.0,0.0,0.0,0.0,0.0,0.0,0.0,0.0,2.0527,2.065,2.2245,2.2357,2.246,2.3187,2.3327,2.3207,2.2899,2.2928,2.2928,2.2928,2.2928,2.2928,2.2928,2.2928,2.2941,2.2968,2.3193,2.3487,2.3768,2.3527,2.3514,2.3728,2.318,2.2886,2.2928,2.2928,2.2928,2.2928,2.2928,2.2859,2.2722,2.1358,1.9901,1.8503,1.8503,1.8433,1.8433,1.8433,1.8433,1.8433,1.8433,1.8433,1.8433,1.8433,1.8433,1.8433,1.8433,1.8455,1.8466,1.8466,1.8627,1.8821,1.8821,1.9071,1.9488,2.0376,1.9286,1.8431,2.0244,2.0558,2.0837,2.1975,2.2172,2.1873,2.1112,2.0962,2.0661,1.9995,1.9919,1.9919,1.9995,2.0661,2.1337,2.2097,2.2843,2.329,2.3364,2.4044,2.4456,2.4262,2.4222,2.4102,2.379,2.375,2.3379,2.2578,2.2923,2.3137,2.2884,2.2817,2.2886,2.3008,2.2954,2.2873,2.2968,2.2968,2.2968,0.0,0.0,0.0,0.0,0.0,0.0,0.0,0.0,0.0,0.0,0.0,0.0,0.0,1.9625,2.0309,2.1449,2.1932,2.246,2.3187,2.3327,2.3207,2.2899,2.2928,2.2928,2.2928,2.2928,2.2928,2.2928,2.2928,2.2966,2.3207,2.3514,2.3701,2.3768,2.3928,2.3821,2.342,2.3287,2.31,2.2928,2.2928,2.2928,2.2928,2.2928,2.2585,2.2035,2.1703,2.0723,1.9262,1.9262,1.8912,1.8433,1.8433,1.8433,1.8433,1.8433,1.8433,1.8433,1.8433,1.8433,1.8433,1.8433,1.8562,1.8702,1.8702,1.8875,1.9068,1.9068,1.8612,1.8364,1.9488,1.8912,1.8319,1.9704,1.9758,1.9983,2.1786,2.1712,2.1187,2.1026,2.0511,2.007,1.9919,1.9919,2.007,2.0661,2.1412,2.2023,2.2172,2.2321,2.2694,2.329,2.3513,2.387,2.4469,2.4329,2.3984,2.3555,2.3289,2.2784,2.2044,2.2304,2.2537,2.2692,2.2267,2.2545,2.3581,2.3169,2.2993,2.322,2.322,2.322,0.0,0.0,0.0,0.0,0.0,0.0,0.0,0.0,0.0,0.0,0.0,0.0,0.0,1.9182,2.0027,2.1066,2.1886,2.2615,2.32,2.3082,2.2793,2.2431,2.2379,2.2379,2.2379,2.2654,2.2928,2.2928,2.2928,2.2939,2.31,2.3394,2.3554,2.3554,2.3701,2.3634,2.3327,2.318,2.302,2.2928,2.2928,2.2928,2.2928,2.2928,2.2516,2.176,2.176,2.0931,1.9529,1.9529,1.9052,1.8433,1.8433,1.8433,1.8433,1.8433,1.8433,1.8433,1.8433,1.8433,1.8433,1.8433,1.8519,1.8638,1.8745,1.8961,1.9103,1.9284,1.9033,1.8901,1.9511,1.8844,1.8329,1.9617,1.9693,1.9833,2.0898,2.0838,2.0624,2.0624,2.0419,2.0265,2.0265,2.0265,2.0298,2.0559,2.1004,2.1197,2.1146,2.1424,2.1786,2.2235,2.273,2.3192,2.3642,2.3502,2.334,2.3029,2.2781,2.2263,2.1425,2.1498,2.1798,2.2599,2.2306,2.2743,2.3768,2.3447,2.338,2.3541,2.3541,2.3541,0.0,0.0,0.0,0.0,0.0,0.0,0.0,0.0,0.0,0.0,0.0,0.0,1.8584,1.9071,1.9959,2.1005,2.1914,2.262,2.3016,2.2705,2.217,2.1698,2.1703,2.176,2.176,2.2448,2.2928,2.2928,2.2928,2.2886,2.2939,2.3193,2.3327,2.3327,2.3327,2.33,2.3247,2.2993,2.2928,2.2928,2.2928,2.2928,2.2928,2.2928,2.2585,2.1966,2.1966,2.1138,1.968,1.968,1.9192,1.8433,1.8433,1.8433,1.8433,1.8433,1.8433,1.8444,1.8476,1.8498,1.8498,1.8541,1.8513,1.8649,1.8853,1.9079,1.9305,1.951,1.9543,1.9617,1.9844,1.8936,1.8329,1.9617,1.9952,1.9973,1.993,2.007,2.0264,2.0221,2.0404,2.0565,2.0565,2.0565,2.05,2.0307,2.0242,2.0156,2.007,2.0536,2.0966,2.1087,2.1966,2.2477,2.2629,2.2629,2.2629,2.2477,2.2274,2.1766,2.088,2.0687,2.1199,2.2476,2.2434,2.2937,2.3915,2.3821,2.3794,2.3848,2.3848,2.3848,0.0,0.0,0.0,0.0,0.0,0.0,0.0,0.0,0.0,0.0,0.0,0.0,1.8953,1.952,2.0225,2.1198,2.168,2.2054,2.2326,2.1923,2.1387,2.0865,2.1427,2.176,2.176,2.2448,2.2928,2.2928,2.2928,2.2979,2.3247,2.33,2.3327,2.3327,2.3327,2.3193,2.2926,2.2954,2.2928,2.2928,2.2928,2.2928,2.2928,2.2928,2.2859,2.2722,2.2722,2.1897,2.0527,2.0527,1.9692,1.8433,1.8433,1.8433,1.8433,1.8433,1.8433,1.8466,1.867,1.8735,1.8767,1.8982,1.9187,1.9359,1.9391,1.9564,1.9833,1.9865,1.9067,1.8481,1.9617,1.8936,1.8329,1.9617,2.0016,2.0102,1.9973,2.0276,2.0457,2.0253,2.0404,2.0565,2.0565,2.0565,2.0554,2.0522,2.035,2.0274,2.0447,2.0362,2.0693,2.1599,2.18,2.221,2.2906,2.2983,2.2674,2.1978,2.1877,2.1377,2.032,2.0288,2.0917,2.2225,2.1825,2.2551,2.4516,2.4022,2.3901,2.4142,2.4142,2.4142,0.0,0.0,0.0,0.0,0.0,0.0,0.0,0.0,0.0,0.0,0.0,0.0,1.8806,1.9375,1.9876,2.0274,2.1292,2.2053,2.2001,2.1558,2.1088,2.0714,2.1012,2.1151,2.1151,2.2242,2.2928,2.2928,2.2928,2.2926,2.306,2.3073,2.3073,2.3073,2.3073,2.3006,2.2928,2.2928,2.2928,2.2928,2.2928,2.2928,2.2928,2.2928,2.2928,2.2928,2.2928,2.231,2.1289,2.0873,2.004,1.8982,1.8573,1.8519,1.8627,1.8627,1.8713,1.8781,1.895,1.8993,1.9004,1.9039,1.9146,1.9327,1.9456,1.9575,1.9682,1.9887,1.9466,1.9163,1.9768,1.9572,1.9361,1.9896,2.0339,2.0533,2.0373,2.0511,2.077,2.0802,2.0899,2.0963,2.0963,2.0963,2.092,2.078,2.0662,2.0587,2.0565,2.0468,2.0602,2.109,2.1223,2.1457,2.1761,2.1839,2.1693,2.13,2.1178,2.0901,2.0414,2.0404,2.1067,2.2401,2.2016,2.2755,2.4636,2.4382,2.4329,2.4449,2.4609,2.4609,0.0,0.0,0.0,0.0,0.0,0.0,0.0,0.0,0.0,0.0,0.0,0.0,1.7805,1.8883,1.9609,1.9541,2.0931,2.1873,2.1534,2.1105,2.0685,2.0412,2.0388,2.0457,2.0665,2.1829,2.2722,2.2859,2.2928,2.2928,2.2928,2.2928,2.2928,2.2928,2.2928,2.2928,2.2928,2.2928,2.2928,2.2928,2.2928,2.2928,2.2928,2.2928,2.2928,2.2928,2.2928,2.2379,2.1496,2.0943,2.011,1.9192,1.8643,1.8541,1.8702,1.8756,1.8896,1.9068,1.906,1.9114,1.9168,1.9168,1.9273,1.9359,1.9531,1.9585,1.9628,1.9876,1.9973,1.993,1.9941,2.007,2.0285,2.0231,2.0565,2.0877,2.077,2.0823,2.1054,2.1556,2.1599,2.168,2.1911,2.1761,2.1534,2.1348,2.1101,2.0867,2.0759,2.0684,2.0673,2.0737,2.0899,2.0996,2.0996,2.0996,2.0996,2.0996,2.0834,2.0716,2.0651,2.0887,2.1546,2.2665,2.27,2.3367,2.4636,2.4414,2.4454,2.4756,2.4903,2.489,0.0,0.0,0.0,0.0,0.0,0.0,0.0,0.0,0.0,0.0,0.0,0.0,1.5709,1.8032,1.9886,1.9575,2.058,2.1316,2.0807,2.0333,1.9838,1.9564,1.9529,1.9889,2.0596,2.1427,2.2173,2.2859,2.2928,2.2928,2.2928,2.2928,2.2928,2.2928,2.2928,2.2928,2.2928,2.2928,2.2928,2.2928,2.2928,2.2928,2.2928,2.2928,2.2928,2.2928,2.2928,2.2104,2.0735,2.0735,1.9831,1.8433,1.8433,1.8444,1.8476,1.8702,1.8789,1.8832,1.8996,1.9295,1.9478,1.9478,1.9628,1.9887,1.9898,1.9908,1.9908,1.9919,2.0016,2.0145,1.9984,2.0265,2.049,2.0264,2.0565,2.0963,2.119,2.106,2.1213,2.235,2.2567,2.2797,2.3576,2.3038,2.2567,2.2545,2.161,2.0985,2.1211,2.1028,2.0974,2.1211,2.1254,2.1254,2.1254,2.1254,2.1254,2.1254,2.1243,2.1136,2.0899,2.167,2.2423,2.2942,2.3778,2.4352,2.4636,2.3822,2.4026,2.505,2.4783,2.4796,0.0,0.0,0.0,0.0,0.0,0.0,0.0,0.0,0.0,0.0,0.0,0.0,1.4539,1.6355,1.7803,1.7721,1.9116,2.0087,1.9982,1.9761,1.9644,1.9471,1.9529,1.982,2.0596,2.1358,2.2104,2.2859,2.2928,2.2928,2.2928,2.2928,2.2928,2.2928,2.2928,2.2928,2.2928,2.2928,2.2928,2.2928,2.2928,2.2928,2.2928,2.2928,2.2654,2.2173,2.2173,2.1897,2.1358,2.0873,2.004,1.9052,1.8573,1.8556,1.8835,1.8993,1.9208,1.9552,1.9564,1.965,1.9725,1.9725,1.9854,1.9952,2.0037,2.0081,2.0113,2.0264,2.0264,2.0231,2.0285,2.0436,2.0619,2.0845,2.1017,2.1168,2.1254,2.1684,2.2133,2.2545,2.2567,2.2728,2.2958,2.2314,2.1761,2.1761,2.1573,2.1394,2.148,2.1545,2.1566,2.1502,2.1631,2.1599,2.1308,2.1416,2.1437,2.1286,2.1276,2.1475,2.195,2.1778,2.2373,2.4078,2.3363,2.3658,2.5197,2.471,2.4763,2.5358,2.5251,2.5251,0.0,0.0,0.0,0.0,0.0,0.0,0.0,0.0,0.0,0.0,0.0,0.0,0.0,1.4868,1.5738,1.6098,1.77,1.896,1.896,1.9251,1.9529,1.9529,1.9262,1.9471,2.0237,2.1012,2.176,2.2448,2.2791,2.2928,2.2928,2.2928,2.2928,2.2928,2.2928,2.2928,2.2928,2.2928,2.2791,2.2516,2.2516,2.2379,2.2173,2.2448,2.2104,2.1427,2.1703,2.1484,2.1,2.0515,1.9866,1.9245,1.8763,1.8799,1.9082,1.9168,1.9467,1.9811,1.9811,1.9854,1.9908,1.9758,1.9854,1.9973,2.0145,2.021,2.0242,2.0404,2.0447,2.0447,2.0447,2.0305,2.0321,2.112,2.1005,2.0792,2.1216,2.1761,2.2245,2.2567,2.2567,2.2671,2.3074,2.2382,2.1816,2.197,2.173,2.1653,2.1728,2.1868,2.1911,2.1749,2.1879,2.1846,2.1534,2.1653,2.1674,2.1523,2.1513,2.1758,2.233,2.2085,2.2646,2.4228,2.3584,2.3848,2.5088,2.4929,2.499,2.5267,2.5405,2.5558,0.0,0.0,0.0,0.0,0.0,0.0,0.0,0.0,0.0,0.0,0.0,0.0,0.0,0.0,1.3737,1.4776,1.6503,1.776,1.776,1.8751,1.939,1.939,1.8773,1.8643,1.939,2.0237,2.1012,2.176,2.2448,2.2928,2.2928,2.2928,2.2928,2.2928,2.2928,2.2928,2.2928,2.2928,2.2516,2.176,2.176,2.1427,2.0735,2.1427,2.1358,2.0665,2.1415,2.0861,1.946,1.9471,1.9197,1.8778,1.8789,1.8939,1.9103,1.9413,1.951,1.951,1.951,1.9661,1.9887,1.9585,1.9671,1.9984,2.0145,2.0231,2.0242,2.0242,2.0565,2.0802,2.0361,1.973,1.9662,2.0962,2.0385,1.9901,2.1086,2.1297,2.154,2.2406,2.2567,2.297,2.3946,2.3306,2.275,2.323,2.2361,2.1728,2.1954,2.1986,2.1986,2.1976,2.1986,2.1986,2.1965,2.1986,2.1997,2.1965,2.1986,2.1997,2.2081,2.281,2.3298,2.3298,2.4711,2.5063,2.4226,2.4306,2.4508,2.4697,2.528,2.5692,1.0717,0.0,0.0,0.0,0.0,0.0,0.0,0.0,0.0,0.0,0.0,0.0,0.0,0.0,0.0,0.0,1.5026,1.7007,1.7007,1.7288,1.7499,1.7499,1.7288,1.7429,1.8191,1.9738,2.1012,0.0,2.2448,2.2928,2.2928,2.2928,2.2928,2.2928,2.2928,2.2928,2.2928,2.2928,2.2516,2.176,2.176,2.1427,2.0735,2.0943,2.0596,1.982,2.0028,1.9611,1.8795,1.9464,1.9264,1.8562,1.8918,1.9017,1.9103,1.9413,1.9607,1.9822,1.9822,1.9865,1.9908,1.9844,1.9919,2.0156,2.0393,2.0576,2.0748,2.0931,2.0942,2.091,2.0974,2.1139,2.1242,2.1484,2.1448,2.1388,2.1495,2.1663,2.1921,2.2474,2.2704,2.2934,2.3237,2.2613,2.2229,2.236,2.223,2.2159,2.2223,2.2385,2.2417,2.2256,2.2385,2.2342,2.1997,2.2137,2.2159,2.1976,2.1976,2.231,2.2894,2.2549,2.2966,2.4116,2.4635,2.4596,2.4226,2.5046,2.5348,2.499,2.578,2.6186,0.0,0.0,0.0,0.0,0.0,0.0,1.3477,1.4954,1.6192,0.0,0.0,0.0,0.0,0.0,0.0,0.0,1.3722,1.5452,1.5947,1.6525,1.6859,1.6754,1.6306,1.6387,1.7288,1.8611,2.0017,2.1289,2.2035,2.2585,2.2859,2.2928,2.2928,2.2928,2.2928,2.2722,2.2448,2.2448,2.1897,2.0861,2.0861,2.0445,1.9761,2.004,1.9959,1.9529,1.9529,1.9262,1.8865,1.926,1.9124,1.8685,1.8964,1.9273,1.9456,1.9596,1.9811,1.9919,1.9919,1.9919,1.9919,1.9919,2.0016,2.0253,2.049,2.0727,2.0931,2.1082,2.1093,2.1114,2.1362,2.1283,2.1264,2.1627,2.1452,2.1254,2.171,2.1452,2.1212,2.1434,2.1581,2.1699,2.1723,2.1431,2.1358,2.2149,2.2385,2.2482,2.2482,2.2686,2.274,2.2503,2.26,2.2568,2.2288,2.2395,2.2417,2.2277,2.2266,2.252,2.3028,2.252,2.2774,2.3691,2.4018,2.4365,2.4726,2.5844,2.6096,2.566,2.6149,2.6386,0.0,0.0,0.0,0.0,0.0,0.0,1.383,1.4518,1.5329,1.7612,0.0,0.0,0.0,0.0,0.0,0.0,0.0,1.3706,1.4705,1.6012,1.6768,1.6415,1.5597,1.5407,1.6429,1.7308,1.8643,2.0527,2.1521,2.2212,2.2859,2.2968,2.2899,2.2928,2.2928,2.2516,2.1841,2.1897,2.1138,1.9611,1.9611,1.9262,1.8643,1.9192,1.939,1.9529,1.939,1.939,1.9343,1.8932,1.8875,1.9007,1.906,1.9402,1.9844,1.9876,1.9898,1.9919,1.9919,1.9919,1.993,1.9952,2.0048,2.0296,2.0533,2.0759,2.0953,2.0974,2.1157,2.1405,2.1466,2.0691,2.0254,2.1505,2.0749,2.0085,2.1505,2.0843,1.9926,1.9757,1.9823,1.9956,2.015,2.0213,2.0742,2.2449,2.2686,2.2686,2.2686,2.288,2.2923,2.2708,2.2686,2.2686,2.2686,2.2686,2.2686,2.2686,2.2686,2.2686,2.2686,2.2686,2.2686,2.2686,2.3387,2.4377,2.572,2.637,2.6587,2.6386,2.6426,2.6426,0.0,0.0,0.0,0.0,0.0,0.0,1.1688,1.2285,1.3214,0.0,0.0,0.0,0.0,0.0,0.0,0.0,0.0,0.0,1.3809,1.4083,1.4302,1.4384,1.4203,1.4441,1.5407,1.7041,1.8758,2.0539,2.2128,2.2988,2.2873,2.31,2.3113,2.2941,2.2928,2.2516,2.1841,2.2379,2.1966,2.0457,2.0457,2.0388,2.0179,1.9133,1.8912,1.946,1.8843,1.8643,1.8573,1.8557,1.853,1.8545,1.8932,1.9135,1.9305,1.9499,1.9682,1.9919,1.9919,1.9919,1.9952,2.0081,2.0307,2.0544,2.077,2.1007,2.1243,2.1426,2.1653,2.164,2.0682,2.0475,2.0508,2.0502,1.9647,1.9118,2.0331,2.0515,2.0115,1.8981,1.9542,2.0131,2.018,2.1327,2.231,2.2665,2.2686,2.2686,2.2686,2.2729,2.274,2.2686,2.2686,2.2686,2.2686,2.2686,2.2686,2.2686,2.2686,2.2686,2.2686,2.2686,2.2686,2.2686,2.4055,2.5561,2.7288,2.631,2.6026,2.64,2.6627,2.6613,0.0,0.0,0.0,1.5005,0.0,0.0,0.0,1.4077,1.4107,0.0,0.0,0.0,0.0,0.0,0.0,0.0,0.0,0.0,0.0,0.0,1.385,1.3847,1.3394,1.3416,1.4245,1.5732,1.7847,2.066,2.2254,2.31,2.31,2.31,2.302,2.2928,2.2928,2.2516,2.1841,2.2173,2.176,2.0665,2.0306,2.0318,2.0665,1.9471,1.9541,2.0584,1.9889,1.9552,1.9552,1.9122,1.8714,1.8466,1.8832,1.9112,1.9338,1.9456,1.965,1.9919,1.9919,1.9919,1.9962,2.0134,2.0371,2.0608,2.0834,2.1082,2.1157,2.0724,2.0775,2.0665,1.9448,1.9226,1.9386,1.9386,1.8781,1.8521,1.9213,1.947,1.937,1.8672,1.894,1.9596,2.0395,2.1195,2.194,2.2761,2.2869,2.2826,2.2697,2.2794,2.2815,2.2697,2.2686,2.2686,2.2686,2.2686,2.2686,2.2686,2.2686,2.2686,2.2686,2.2686,2.2686,2.2686,2.4353,2.5565,2.6363,2.6579,2.6622,2.66,2.66,2.6533,0.0,0.0,0.0,0.0,0.0,1.6548,0.0,0.0,0.0,0.0,0.0,0.0,0.0,0.0,0.0,0.0,0.0,0.0,0.0,0.0,0.0,1.3399,1.2728,1.2571,1.3413,1.4563,1.6859,2.0474,2.1811,2.2701,2.3244,2.314,2.3048,2.2928,2.2928,2.2516,2.1841,2.1966,2.1634,2.0873,2.0237,2.0376,2.1081,2.0167,2.0515,2.1772,2.0873,2.0457,2.0388,1.9668,1.8979,1.8519,1.8659,1.9004,1.9435,1.9435,1.9607,1.9919,1.9919,1.9919,1.9973,2.0188,2.0468,2.0737,2.092,2.0986,2.0732,1.9878,1.9584,1.9288,1.8044,1.775,1.7871,1.8017,1.7712,1.7566,1.8034,1.8374,1.8506,1.8207,1.8812,1.9637,2.0637,2.0472,2.087,2.2693,2.2757,2.2606,2.2718,2.2858,2.2902,2.2708,2.2686,2.2708,2.2751,2.2751,2.2751,2.2751,2.2751,2.2729,2.2686,2.2686,2.2772,2.2945,2.4384,2.5131,2.5096,2.6639,2.7237,2.6814,2.664,2.6493,0.0,0.0,0.0,0.0,1.818,0.0,0.0,0.0,1.5443,1.4033,0.0,0.0,0.0,0.0,0.0,0.0,0.0,0.0,0.0,0.0,0.0,1.1818,1.1992,1.2409,1.3244,1.4815,1.6887,1.9424,2.0415,2.1612,2.3257,2.3541,2.342,2.2954,2.2928,2.2516,2.1841,2.2448,2.2379,2.1703,2.1553,2.1897,2.2585,2.122,2.1012,2.1691,2.0306,1.9611,1.9622,1.9074,1.8817,1.8724,1.8541,1.8696,1.9114,1.9114,1.9467,1.9919,1.9919,1.9919,1.9995,2.0371,2.0823,2.12,2.1222,2.0487,1.9712,1.9845,1.9128,1.8044,1.6848,1.6633,1.6633,1.6657,1.5794,1.523,1.6424,1.7881,1.8595,1.7088,1.9902,2.206,2.0831,1.9711,1.9758,2.2318,2.1756,2.1457,2.2535,2.2708,2.2718,2.2686,2.2686,2.2772,2.2988,2.3009,2.3009,2.3009,2.3009,2.2912,2.2697,2.2686,2.3117,2.3892,2.4149,2.464,2.5361,2.6058,2.6579,2.6827,2.7054,2.6881,0.0,0.0,0.0,0.0,0.0,0.0,1.916,0.0,1.7216,0.0,0.0,0.0,0.0,0.0,0.0,0.0,1.09,0.0,0.0,0.0,0.0,0.0,0.0,0.0,1.3197,1.4373,1.6253,1.9151,2.0017,2.1208,2.3174,2.3273,2.3126,2.2941,2.2928,2.2722,2.2448,2.2722,2.2722,2.2448,2.1966,2.2173,2.2859,2.1829,2.176,2.2379,2.1276,2.0584,2.0191,1.9674,1.9217,1.8789,1.8832,1.8985,1.9348,1.9348,1.9564,1.9919,1.9919,1.9919,2.0006,2.0481,2.0888,2.1135,2.0447,1.9881,1.9273,1.7987,1.7279,1.6633,1.5594,1.5305,1.5305,1.5305,1.4909,1.4675,1.5141,1.6561,1.7747,1.804,1.9391,2.0803,2.1854,2.0754,2.0209,2.1464,2.1094,2.087,2.1389,2.2157,2.2686,2.2686,2.2805,2.2934,2.2954,2.3171,2.3257,2.3257,2.3128,2.2922,2.2902,2.2762,2.2859,2.329,2.3806,2.4566,2.5409,2.6233,2.6819,2.7335,2.7281,2.7134,2.1416,0.0,0.0,0.0,0.0,0.0,0.0,0.0,0.0,0.0,0.0,0.0,0.0,0.0,0.0,0.0,0.0,1.0779,0.0,0.0,0.0,0.0,0.0,0.0,0.0,1.324,1.4947,1.8343,1.9108,2.0459,2.2881,2.3044,2.2953,2.2928,2.2928,2.2928,2.2928,2.2928,2.2928,2.2859,2.2379,2.2379,2.2859,2.2379,2.2379,2.2859,2.2104,2.1358,2.069,2.019,1.9531,1.8918,1.9219,1.9445,1.9585,1.9521,1.9693,1.9951,1.9951,2.0037,2.0188,2.0544,2.0942,2.1075,1.9891,1.9244,1.8606,1.6559,1.5821,1.5395,1.4661,1.4455,1.4455,1.4455,1.4516,1.4563,1.4523,1.568,1.7057,1.787,1.8772,1.9839,2.1185,2.0333,1.9821,2.0706,2.0081,1.9859,2.0589,2.1608,2.2434,2.288,2.3042,2.3171,2.3235,2.3397,2.3494,2.3494,2.3214,2.2965,2.2965,2.2815,2.2686,2.2686,2.3634,2.4395,2.508,2.6188,2.7019,2.7482,2.7439,2.7348,0.0,0.0,0.0,2.1189,0.0,0.0,0.0,0.0,2.0604,0.0,0.0,0.0,0.0,0.0,0.0,0.0,0.0,0.0,0.0,0.0,0.0,0.0,0.0,0.0,0.0,1.1317,1.275,1.6192,1.7188,1.8968,2.2096,2.2881,2.318,2.2941,2.2928,2.2928,2.2928,2.2928,2.2928,2.2928,2.2859,2.2859,2.2928,2.2859,2.2859,2.2859,2.2104,2.1358,2.0702,2.0376,1.9787,1.9114,1.9639,1.9908,1.9887,1.9585,1.9801,2.0199,2.0199,2.05,2.0877,2.0888,2.1071,2.1075,1.9891,1.8755,1.7604,1.634,1.5213,1.438,1.4306,1.4306,1.4306,1.4306,1.4523,1.4692,1.4543,1.6034,1.6979,1.5447,1.8517,2.0517,1.7792,1.6951,1.7637,2.0192,1.8546,1.7902,2.0558,2.1077,2.184,2.3197,2.3386,2.3483,2.3709,2.3821,2.3821,2.3821,2.3311,2.2965,2.2965,2.2815,2.2686,2.2686,2.3634,2.4149,2.4149,2.5933,2.6783,2.6855,2.7412,2.7535,2.1924,2.2191,2.2325,2.1577,0.0,0.0,0.0,0.0,0.0,0.0,0.0,0.0,0.0,0.0,0.0,0.0,0.0,0.0,0.0,0.0,0.0,0.0,0.0,0.0,0.0,0.0,1.2322,1.4728,1.5976,1.778,2.068,2.1761,2.2484,2.2859,2.2928,2.2928,2.2928,2.2928,2.2928,2.2928,2.2928,2.2928,2.2928,2.2928,2.2928,2.2859,2.1622,2.1041,2.0802,1.9881,1.946,1.9487,2.0314,2.0395,2.0081,2.0005,2.007,2.0242,2.0393,2.0651,2.0899,2.0899,2.1071,2.0934,1.8968,1.8108,1.7383,1.5446,1.4611,1.4346,1.4543,1.459,1.4882,1.597,1.554,1.5151,1.6088,1.6029,1.5982,1.6491,1.7696,1.8534,1.8542,1.7515,1.742,1.9329,1.8786,1.8892,2.0928,2.1998,2.2862,2.3308,2.3537,2.3655,2.3832,2.3892,2.3989,2.3989,2.3688,2.344,2.3289,2.3052,2.3108,2.3634,2.3978,2.4664,2.5848,2.6528,2.7135,2.7714,2.7959,2.7936,2.2164,2.2418,2.2539,2.1936,2.1991,2.2084,2.1416,0.0,2.1376,0.0,0.0,0.0,0.0,0.0,0.0,0.0,0.0,0.0,0.0,1.0717,0.0,0.0,0.0,0.0,0.0,0.0,1.1963,1.3665,1.5174,1.7097,1.9565,2.1057,2.2104,2.2859,2.2928,2.2928,2.2928,2.2928,2.2928,2.2928,2.2928,2.2928,2.2928,2.2928,2.2791,2.2448,2.1496,2.088,2.058,1.9843,1.9504,1.9595,2.0635,2.0667,2.021,2.0517,2.0549,2.049,2.0737,2.091,2.1039,2.1039,2.0814,2.0212,1.8382,1.7485,1.671,1.4755,1.4258,1.4333,1.4468,1.4577,1.486,1.5953,1.5618,1.5248,1.6243,1.5739,1.5352,1.6464,1.6956,1.735,1.7813,1.7385,1.7242,1.8174,1.7854,1.8223,2.0331,2.15,2.2463,2.3554,2.3784,2.3881,2.3881,2.4021,2.4118,2.4118,2.3806,2.3558,2.3408,2.3359,2.3751,2.4551,2.489,2.5824,2.7228,2.7277,2.763,2.8221,2.8221,2.8221]}]]